<?xml version="1.0" encoding="UTF-8" standalone="no" ?>
<gpx xmlns="http://www.topografix.com/GPX/1/1" xmlns:xsi="http://www.w3.org/2001/XMLSchema-instance" xsi:schemaLocation="http://www.topografix.com/GPX/1/1 http://www.topografix.com/GPX/1/1/gpx.xsd" version="1.1" creator="VisuGPX - https://www.visugpx.com">
  <metadata>
    <name>VTT croix de treve</name>
  </metadata>
  <trk>
    <name><![CDATA[VTT croix de treve]]></name>
    <trkseg>
      <trkpt lat="45.29249" lon="4.73424">
        <ele>384.79998779297</ele>
        <time>2021-03-24T12:25:32Z</time>
      </trkpt>
      <trkpt lat="45.29249" lon="4.73424">
        <ele>384.79998779297</ele>
        <time>2021-03-24T12:25:33Z</time>
      </trkpt>
      <trkpt lat="45.29249" lon="4.73424">
        <ele>384.39999389648</ele>
        <time>2021-03-24T12:26:06Z</time>
      </trkpt>
      <trkpt lat="45.29248" lon="4.73406">
        <ele>384.39999389648</ele>
        <time>2021-03-24T12:26:13Z</time>
      </trkpt>
      <trkpt lat="45.29241" lon="4.73384">
        <ele>384.20001220703</ele>
        <time>2021-03-24T12:26:20Z</time>
      </trkpt>
      <trkpt lat="45.29249" lon="4.73372">
        <ele>384.20001220703</ele>
        <time>2021-03-24T12:26:26Z</time>
      </trkpt>
      <trkpt lat="45.29271" lon="4.73342">
        <ele>385.20001220703</ele>
        <time>2021-03-24T12:26:41Z</time>
      </trkpt>
      <trkpt lat="45.29304" lon="4.73304">
        <ele>386.60000610352</ele>
        <time>2021-03-24T12:27:02Z</time>
      </trkpt>
      <trkpt lat="45.2935" lon="4.73249">
        <ele>388.20001220703</ele>
        <time>2021-03-24T12:27:28Z</time>
      </trkpt>
      <trkpt lat="45.29367" lon="4.73229">
        <ele>389</ele>
        <time>2021-03-24T12:27:39Z</time>
      </trkpt>
      <trkpt lat="45.29399" lon="4.73188">
        <ele>391.60000610352</ele>
        <time>2021-03-24T12:27:57Z</time>
      </trkpt>
      <trkpt lat="45.29405" lon="4.73143">
        <ele>392.79998779297</ele>
        <time>2021-03-24T12:28:09Z</time>
      </trkpt>
      <trkpt lat="45.29396" lon="4.73075">
        <ele>395.39999389648</ele>
        <time>2021-03-24T12:28:25Z</time>
      </trkpt>
      <trkpt lat="45.29388" lon="4.73039">
        <ele>397.20001220703</ele>
        <time>2021-03-24T12:28:34Z</time>
      </trkpt>
      <trkpt lat="45.29385" lon="4.73031">
        <ele>397.20001220703</ele>
        <time>2021-03-24T12:28:36Z</time>
      </trkpt>
      <trkpt lat="45.29397" lon="4.73023">
        <ele>397.39999389648</ele>
        <time>2021-03-24T12:28:41Z</time>
      </trkpt>
      <trkpt lat="45.29431" lon="4.73026">
        <ele>397.60000610352</ele>
        <time>2021-03-24T12:28:48Z</time>
      </trkpt>
      <trkpt lat="45.29473" lon="4.73016">
        <ele>397.60000610352</ele>
        <time>2021-03-24T12:28:56Z</time>
      </trkpt>
      <trkpt lat="45.29533" lon="4.73004">
        <ele>397.79998779297</ele>
        <time>2021-03-24T12:29:08Z</time>
      </trkpt>
      <trkpt lat="45.29582" lon="4.72998">
        <ele>398.60000610352</ele>
        <time>2021-03-24T12:29:19Z</time>
      </trkpt>
      <trkpt lat="45.29615" lon="4.72991">
        <ele>400</ele>
        <time>2021-03-24T12:29:28Z</time>
      </trkpt>
      <trkpt lat="45.29619" lon="4.7299">
        <ele>400.60000610352</ele>
        <time>2021-03-24T12:29:29Z</time>
      </trkpt>
      <trkpt lat="45.29637" lon="4.7298">
        <ele>401.39999389648</ele>
        <time>2021-03-24T12:29:34Z</time>
      </trkpt>
      <trkpt lat="45.29676" lon="4.72953">
        <ele>402.20001220703</ele>
        <time>2021-03-24T12:29:44Z</time>
      </trkpt>
      <trkpt lat="45.29748" lon="4.72892">
        <ele>403.60000610352</ele>
        <time>2021-03-24T12:30:02Z</time>
      </trkpt>
      <trkpt lat="45.29761" lon="4.7288">
        <ele>403.60000610352</ele>
        <time>2021-03-24T12:30:05Z</time>
      </trkpt>
      <trkpt lat="45.29801" lon="4.7285">
        <ele>403.60000610352</ele>
        <time>2021-03-24T12:30:14Z</time>
      </trkpt>
      <trkpt lat="45.29817" lon="4.72846">
        <ele>403.39999389648</ele>
        <time>2021-03-24T12:30:17Z</time>
      </trkpt>
      <trkpt lat="45.29919" lon="4.72807">
        <ele>403.39999389648</ele>
        <time>2021-03-24T12:30:36Z</time>
      </trkpt>
      <trkpt lat="45.29991" lon="4.72765">
        <ele>403.20001220703</ele>
        <time>2021-03-24T12:30:52Z</time>
      </trkpt>
      <trkpt lat="45.30078" lon="4.72715">
        <ele>403.60000610352</ele>
        <time>2021-03-24T12:31:11Z</time>
      </trkpt>
      <trkpt lat="45.30112" lon="4.727">
        <ele>403.79998779297</ele>
        <time>2021-03-24T12:31:18Z</time>
      </trkpt>
      <trkpt lat="45.30143" lon="4.72696">
        <ele>404</ele>
        <time>2021-03-24T12:31:25Z</time>
      </trkpt>
      <trkpt lat="45.30192" lon="4.72691">
        <ele>405.39999389648</ele>
        <time>2021-03-24T12:31:39Z</time>
      </trkpt>
      <trkpt lat="45.30233" lon="4.72684">
        <ele>406.20001220703</ele>
        <time>2021-03-24T12:31:49Z</time>
      </trkpt>
      <trkpt lat="45.30289" lon="4.72671">
        <ele>405.20001220703</ele>
        <time>2021-03-24T12:31:58Z</time>
      </trkpt>
      <trkpt lat="45.3032" lon="4.72675">
        <ele>403.39999389648</ele>
        <time>2021-03-24T12:32:05Z</time>
      </trkpt>
      <trkpt lat="45.30369" lon="4.72726">
        <ele>401.79998779297</ele>
        <time>2021-03-24T12:32:15Z</time>
      </trkpt>
      <trkpt lat="45.30394" lon="4.72728">
        <ele>400.39999389648</ele>
        <time>2021-03-24T12:32:19Z</time>
      </trkpt>
      <trkpt lat="45.304" lon="4.72725">
        <ele>399</ele>
        <time>2021-03-24T12:32:20Z</time>
      </trkpt>
      <trkpt lat="45.30445" lon="4.7271">
        <ele>395.39999389648</ele>
        <time>2021-03-24T12:32:25Z</time>
      </trkpt>
      <trkpt lat="45.3047" lon="4.72708">
        <ele>392.20001220703</ele>
        <time>2021-03-24T12:32:28Z</time>
      </trkpt>
      <trkpt lat="45.30505" lon="4.72713">
        <ele>389</ele>
        <time>2021-03-24T12:32:32Z</time>
      </trkpt>
      <trkpt lat="45.30557" lon="4.72726">
        <ele>386.39999389648</ele>
        <time>2021-03-24T12:32:38Z</time>
      </trkpt>
      <trkpt lat="45.30605" lon="4.72723">
        <ele>383.39999389648</ele>
        <time>2021-03-24T12:32:43Z</time>
      </trkpt>
      <trkpt lat="45.30626" lon="4.72718">
        <ele>381.79998779297</ele>
        <time>2021-03-24T12:32:46Z</time>
      </trkpt>
      <trkpt lat="45.30648" lon="4.72707">
        <ele>382.60000610352</ele>
        <time>2021-03-24T12:32:52Z</time>
      </trkpt>
      <trkpt lat="45.30657" lon="4.72702">
        <ele>384.20001220703</ele>
        <time>2021-03-24T12:32:56Z</time>
      </trkpt>
      <trkpt lat="45.30666" lon="4.72703">
        <ele>385.39999389648</ele>
        <time>2021-03-24T12:33:00Z</time>
      </trkpt>
      <trkpt lat="45.30673" lon="4.72708">
        <ele>385.60000610352</ele>
        <time>2021-03-24T12:33:02Z</time>
      </trkpt>
      <trkpt lat="45.30699" lon="4.72713">
        <ele>386.20001220703</ele>
        <time>2021-03-24T12:33:09Z</time>
      </trkpt>
      <trkpt lat="45.30722" lon="4.72716">
        <ele>388</ele>
        <time>2021-03-24T12:33:19Z</time>
      </trkpt>
      <trkpt lat="45.30742" lon="4.7272">
        <ele>390</ele>
        <time>2021-03-24T12:33:28Z</time>
      </trkpt>
      <trkpt lat="45.30762" lon="4.72715">
        <ele>391.39999389648</ele>
        <time>2021-03-24T12:33:36Z</time>
      </trkpt>
      <trkpt lat="45.30782" lon="4.72704">
        <ele>393.20001220703</ele>
        <time>2021-03-24T12:33:45Z</time>
      </trkpt>
      <trkpt lat="45.30807" lon="4.72701">
        <ele>395.39999389648</ele>
        <time>2021-03-24T12:33:55Z</time>
      </trkpt>
      <trkpt lat="45.3086" lon="4.72709">
        <ele>395.60000610352</ele>
        <time>2021-03-24T12:34:08Z</time>
      </trkpt>
      <trkpt lat="45.30881" lon="4.72719">
        <ele>395</ele>
        <time>2021-03-24T12:34:13Z</time>
      </trkpt>
      <trkpt lat="45.30894" lon="4.72726">
        <ele>394.60000610352</ele>
        <time>2021-03-24T12:34:17Z</time>
      </trkpt>
      <trkpt lat="45.30908" lon="4.7273">
        <ele>394.39999389648</ele>
        <time>2021-03-24T12:34:20Z</time>
      </trkpt>
      <trkpt lat="45.31006" lon="4.72747">
        <ele>391.20001220703</ele>
        <time>2021-03-24T12:34:33Z</time>
      </trkpt>
      <trkpt lat="45.31042" lon="4.72746">
        <ele>387.60000610352</ele>
        <time>2021-03-24T12:34:37Z</time>
      </trkpt>
      <trkpt lat="45.3105" lon="4.72747">
        <ele>387.20001220703</ele>
        <time>2021-03-24T12:34:39Z</time>
      </trkpt>
      <trkpt lat="45.31065" lon="4.7275">
        <ele>386.20001220703</ele>
        <time>2021-03-24T12:34:41Z</time>
      </trkpt>
      <trkpt lat="45.31103" lon="4.72765">
        <ele>385.20001220703</ele>
        <time>2021-03-24T12:34:47Z</time>
      </trkpt>
      <trkpt lat="45.31196" lon="4.72781">
        <ele>387</ele>
        <time>2021-03-24T12:35:05Z</time>
      </trkpt>
      <trkpt lat="45.31256" lon="4.72788">
        <ele>388.39999389648</ele>
        <time>2021-03-24T12:35:17Z</time>
      </trkpt>
      <trkpt lat="45.31396" lon="4.72804">
        <ele>388.79998779297</ele>
        <time>2021-03-24T12:35:43Z</time>
      </trkpt>
      <trkpt lat="45.31433" lon="4.72807">
        <ele>388.60000610352</ele>
        <time>2021-03-24T12:35:50Z</time>
      </trkpt>
      <trkpt lat="45.31486" lon="4.72814">
        <ele>390.60000610352</ele>
        <time>2021-03-24T12:36:03Z</time>
      </trkpt>
      <trkpt lat="45.31513" lon="4.72815">
        <ele>392.79998779297</ele>
        <time>2021-03-24T12:36:11Z</time>
      </trkpt>
      <trkpt lat="45.31564" lon="4.72827">
        <ele>395.20001220703</ele>
        <time>2021-03-24T12:36:26Z</time>
      </trkpt>
      <trkpt lat="45.31617" lon="4.72834">
        <ele>397.79998779297</ele>
        <time>2021-03-24T12:36:43Z</time>
      </trkpt>
      <trkpt lat="45.31646" lon="4.7284">
        <ele>399.20001220703</ele>
        <time>2021-03-24T12:36:56Z</time>
      </trkpt>
      <trkpt lat="45.31659" lon="4.7284">
        <ele>399.79998779297</ele>
        <time>2021-03-24T12:37:02Z</time>
      </trkpt>
      <trkpt lat="45.31671" lon="4.72844">
        <ele>400</ele>
        <time>2021-03-24T12:37:07Z</time>
      </trkpt>
      <trkpt lat="45.31693" lon="4.72853">
        <ele>401.20001220703</ele>
        <time>2021-03-24T12:37:14Z</time>
      </trkpt>
      <trkpt lat="45.31705" lon="4.72863">
        <ele>401.60000610352</ele>
        <time>2021-03-24T12:37:18Z</time>
      </trkpt>
      <trkpt lat="45.31712" lon="4.72866">
        <ele>401.79998779297</ele>
        <time>2021-03-24T12:37:20Z</time>
      </trkpt>
      <trkpt lat="45.31716" lon="4.72849">
        <ele>401.60000610352</ele>
        <time>2021-03-24T12:37:24Z</time>
      </trkpt>
      <trkpt lat="45.31714" lon="4.72833">
        <ele>402.39999389648</ele>
        <time>2021-03-24T12:37:29Z</time>
      </trkpt>
      <trkpt lat="45.31729" lon="4.72823">
        <ele>403.79998779297</ele>
        <time>2021-03-24T12:37:38Z</time>
      </trkpt>
      <trkpt lat="45.31735" lon="4.72818">
        <ele>404.39999389648</ele>
        <time>2021-03-24T12:37:41Z</time>
      </trkpt>
      <trkpt lat="45.31756" lon="4.72811">
        <ele>406.60000610352</ele>
        <time>2021-03-24T12:37:52Z</time>
      </trkpt>
      <trkpt lat="45.31758" lon="4.7281">
        <ele>407</ele>
        <time>2021-03-24T12:37:53Z</time>
      </trkpt>
      <trkpt lat="45.31766" lon="4.72799">
        <ele>407.39999389648</ele>
        <time>2021-03-24T12:37:58Z</time>
      </trkpt>
      <trkpt lat="45.31792" lon="4.72765">
        <ele>408.60000610352</ele>
        <time>2021-03-24T12:38:08Z</time>
      </trkpt>
      <trkpt lat="45.31817" lon="4.72726">
        <ele>408.39999389648</ele>
        <time>2021-03-24T12:38:16Z</time>
      </trkpt>
      <trkpt lat="45.31831" lon="4.72701">
        <ele>408</ele>
        <time>2021-03-24T12:38:20Z</time>
      </trkpt>
      <trkpt lat="45.31841" lon="4.72679">
        <ele>407.60000610352</ele>
        <time>2021-03-24T12:38:23Z</time>
      </trkpt>
      <trkpt lat="45.31868" lon="4.72648">
        <ele>407</ele>
        <time>2021-03-24T12:38:29Z</time>
      </trkpt>
      <trkpt lat="45.31892" lon="4.72615">
        <ele>406.20001220703</ele>
        <time>2021-03-24T12:38:34Z</time>
      </trkpt>
      <trkpt lat="45.31946" lon="4.72574">
        <ele>406.20001220703</ele>
        <time>2021-03-24T12:38:45Z</time>
      </trkpt>
      <trkpt lat="45.31981" lon="4.72553">
        <ele>409.20001220703</ele>
        <time>2021-03-24T12:38:57Z</time>
      </trkpt>
      <trkpt lat="45.32002" lon="4.72539">
        <ele>411.39999389648</ele>
        <time>2021-03-24T12:39:05Z</time>
      </trkpt>
      <trkpt lat="45.32021" lon="4.72528">
        <ele>413.20001220703</ele>
        <time>2021-03-24T12:39:16Z</time>
      </trkpt>
      <trkpt lat="45.32042" lon="4.72513">
        <ele>415.60000610352</ele>
        <time>2021-03-24T12:39:27Z</time>
      </trkpt>
      <trkpt lat="45.32072" lon="4.72486">
        <ele>417.60000610352</ele>
        <time>2021-03-24T12:39:41Z</time>
      </trkpt>
      <trkpt lat="45.32096" lon="4.72463">
        <ele>418.60000610352</ele>
        <time>2021-03-24T12:39:49Z</time>
      </trkpt>
      <trkpt lat="45.32112" lon="4.72449">
        <ele>419.20001220703</ele>
        <time>2021-03-24T12:39:54Z</time>
      </trkpt>
      <trkpt lat="45.32154" lon="4.72401">
        <ele>418.60000610352</ele>
        <time>2021-03-24T12:40:03Z</time>
      </trkpt>
      <trkpt lat="45.32198" lon="4.72356">
        <ele>415.20001220703</ele>
        <time>2021-03-24T12:40:10Z</time>
      </trkpt>
      <trkpt lat="45.32215" lon="4.72338">
        <ele>413.60000610352</ele>
        <time>2021-03-24T12:40:13Z</time>
      </trkpt>
      <trkpt lat="45.32228" lon="4.72325">
        <ele>410.39999389648</ele>
        <time>2021-03-24T12:40:15Z</time>
      </trkpt>
      <trkpt lat="45.32259" lon="4.72288">
        <ele>407.20001220703</ele>
        <time>2021-03-24T12:40:19Z</time>
      </trkpt>
      <trkpt lat="45.32284" lon="4.72257">
        <ele>402.79998779297</ele>
        <time>2021-03-24T12:40:22Z</time>
      </trkpt>
      <trkpt lat="45.32301" lon="4.72236">
        <ele>399.60000610352</ele>
        <time>2021-03-24T12:40:24Z</time>
      </trkpt>
      <trkpt lat="45.32325" lon="4.72208">
        <ele>396.20001220703</ele>
        <time>2021-03-24T12:40:27Z</time>
      </trkpt>
      <trkpt lat="45.32346" lon="4.72194">
        <ele>393.20001220703</ele>
        <time>2021-03-24T12:40:30Z</time>
      </trkpt>
      <trkpt lat="45.32365" lon="4.72181">
        <ele>391.20001220703</ele>
        <time>2021-03-24T12:40:34Z</time>
      </trkpt>
      <trkpt lat="45.32377" lon="4.72159">
        <ele>388</ele>
        <time>2021-03-24T12:40:38Z</time>
      </trkpt>
      <trkpt lat="45.32378" lon="4.72152">
        <ele>386.60000610352</ele>
        <time>2021-03-24T12:40:39Z</time>
      </trkpt>
      <trkpt lat="45.32386" lon="4.72133">
        <ele>383.39999389648</ele>
        <time>2021-03-24T12:40:42Z</time>
      </trkpt>
      <trkpt lat="45.32391" lon="4.72127">
        <ele>383</ele>
        <time>2021-03-24T12:40:43Z</time>
      </trkpt>
      <trkpt lat="45.32413" lon="4.721">
        <ele>379</ele>
        <time>2021-03-24T12:40:47Z</time>
      </trkpt>
      <trkpt lat="45.32438" lon="4.72065">
        <ele>378</ele>
        <time>2021-03-24T12:40:51Z</time>
      </trkpt>
      <trkpt lat="45.32458" lon="4.7205">
        <ele>374.79998779297</ele>
        <time>2021-03-24T12:40:55Z</time>
      </trkpt>
      <trkpt lat="45.32462" lon="4.72051">
        <ele>373.39999389648</ele>
        <time>2021-03-24T12:40:56Z</time>
      </trkpt>
      <trkpt lat="45.32475" lon="4.72051">
        <ele>372</ele>
        <time>2021-03-24T12:40:59Z</time>
      </trkpt>
      <trkpt lat="45.32501" lon="4.72028">
        <ele>372.39999389648</ele>
        <time>2021-03-24T12:41:07Z</time>
      </trkpt>
      <trkpt lat="45.32523" lon="4.71999">
        <ele>374.60000610352</ele>
        <time>2021-03-24T12:41:16Z</time>
      </trkpt>
      <trkpt lat="45.32589" lon="4.71935">
        <ele>375.60000610352</ele>
        <time>2021-03-24T12:41:36Z</time>
      </trkpt>
      <trkpt lat="45.32638" lon="4.71872">
        <ele>376.60000610352</ele>
        <time>2021-03-24T12:41:52Z</time>
      </trkpt>
      <trkpt lat="45.32679" lon="4.7183">
        <ele>378.79998779297</ele>
        <time>2021-03-24T12:42:07Z</time>
      </trkpt>
      <trkpt lat="45.32703" lon="4.71808">
        <ele>380</ele>
        <time>2021-03-24T12:42:17Z</time>
      </trkpt>
      <trkpt lat="45.32736" lon="4.71774">
        <ele>382.39999389648</ele>
        <time>2021-03-24T12:42:32Z</time>
      </trkpt>
      <trkpt lat="45.3276" lon="4.71743">
        <ele>384</ele>
        <time>2021-03-24T12:42:43Z</time>
      </trkpt>
      <trkpt lat="45.32782" lon="4.71713">
        <ele>385.20001220703</ele>
        <time>2021-03-24T12:42:52Z</time>
      </trkpt>
      <trkpt lat="45.32808" lon="4.71677">
        <ele>386.60000610352</ele>
        <time>2021-03-24T12:43:03Z</time>
      </trkpt>
      <trkpt lat="45.3284" lon="4.71639">
        <ele>387.20001220703</ele>
        <time>2021-03-24T12:43:13Z</time>
      </trkpt>
      <trkpt lat="45.32845" lon="4.71633">
        <ele>387.20001220703</ele>
        <time>2021-03-24T12:43:14Z</time>
      </trkpt>
      <trkpt lat="45.32853" lon="4.7161">
        <ele>386.39999389648</ele>
        <time>2021-03-24T12:43:18Z</time>
      </trkpt>
      <trkpt lat="45.32865" lon="4.71564">
        <ele>383.39999389648</ele>
        <time>2021-03-24T12:43:24Z</time>
      </trkpt>
      <trkpt lat="45.32868" lon="4.71555">
        <ele>381.79998779297</ele>
        <time>2021-03-24T12:43:26Z</time>
      </trkpt>
      <trkpt lat="45.32877" lon="4.71551">
        <ele>378.20001220703</ele>
        <time>2021-03-24T12:43:30Z</time>
      </trkpt>
      <trkpt lat="45.32889" lon="4.71557">
        <ele>375.60000610352</ele>
        <time>2021-03-24T12:43:34Z</time>
      </trkpt>
      <trkpt lat="45.32899" lon="4.71564">
        <ele>375</ele>
        <time>2021-03-24T12:43:37Z</time>
      </trkpt>
      <trkpt lat="45.32916" lon="4.71534">
        <ele>373.60000610352</ele>
        <time>2021-03-24T12:43:43Z</time>
      </trkpt>
      <trkpt lat="45.32932" lon="4.71486">
        <ele>373.60000610352</ele>
        <time>2021-03-24T12:43:51Z</time>
      </trkpt>
      <trkpt lat="45.32964" lon="4.71456">
        <ele>377</ele>
        <time>2021-03-24T12:44:04Z</time>
      </trkpt>
      <trkpt lat="45.32967" lon="4.71453">
        <ele>377.20001220703</ele>
        <time>2021-03-24T12:44:05Z</time>
      </trkpt>
      <trkpt lat="45.32994" lon="4.71431">
        <ele>379.39999389648</ele>
        <time>2021-03-24T12:44:15Z</time>
      </trkpt>
      <trkpt lat="45.33029" lon="4.71402">
        <ele>381.79998779297</ele>
        <time>2021-03-24T12:44:28Z</time>
      </trkpt>
      <trkpt lat="45.33067" lon="4.71371">
        <ele>383.60000610352</ele>
        <time>2021-03-24T12:44:41Z</time>
      </trkpt>
      <trkpt lat="45.3312" lon="4.71344">
        <ele>385.60000610352</ele>
        <time>2021-03-24T12:44:57Z</time>
      </trkpt>
      <trkpt lat="45.33168" lon="4.71317">
        <ele>387.39999389648</ele>
        <time>2021-03-24T12:45:11Z</time>
      </trkpt>
      <trkpt lat="45.33213" lon="4.71256">
        <ele>389</ele>
        <time>2021-03-24T12:45:28Z</time>
      </trkpt>
      <trkpt lat="45.33234" lon="4.71228">
        <ele>390.20001220703</ele>
        <time>2021-03-24T12:45:36Z</time>
      </trkpt>
      <trkpt lat="45.33242" lon="4.71219">
        <ele>390.39999389648</ele>
        <time>2021-03-24T12:45:40Z</time>
      </trkpt>
      <trkpt lat="45.33251" lon="4.71227">
        <ele>391</ele>
        <time>2021-03-24T12:45:44Z</time>
      </trkpt>
      <trkpt lat="45.33274" lon="4.71262">
        <ele>390.79998779297</ele>
        <time>2021-03-24T12:45:51Z</time>
      </trkpt>
      <trkpt lat="45.33307" lon="4.71308">
        <ele>390.20001220703</ele>
        <time>2021-03-24T12:46:01Z</time>
      </trkpt>
      <trkpt lat="45.3338" lon="4.71406">
        <ele>387.39999389648</ele>
        <time>2021-03-24T12:46:19Z</time>
      </trkpt>
      <trkpt lat="45.33396" lon="4.71428">
        <ele>386.20001220703</ele>
        <time>2021-03-24T12:46:23Z</time>
      </trkpt>
      <trkpt lat="45.33419" lon="4.71472">
        <ele>385.20001220703</ele>
        <time>2021-03-24T12:46:29Z</time>
      </trkpt>
      <trkpt lat="45.33474" lon="4.71586">
        <ele>382.20001220703</ele>
        <time>2021-03-24T12:46:44Z</time>
      </trkpt>
      <trkpt lat="45.3355" lon="4.71704">
        <ele>379.39999389648</ele>
        <time>2021-03-24T12:47:01Z</time>
      </trkpt>
      <trkpt lat="45.33569" lon="4.71699">
        <ele>377.20001220703</ele>
        <time>2021-03-24T12:47:07Z</time>
      </trkpt>
      <trkpt lat="45.33567" lon="4.71671">
        <ele>376.20001220703</ele>
        <time>2021-03-24T12:47:11Z</time>
      </trkpt>
      <trkpt lat="45.33565" lon="4.71578">
        <ele>377.20001220703</ele>
        <time>2021-03-24T12:47:25Z</time>
      </trkpt>
      <trkpt lat="45.33565" lon="4.71543">
        <ele>378.20001220703</ele>
        <time>2021-03-24T12:47:31Z</time>
      </trkpt>
      <trkpt lat="45.33567" lon="4.71513">
        <ele>379.39999389648</ele>
        <time>2021-03-24T12:47:37Z</time>
      </trkpt>
      <trkpt lat="45.3357" lon="4.71464">
        <ele>381.60000610352</ele>
        <time>2021-03-24T12:47:48Z</time>
      </trkpt>
      <trkpt lat="45.33572" lon="4.71437">
        <ele>382.60000610352</ele>
        <time>2021-03-24T12:47:54Z</time>
      </trkpt>
      <trkpt lat="45.33592" lon="4.71422">
        <ele>383.20001220703</ele>
        <time>2021-03-24T12:48:01Z</time>
      </trkpt>
      <trkpt lat="45.33593" lon="4.71416">
        <ele>383.39999389648</ele>
        <time>2021-03-24T12:48:02Z</time>
      </trkpt>
      <trkpt lat="45.33596" lon="4.71402">
        <ele>383.60000610352</ele>
        <time>2021-03-24T12:48:05Z</time>
      </trkpt>
      <trkpt lat="45.33614" lon="4.71368">
        <ele>384.39999389648</ele>
        <time>2021-03-24T12:48:14Z</time>
      </trkpt>
      <trkpt lat="45.33629" lon="4.71338">
        <ele>386.20001220703</ele>
        <time>2021-03-24T12:48:23Z</time>
      </trkpt>
      <trkpt lat="45.33637" lon="4.71307">
        <ele>388.39999389648</ele>
        <time>2021-03-24T12:48:31Z</time>
      </trkpt>
      <trkpt lat="45.33644" lon="4.7127">
        <ele>390.60000610352</ele>
        <time>2021-03-24T12:48:40Z</time>
      </trkpt>
      <trkpt lat="45.33649" lon="4.71239">
        <ele>392.20001220703</ele>
        <time>2021-03-24T12:48:48Z</time>
      </trkpt>
      <trkpt lat="45.33654" lon="4.71207">
        <ele>393.79998779297</ele>
        <time>2021-03-24T12:48:56Z</time>
      </trkpt>
      <trkpt lat="45.33658" lon="4.7118">
        <ele>395.20001220703</ele>
        <time>2021-03-24T12:49:03Z</time>
      </trkpt>
      <trkpt lat="45.33661" lon="4.71175">
        <ele>395.60000610352</ele>
        <time>2021-03-24T12:49:05Z</time>
      </trkpt>
      <trkpt lat="45.33671" lon="4.71177">
        <ele>396.60000610352</ele>
        <time>2021-03-24T12:49:10Z</time>
      </trkpt>
      <trkpt lat="45.33707" lon="4.71192">
        <ele>397.79998779297</ele>
        <time>2021-03-24T12:49:19Z</time>
      </trkpt>
      <trkpt lat="45.33752" lon="4.712">
        <ele>397.20001220703</ele>
        <time>2021-03-24T12:49:28Z</time>
      </trkpt>
      <trkpt lat="45.33788" lon="4.71199">
        <ele>397</ele>
        <time>2021-03-24T12:49:35Z</time>
      </trkpt>
      <trkpt lat="45.33811" lon="4.71197">
        <ele>397.20001220703</ele>
        <time>2021-03-24T12:49:41Z</time>
      </trkpt>
      <trkpt lat="45.33833" lon="4.71194">
        <ele>398.79998779297</ele>
        <time>2021-03-24T12:49:49Z</time>
      </trkpt>
      <trkpt lat="45.33865" lon="4.71189">
        <ele>400.79998779297</ele>
        <time>2021-03-24T12:49:59Z</time>
      </trkpt>
      <trkpt lat="45.33889" lon="4.7119">
        <ele>401.20001220703</ele>
        <time>2021-03-24T12:50:08Z</time>
      </trkpt>
      <trkpt lat="45.3391" lon="4.71201">
        <ele>403.39999389648</ele>
        <time>2021-03-24T12:50:16Z</time>
      </trkpt>
      <trkpt lat="45.33952" lon="4.71227">
        <ele>406.39999389648</ele>
        <time>2021-03-24T12:50:30Z</time>
      </trkpt>
      <trkpt lat="45.33993" lon="4.71241">
        <ele>407</ele>
        <time>2021-03-24T12:50:41Z</time>
      </trkpt>
      <trkpt lat="45.34076" lon="4.71248">
        <ele>406.60000610352</ele>
        <time>2021-03-24T12:51:00Z</time>
      </trkpt>
      <trkpt lat="45.34188" lon="4.71266">
        <ele>407.60000610352</ele>
        <time>2021-03-24T12:51:22Z</time>
      </trkpt>
      <trkpt lat="45.34238" lon="4.71269">
        <ele>407.60000610352</ele>
        <time>2021-03-24T12:51:31Z</time>
      </trkpt>
      <trkpt lat="45.343" lon="4.71252">
        <ele>407.39999389648</ele>
        <time>2021-03-24T12:51:42Z</time>
      </trkpt>
      <trkpt lat="45.34381" lon="4.71213">
        <ele>407.20001220703</ele>
        <time>2021-03-24T12:51:57Z</time>
      </trkpt>
      <trkpt lat="45.34497" lon="4.71124">
        <ele>406.39999389648</ele>
        <time>2021-03-24T12:52:18Z</time>
      </trkpt>
      <trkpt lat="45.34553" lon="4.71051">
        <ele>403.20001220703</ele>
        <time>2021-03-24T12:52:27Z</time>
      </trkpt>
      <trkpt lat="45.34576" lon="4.71031">
        <ele>401.79998779297</ele>
        <time>2021-03-24T12:52:30Z</time>
      </trkpt>
      <trkpt lat="45.34606" lon="4.71007">
        <ele>398.60000610352</ele>
        <time>2021-03-24T12:52:36Z</time>
      </trkpt>
      <trkpt lat="45.34608" lon="4.71004">
        <ele>398.39999389648</ele>
        <time>2021-03-24T12:52:37Z</time>
      </trkpt>
      <trkpt lat="45.34618" lon="4.70974">
        <ele>396.79998779297</ele>
        <time>2021-03-24T12:52:44Z</time>
      </trkpt>
      <trkpt lat="45.34635" lon="4.70935">
        <ele>396.39999389648</ele>
        <time>2021-03-24T12:52:50Z</time>
      </trkpt>
      <trkpt lat="45.34643" lon="4.70911">
        <ele>396.20001220703</ele>
        <time>2021-03-24T12:52:53Z</time>
      </trkpt>
      <trkpt lat="45.34651" lon="4.70846">
        <ele>392</ele>
        <time>2021-03-24T12:52:59Z</time>
      </trkpt>
      <trkpt lat="45.34658" lon="4.708">
        <ele>390</ele>
        <time>2021-03-24T12:53:03Z</time>
      </trkpt>
      <trkpt lat="45.34663" lon="4.70781">
        <ele>388.79998779297</ele>
        <time>2021-03-24T12:53:05Z</time>
      </trkpt>
      <trkpt lat="45.3469" lon="4.70752">
        <ele>385.60000610352</ele>
        <time>2021-03-24T12:53:10Z</time>
      </trkpt>
      <trkpt lat="45.34735" lon="4.70716">
        <ele>381.79998779297</ele>
        <time>2021-03-24T12:53:16Z</time>
      </trkpt>
      <trkpt lat="45.34767" lon="4.70684">
        <ele>377.39999389648</ele>
        <time>2021-03-24T12:53:20Z</time>
      </trkpt>
      <trkpt lat="45.34775" lon="4.70677">
        <ele>377</ele>
        <time>2021-03-24T12:53:21Z</time>
      </trkpt>
      <trkpt lat="45.34799" lon="4.70648">
        <ele>374</ele>
        <time>2021-03-24T12:53:25Z</time>
      </trkpt>
      <trkpt lat="45.34833" lon="4.70614">
        <ele>371</ele>
        <time>2021-03-24T12:53:30Z</time>
      </trkpt>
      <trkpt lat="45.34864" lon="4.70586">
        <ele>365.20001220703</ele>
        <time>2021-03-24T12:53:34Z</time>
      </trkpt>
      <trkpt lat="45.34879" lon="4.7057">
        <ele>362</ele>
        <time>2021-03-24T12:53:36Z</time>
      </trkpt>
      <trkpt lat="45.34904" lon="4.70545">
        <ele>358.79998779297</ele>
        <time>2021-03-24T12:53:39Z</time>
      </trkpt>
      <trkpt lat="45.34925" lon="4.70523">
        <ele>357</ele>
        <time>2021-03-24T12:53:42Z</time>
      </trkpt>
      <trkpt lat="45.34935" lon="4.7051">
        <ele>356.60000610352</ele>
        <time>2021-03-24T12:53:44Z</time>
      </trkpt>
      <trkpt lat="45.34949" lon="4.70504">
        <ele>353.60000610352</ele>
        <time>2021-03-24T12:53:47Z</time>
      </trkpt>
      <trkpt lat="45.34962" lon="4.70515">
        <ele>350.60000610352</ele>
        <time>2021-03-24T12:53:50Z</time>
      </trkpt>
      <trkpt lat="45.34965" lon="4.70522">
        <ele>350.39999389648</ele>
        <time>2021-03-24T12:53:51Z</time>
      </trkpt>
      <trkpt lat="45.3497" lon="4.70547">
        <ele>348.79998779297</ele>
        <time>2021-03-24T12:53:57Z</time>
      </trkpt>
      <trkpt lat="45.3497" lon="4.70541">
        <ele>348.60000610352</ele>
        <time>2021-03-24T12:53:58Z</time>
      </trkpt>
      <trkpt lat="45.34971" lon="4.70535">
        <ele>348.20001220703</ele>
        <time>2021-03-24T12:53:59Z</time>
      </trkpt>
      <trkpt lat="45.34962" lon="4.70466">
        <ele>345.39999389648</ele>
        <time>2021-03-24T12:54:06Z</time>
      </trkpt>
      <trkpt lat="45.34959" lon="4.70457">
        <ele>345</ele>
        <time>2021-03-24T12:54:07Z</time>
      </trkpt>
      <trkpt lat="45.34969" lon="4.7045">
        <ele>341</ele>
        <time>2021-03-24T12:54:11Z</time>
      </trkpt>
      <trkpt lat="45.34975" lon="4.70464">
        <ele>340</ele>
        <time>2021-03-24T12:54:13Z</time>
      </trkpt>
      <trkpt lat="45.34978" lon="4.7047">
        <ele>339.60000610352</ele>
        <time>2021-03-24T12:54:14Z</time>
      </trkpt>
      <trkpt lat="45.34991" lon="4.70467">
        <ele>336.39999389648</ele>
        <time>2021-03-24T12:54:19Z</time>
      </trkpt>
      <trkpt lat="45.3499" lon="4.70447">
        <ele>334.79998779297</ele>
        <time>2021-03-24T12:54:21Z</time>
      </trkpt>
      <trkpt lat="45.34986" lon="4.70406">
        <ele>331.60000610352</ele>
        <time>2021-03-24T12:54:25Z</time>
      </trkpt>
      <trkpt lat="45.34984" lon="4.70377">
        <ele>327.39999389648</ele>
        <time>2021-03-24T12:54:29Z</time>
      </trkpt>
      <trkpt lat="45.34985" lon="4.70357">
        <ele>324.20001220703</ele>
        <time>2021-03-24T12:54:34Z</time>
      </trkpt>
      <trkpt lat="45.34985" lon="4.70357">
        <ele>323.60000610352</ele>
        <time>2021-03-24T12:54:58Z</time>
      </trkpt>
      <trkpt lat="45.34991" lon="4.70316">
        <ele>323.60000610352</ele>
        <time>2021-03-24T12:59:21Z</time>
      </trkpt>
      <trkpt lat="45.34987" lon="4.70292">
        <ele>326.60000610352</ele>
        <time>2021-03-24T12:59:31Z</time>
      </trkpt>
      <trkpt lat="45.34988" lon="4.70285">
        <ele>327.79998779297</ele>
        <time>2021-03-24T12:59:36Z</time>
      </trkpt>
      <trkpt lat="45.3499" lon="4.70284">
        <ele>329</ele>
        <time>2021-03-24T12:59:39Z</time>
      </trkpt>
      <trkpt lat="45.34999" lon="4.70293">
        <ele>331.39999389648</ele>
        <time>2021-03-24T12:59:48Z</time>
      </trkpt>
      <trkpt lat="45.35017" lon="4.70308">
        <ele>333.20001220703</ele>
        <time>2021-03-24T12:59:59Z</time>
      </trkpt>
      <trkpt lat="45.35026" lon="4.70312">
        <ele>334.39999389648</ele>
        <time>2021-03-24T13:00:05Z</time>
      </trkpt>
      <trkpt lat="45.35029" lon="4.70301">
        <ele>334.79998779297</ele>
        <time>2021-03-24T13:00:10Z</time>
      </trkpt>
      <trkpt lat="45.35025" lon="4.7027">
        <ele>337.39999389648</ele>
        <time>2021-03-24T13:00:25Z</time>
      </trkpt>
      <trkpt lat="45.35027" lon="4.70243">
        <ele>339.20001220703</ele>
        <time>2021-03-24T13:00:37Z</time>
      </trkpt>
      <trkpt lat="45.35038" lon="4.70211">
        <ele>341.20001220703</ele>
        <time>2021-03-24T13:00:53Z</time>
      </trkpt>
      <trkpt lat="45.35049" lon="4.70184">
        <ele>344.20001220703</ele>
        <time>2021-03-24T13:01:08Z</time>
      </trkpt>
      <trkpt lat="45.35066" lon="4.70158">
        <ele>347.20001220703</ele>
        <time>2021-03-24T13:01:24Z</time>
      </trkpt>
      <trkpt lat="45.35071" lon="4.7015">
        <ele>348.39999389648</ele>
        <time>2021-03-24T13:01:29Z</time>
      </trkpt>
      <trkpt lat="45.35086" lon="4.7013">
        <ele>351</ele>
        <time>2021-03-24T13:01:42Z</time>
      </trkpt>
      <trkpt lat="45.35107" lon="4.70106">
        <ele>353.20001220703</ele>
        <time>2021-03-24T13:01:57Z</time>
      </trkpt>
      <trkpt lat="45.35126" lon="4.70078">
        <ele>355.60000610352</ele>
        <time>2021-03-24T13:02:12Z</time>
      </trkpt>
      <trkpt lat="45.35132" lon="4.70045">
        <ele>358.60000610352</ele>
        <time>2021-03-24T13:02:26Z</time>
      </trkpt>
      <trkpt lat="45.35141" lon="4.70012">
        <ele>361.79998779297</ele>
        <time>2021-03-24T13:02:41Z</time>
      </trkpt>
      <trkpt lat="45.35154" lon="4.69983">
        <ele>364.79998779297</ele>
        <time>2021-03-24T13:02:56Z</time>
      </trkpt>
      <trkpt lat="45.35169" lon="4.69957">
        <ele>367.60000610352</ele>
        <time>2021-03-24T13:03:09Z</time>
      </trkpt>
      <trkpt lat="45.35184" lon="4.69931">
        <ele>369.39999389648</ele>
        <time>2021-03-24T13:03:22Z</time>
      </trkpt>
      <trkpt lat="45.35195" lon="4.69904">
        <ele>372.60000610352</ele>
        <time>2021-03-24T13:03:34Z</time>
      </trkpt>
      <trkpt lat="45.35209" lon="4.69873">
        <ele>375.20001220703</ele>
        <time>2021-03-24T13:03:48Z</time>
      </trkpt>
      <trkpt lat="45.35223" lon="4.69843">
        <ele>377.39999389648</ele>
        <time>2021-03-24T13:04:02Z</time>
      </trkpt>
      <trkpt lat="45.35234" lon="4.69821">
        <ele>380.39999389648</ele>
        <time>2021-03-24T13:04:14Z</time>
      </trkpt>
      <trkpt lat="45.35247" lon="4.69806">
        <ele>383.39999389648</ele>
        <time>2021-03-24T13:04:25Z</time>
      </trkpt>
      <trkpt lat="45.35257" lon="4.6979">
        <ele>386.39999389648</ele>
        <time>2021-03-24T13:04:36Z</time>
      </trkpt>
      <trkpt lat="45.35272" lon="4.69762">
        <ele>389.39999389648</ele>
        <time>2021-03-24T13:04:51Z</time>
      </trkpt>
      <trkpt lat="45.35276" lon="4.69721">
        <ele>390.79998779297</ele>
        <time>2021-03-24T13:05:05Z</time>
      </trkpt>
      <trkpt lat="45.35255" lon="4.69678">
        <ele>392.20001220703</ele>
        <time>2021-03-24T13:05:18Z</time>
      </trkpt>
      <trkpt lat="45.35233" lon="4.69638">
        <ele>394</ele>
        <time>2021-03-24T13:05:34Z</time>
      </trkpt>
      <trkpt lat="45.35211" lon="4.69618">
        <ele>396</ele>
        <time>2021-03-24T13:05:46Z</time>
      </trkpt>
      <trkpt lat="45.35192" lon="4.69623">
        <ele>398.39999389648</ele>
        <time>2021-03-24T13:05:56Z</time>
      </trkpt>
      <trkpt lat="45.35175" lon="4.69615">
        <ele>400.79998779297</ele>
        <time>2021-03-24T13:06:05Z</time>
      </trkpt>
      <trkpt lat="45.35154" lon="4.69605">
        <ele>403.39999389648</ele>
        <time>2021-03-24T13:06:17Z</time>
      </trkpt>
      <trkpt lat="45.3515" lon="4.69601">
        <ele>403.79998779297</ele>
        <time>2021-03-24T13:06:19Z</time>
      </trkpt>
      <trkpt lat="45.35152" lon="4.69591">
        <ele>405</ele>
        <time>2021-03-24T13:06:23Z</time>
      </trkpt>
      <trkpt lat="45.35169" lon="4.69554">
        <ele>407.39999389648</ele>
        <time>2021-03-24T13:06:37Z</time>
      </trkpt>
      <trkpt lat="45.35188" lon="4.69525">
        <ele>409</ele>
        <time>2021-03-24T13:06:49Z</time>
      </trkpt>
      <trkpt lat="45.35207" lon="4.6948">
        <ele>411.60000610352</ele>
        <time>2021-03-24T13:07:02Z</time>
      </trkpt>
      <trkpt lat="45.35223" lon="4.69446">
        <ele>412.60000610352</ele>
        <time>2021-03-24T13:07:10Z</time>
      </trkpt>
      <trkpt lat="45.35271" lon="4.69346">
        <ele>411.79998779297</ele>
        <time>2021-03-24T13:07:27Z</time>
      </trkpt>
      <trkpt lat="45.35288" lon="4.69311">
        <ele>411</ele>
        <time>2021-03-24T13:07:33Z</time>
      </trkpt>
      <trkpt lat="45.35313" lon="4.69242">
        <ele>410.20001220703</ele>
        <time>2021-03-24T13:07:43Z</time>
      </trkpt>
      <trkpt lat="45.35337" lon="4.6916">
        <ele>409.39999389648</ele>
        <time>2021-03-24T13:07:54Z</time>
      </trkpt>
      <trkpt lat="45.35345" lon="4.69098">
        <ele>409.60000610352</ele>
        <time>2021-03-24T13:08:03Z</time>
      </trkpt>
      <trkpt lat="45.35368" lon="4.69047">
        <ele>410.20001220703</ele>
        <time>2021-03-24T13:08:11Z</time>
      </trkpt>
      <trkpt lat="45.35378" lon="4.69029">
        <ele>410.20001220703</ele>
        <time>2021-03-24T13:08:14Z</time>
      </trkpt>
      <trkpt lat="45.35416" lon="4.68979">
        <ele>409.20001220703</ele>
        <time>2021-03-24T13:08:23Z</time>
      </trkpt>
      <trkpt lat="45.35442" lon="4.68944">
        <ele>408.20001220703</ele>
        <time>2021-03-24T13:08:28Z</time>
      </trkpt>
      <trkpt lat="45.35485" lon="4.68898">
        <ele>405.20001220703</ele>
        <time>2021-03-24T13:08:35Z</time>
      </trkpt>
      <trkpt lat="45.35489" lon="4.68895">
        <ele>404.79998779297</ele>
        <time>2021-03-24T13:08:36Z</time>
      </trkpt>
      <trkpt lat="45.35498" lon="4.68871">
        <ele>402.39999389648</ele>
        <time>2021-03-24T13:08:41Z</time>
      </trkpt>
      <trkpt lat="45.35509" lon="4.6881">
        <ele>401.79998779297</ele>
        <time>2021-03-24T13:08:51Z</time>
      </trkpt>
      <trkpt lat="45.35511" lon="4.68802">
        <ele>402</ele>
        <time>2021-03-24T13:08:52Z</time>
      </trkpt>
      <trkpt lat="45.3552" lon="4.68737">
        <ele>402.39999389648</ele>
        <time>2021-03-24T13:09:02Z</time>
      </trkpt>
      <trkpt lat="45.35524" lon="4.68718">
        <ele>402.39999389648</ele>
        <time>2021-03-24T13:09:05Z</time>
      </trkpt>
      <trkpt lat="45.35536" lon="4.68677">
        <ele>403</ele>
        <time>2021-03-24T13:09:12Z</time>
      </trkpt>
      <trkpt lat="45.35557" lon="4.68624">
        <ele>403</ele>
        <time>2021-03-24T13:09:21Z</time>
      </trkpt>
      <trkpt lat="45.35568" lon="4.68541">
        <ele>403.39999389648</ele>
        <time>2021-03-24T13:09:33Z</time>
      </trkpt>
      <trkpt lat="45.35562" lon="4.68483">
        <ele>404.39999389648</ele>
        <time>2021-03-24T13:09:43Z</time>
      </trkpt>
      <trkpt lat="45.35565" lon="4.68432">
        <ele>404.39999389648</ele>
        <time>2021-03-24T13:09:51Z</time>
      </trkpt>
      <trkpt lat="45.35575" lon="4.68383">
        <ele>405</ele>
        <time>2021-03-24T13:09:59Z</time>
      </trkpt>
      <trkpt lat="45.35589" lon="4.68322">
        <ele>406.79998779297</ele>
        <time>2021-03-24T13:10:10Z</time>
      </trkpt>
      <trkpt lat="45.35594" lon="4.68284">
        <ele>408</ele>
        <time>2021-03-24T13:10:18Z</time>
      </trkpt>
      <trkpt lat="45.35598" lon="4.68249">
        <ele>409.20001220703</ele>
        <time>2021-03-24T13:10:27Z</time>
      </trkpt>
      <trkpt lat="45.35611" lon="4.68216">
        <ele>410.39999389648</ele>
        <time>2021-03-24T13:10:35Z</time>
      </trkpt>
      <trkpt lat="45.35625" lon="4.68172">
        <ele>412</ele>
        <time>2021-03-24T13:10:45Z</time>
      </trkpt>
      <trkpt lat="45.35641" lon="4.68133">
        <ele>414.20001220703</ele>
        <time>2021-03-24T13:10:55Z</time>
      </trkpt>
      <trkpt lat="45.35652" lon="4.681">
        <ele>415.39999389648</ele>
        <time>2021-03-24T13:11:03Z</time>
      </trkpt>
      <trkpt lat="45.35662" lon="4.68069">
        <ele>416.20001220703</ele>
        <time>2021-03-24T13:11:11Z</time>
      </trkpt>
      <trkpt lat="45.35671" lon="4.68035">
        <ele>417.60000610352</ele>
        <time>2021-03-24T13:11:20Z</time>
      </trkpt>
      <trkpt lat="45.3568" lon="4.68">
        <ele>419.60000610352</ele>
        <time>2021-03-24T13:11:30Z</time>
      </trkpt>
      <trkpt lat="45.35691" lon="4.67952">
        <ele>422.79998779297</ele>
        <time>2021-03-24T13:11:45Z</time>
      </trkpt>
      <trkpt lat="45.35707" lon="4.67901">
        <ele>425.39999389648</ele>
        <time>2021-03-24T13:12:00Z</time>
      </trkpt>
      <trkpt lat="45.35734" lon="4.67842">
        <ele>427.20001220703</ele>
        <time>2021-03-24T13:12:15Z</time>
      </trkpt>
      <trkpt lat="45.35743" lon="4.67808">
        <ele>427.60000610352</ele>
        <time>2021-03-24T13:12:23Z</time>
      </trkpt>
      <trkpt lat="45.35753" lon="4.67776">
        <ele>428.20001220703</ele>
        <time>2021-03-24T13:12:30Z</time>
      </trkpt>
      <trkpt lat="45.35766" lon="4.67733">
        <ele>429.60000610352</ele>
        <time>2021-03-24T13:12:41Z</time>
      </trkpt>
      <trkpt lat="45.35779" lon="4.67693">
        <ele>431.79998779297</ele>
        <time>2021-03-24T13:12:54Z</time>
      </trkpt>
      <trkpt lat="45.35779" lon="4.67691">
        <ele>432</ele>
        <time>2021-03-24T13:12:55Z</time>
      </trkpt>
      <trkpt lat="45.35787" lon="4.67664">
        <ele>432.79998779297</ele>
        <time>2021-03-24T13:13:04Z</time>
      </trkpt>
      <trkpt lat="45.35801" lon="4.67621">
        <ele>435.20001220703</ele>
        <time>2021-03-24T13:13:18Z</time>
      </trkpt>
      <trkpt lat="45.35812" lon="4.67585">
        <ele>437.60000610352</ele>
        <time>2021-03-24T13:13:30Z</time>
      </trkpt>
      <trkpt lat="45.35827" lon="4.67544">
        <ele>440.20001220703</ele>
        <time>2021-03-24T13:13:44Z</time>
      </trkpt>
      <trkpt lat="45.35833" lon="4.67498">
        <ele>443</ele>
        <time>2021-03-24T13:13:58Z</time>
      </trkpt>
      <trkpt lat="45.35846" lon="4.6745">
        <ele>445</ele>
        <time>2021-03-24T13:14:12Z</time>
      </trkpt>
      <trkpt lat="45.35862" lon="4.67418">
        <ele>446.20001220703</ele>
        <time>2021-03-24T13:14:23Z</time>
      </trkpt>
      <trkpt lat="45.35882" lon="4.67388">
        <ele>449</ele>
        <time>2021-03-24T13:14:35Z</time>
      </trkpt>
      <trkpt lat="45.3592" lon="4.67353">
        <ele>450.39999389648</ele>
        <time>2021-03-24T13:14:50Z</time>
      </trkpt>
      <trkpt lat="45.35943" lon="4.67324">
        <ele>452.79998779297</ele>
        <time>2021-03-24T13:15:02Z</time>
      </trkpt>
      <trkpt lat="45.35962" lon="4.67292">
        <ele>455</ele>
        <time>2021-03-24T13:15:15Z</time>
      </trkpt>
      <trkpt lat="45.35974" lon="4.67265">
        <ele>457.60000610352</ele>
        <time>2021-03-24T13:15:26Z</time>
      </trkpt>
      <trkpt lat="45.35992" lon="4.67232">
        <ele>459.79998779297</ele>
        <time>2021-03-24T13:15:38Z</time>
      </trkpt>
      <trkpt lat="45.36011" lon="4.67201">
        <ele>461.60000610352</ele>
        <time>2021-03-24T13:15:50Z</time>
      </trkpt>
      <trkpt lat="45.36037" lon="4.67157">
        <ele>463.79998779297</ele>
        <time>2021-03-24T13:16:06Z</time>
      </trkpt>
      <trkpt lat="45.36056" lon="4.67117">
        <ele>465.20001220703</ele>
        <time>2021-03-24T13:16:20Z</time>
      </trkpt>
      <trkpt lat="45.36057" lon="4.67114">
        <ele>465.60000610352</ele>
        <time>2021-03-24T13:16:22Z</time>
      </trkpt>
      <trkpt lat="45.36064" lon="4.67093">
        <ele>466.79998779297</ele>
        <time>2021-03-24T13:16:31Z</time>
      </trkpt>
      <trkpt lat="45.36088" lon="4.67055">
        <ele>468.20001220703</ele>
        <time>2021-03-24T13:16:45Z</time>
      </trkpt>
      <trkpt lat="45.36109" lon="4.67021">
        <ele>471</ele>
        <time>2021-03-24T13:16:59Z</time>
      </trkpt>
      <trkpt lat="45.36126" lon="4.66984">
        <ele>473.60000610352</ele>
        <time>2021-03-24T13:17:15Z</time>
      </trkpt>
      <trkpt lat="45.36134" lon="4.6696">
        <ele>475.20001220703</ele>
        <time>2021-03-24T13:17:27Z</time>
      </trkpt>
      <trkpt lat="45.36134" lon="4.66953">
        <ele>476.39999389648</ele>
        <time>2021-03-24T13:17:31Z</time>
      </trkpt>
      <trkpt lat="45.36133" lon="4.66949">
        <ele>476.79998779297</ele>
        <time>2021-03-24T13:17:33Z</time>
      </trkpt>
      <trkpt lat="45.3613" lon="4.66936">
        <ele>477.79998779297</ele>
        <time>2021-03-24T13:17:38Z</time>
      </trkpt>
      <trkpt lat="45.36128" lon="4.66929">
        <ele>478.39999389648</ele>
        <time>2021-03-24T13:17:41Z</time>
      </trkpt>
      <trkpt lat="45.36126" lon="4.66904">
        <ele>480</ele>
        <time>2021-03-24T13:17:52Z</time>
      </trkpt>
      <trkpt lat="45.36127" lon="4.66896">
        <ele>480.79998779297</ele>
        <time>2021-03-24T13:17:55Z</time>
      </trkpt>
      <trkpt lat="45.36138" lon="4.66897">
        <ele>482.39999389648</ele>
        <time>2021-03-24T13:18:03Z</time>
      </trkpt>
      <trkpt lat="45.36152" lon="4.66898">
        <ele>483.79998779297</ele>
        <time>2021-03-24T13:18:13Z</time>
      </trkpt>
      <trkpt lat="45.3617" lon="4.66884">
        <ele>484.60000610352</ele>
        <time>2021-03-24T13:18:24Z</time>
      </trkpt>
      <trkpt lat="45.3619" lon="4.66861">
        <ele>484.79998779297</ele>
        <time>2021-03-24T13:18:34Z</time>
      </trkpt>
      <trkpt lat="45.36229" lon="4.66822">
        <ele>485.60000610352</ele>
        <time>2021-03-24T13:18:54Z</time>
      </trkpt>
      <trkpt lat="45.36244" lon="4.66807">
        <ele>487</ele>
        <time>2021-03-24T13:19:07Z</time>
      </trkpt>
      <trkpt lat="45.3627" lon="4.66809">
        <ele>489.79998779297</ele>
        <time>2021-03-24T13:19:22Z</time>
      </trkpt>
      <trkpt lat="45.36287" lon="4.66811">
        <ele>492</ele>
        <time>2021-03-24T13:19:33Z</time>
      </trkpt>
      <trkpt lat="45.36301" lon="4.66811">
        <ele>495</ele>
        <time>2021-03-24T13:19:42Z</time>
      </trkpt>
      <trkpt lat="45.3631" lon="4.66809">
        <ele>498</ele>
        <time>2021-03-24T13:19:50Z</time>
      </trkpt>
      <trkpt lat="45.36324" lon="4.66801">
        <ele>500.60000610352</ele>
        <time>2021-03-24T13:20:01Z</time>
      </trkpt>
      <trkpt lat="45.36341" lon="4.66781">
        <ele>503</ele>
        <time>2021-03-24T13:20:15Z</time>
      </trkpt>
      <trkpt lat="45.36363" lon="4.66758">
        <ele>503.60000610352</ele>
        <time>2021-03-24T13:20:27Z</time>
      </trkpt>
      <trkpt lat="45.36384" lon="4.66738">
        <ele>504.60000610352</ele>
        <time>2021-03-24T13:20:39Z</time>
      </trkpt>
      <trkpt lat="45.36413" lon="4.66715">
        <ele>506</ele>
        <time>2021-03-24T13:20:57Z</time>
      </trkpt>
      <trkpt lat="45.36418" lon="4.6671">
        <ele>507</ele>
        <time>2021-03-24T13:21:03Z</time>
      </trkpt>
      <trkpt lat="45.36425" lon="4.66706">
        <ele>507.39999389648</ele>
        <time>2021-03-24T13:22:51Z</time>
      </trkpt>
      <trkpt lat="45.36443" lon="4.6669">
        <ele>510.20001220703</ele>
        <time>2021-03-24T13:23:06Z</time>
      </trkpt>
      <trkpt lat="45.36451" lon="4.66685">
        <ele>512.59997558594</ele>
        <time>2021-03-24T13:23:12Z</time>
      </trkpt>
      <trkpt lat="45.3647" lon="4.66684">
        <ele>515.40002441406</ele>
        <time>2021-03-24T13:23:23Z</time>
      </trkpt>
      <trkpt lat="45.36483" lon="4.66685">
        <ele>517.59997558594</ele>
        <time>2021-03-24T13:23:33Z</time>
      </trkpt>
      <trkpt lat="45.365" lon="4.66671">
        <ele>520.40002441406</ele>
        <time>2021-03-24T13:23:46Z</time>
      </trkpt>
      <trkpt lat="45.36512" lon="4.66646">
        <ele>522.59997558594</ele>
        <time>2021-03-24T13:24:01Z</time>
      </trkpt>
      <trkpt lat="45.3652" lon="4.66625">
        <ele>524.40002441406</ele>
        <time>2021-03-24T13:24:14Z</time>
      </trkpt>
      <trkpt lat="45.36533" lon="4.66613">
        <ele>526</ele>
        <time>2021-03-24T13:24:25Z</time>
      </trkpt>
      <trkpt lat="45.36553" lon="4.66609">
        <ele>528.79998779297</ele>
        <time>2021-03-24T13:24:39Z</time>
      </trkpt>
      <trkpt lat="45.36554" lon="4.66609">
        <ele>529</ele>
        <time>2021-03-24T13:24:40Z</time>
      </trkpt>
      <trkpt lat="45.3656" lon="4.66608">
        <ele>529.40002441406</ele>
        <time>2021-03-24T13:24:44Z</time>
      </trkpt>
      <trkpt lat="45.36577" lon="4.66607">
        <ele>532.59997558594</ele>
        <time>2021-03-24T13:24:57Z</time>
      </trkpt>
      <trkpt lat="45.36597" lon="4.66596">
        <ele>535</ele>
        <time>2021-03-24T13:25:12Z</time>
      </trkpt>
      <trkpt lat="45.36609" lon="4.66572">
        <ele>538</ele>
        <time>2021-03-24T13:25:25Z</time>
      </trkpt>
      <trkpt lat="45.36623" lon="4.66544">
        <ele>541</ele>
        <time>2021-03-24T13:25:39Z</time>
      </trkpt>
      <trkpt lat="45.36638" lon="4.66515">
        <ele>544</ele>
        <time>2021-03-24T13:25:56Z</time>
      </trkpt>
      <trkpt lat="45.3666" lon="4.66487">
        <ele>546.79998779297</ele>
        <time>2021-03-24T13:26:14Z</time>
      </trkpt>
      <trkpt lat="45.36686" lon="4.6646">
        <ele>548.79998779297</ele>
        <time>2021-03-24T13:26:31Z</time>
      </trkpt>
      <trkpt lat="45.36706" lon="4.66431">
        <ele>550.59997558594</ele>
        <time>2021-03-24T13:26:47Z</time>
      </trkpt>
      <trkpt lat="45.36717" lon="4.664">
        <ele>552.79998779297</ele>
        <time>2021-03-24T13:27:02Z</time>
      </trkpt>
      <trkpt lat="45.36735" lon="4.66381">
        <ele>554.79998779297</ele>
        <time>2021-03-24T13:27:16Z</time>
      </trkpt>
      <trkpt lat="45.36747" lon="4.66371">
        <ele>558</ele>
        <time>2021-03-24T13:27:25Z</time>
      </trkpt>
      <trkpt lat="45.36759" lon="4.66355">
        <ele>561</ele>
        <time>2021-03-24T13:27:36Z</time>
      </trkpt>
      <trkpt lat="45.36768" lon="4.66348">
        <ele>564</ele>
        <time>2021-03-24T13:27:44Z</time>
      </trkpt>
      <trkpt lat="45.36774" lon="4.66347">
        <ele>564.79998779297</ele>
        <time>2021-03-24T13:27:49Z</time>
      </trkpt>
      <trkpt lat="45.36784" lon="4.66361">
        <ele>567.79998779297</ele>
        <time>2021-03-24T13:27:59Z</time>
      </trkpt>
      <trkpt lat="45.36786" lon="4.66362">
        <ele>568.20001220703</ele>
        <time>2021-03-24T13:28:01Z</time>
      </trkpt>
      <trkpt lat="45.36789" lon="4.66363">
        <ele>568.40002441406</ele>
        <time>2021-03-24T13:28:03Z</time>
      </trkpt>
      <trkpt lat="45.36789" lon="4.66347">
        <ele>569</ele>
        <time>2021-03-24T13:28:12Z</time>
      </trkpt>
      <trkpt lat="45.36805" lon="4.66336">
        <ele>570.79998779297</ele>
        <time>2021-03-24T13:28:26Z</time>
      </trkpt>
      <trkpt lat="45.36821" lon="4.66317">
        <ele>572</ele>
        <time>2021-03-24T13:28:38Z</time>
      </trkpt>
      <trkpt lat="45.36843" lon="4.6629">
        <ele>573</ele>
        <time>2021-03-24T13:28:51Z</time>
      </trkpt>
      <trkpt lat="45.36861" lon="4.66263">
        <ele>574.20001220703</ele>
        <time>2021-03-24T13:29:03Z</time>
      </trkpt>
      <trkpt lat="45.36885" lon="4.6622">
        <ele>575.40002441406</ele>
        <time>2021-03-24T13:29:20Z</time>
      </trkpt>
      <trkpt lat="45.36916" lon="4.66192">
        <ele>577.59997558594</ele>
        <time>2021-03-24T13:29:38Z</time>
      </trkpt>
      <trkpt lat="45.36921" lon="4.66193">
        <ele>578.20001220703</ele>
        <time>2021-03-24T13:29:41Z</time>
      </trkpt>
      <trkpt lat="45.36931" lon="4.66214">
        <ele>580.59997558594</ele>
        <time>2021-03-24T13:29:51Z</time>
      </trkpt>
      <trkpt lat="45.36934" lon="4.66236">
        <ele>582</ele>
        <time>2021-03-24T13:30:00Z</time>
      </trkpt>
      <trkpt lat="45.36937" lon="4.66263">
        <ele>583.20001220703</ele>
        <time>2021-03-24T13:30:10Z</time>
      </trkpt>
      <trkpt lat="45.36945" lon="4.66281">
        <ele>584</ele>
        <time>2021-03-24T13:30:18Z</time>
      </trkpt>
      <trkpt lat="45.36955" lon="4.66292">
        <ele>584.79998779297</ele>
        <time>2021-03-24T13:30:25Z</time>
      </trkpt>
      <trkpt lat="45.36972" lon="4.66304">
        <ele>587.79998779297</ele>
        <time>2021-03-24T13:30:38Z</time>
      </trkpt>
      <trkpt lat="45.36991" lon="4.66296">
        <ele>590.40002441406</ele>
        <time>2021-03-24T13:30:52Z</time>
      </trkpt>
      <trkpt lat="45.36992" lon="4.66291">
        <ele>591.59997558594</ele>
        <time>2021-03-24T13:30:56Z</time>
      </trkpt>
      <trkpt lat="45.36994" lon="4.66272">
        <ele>594</ele>
        <time>2021-03-24T13:31:07Z</time>
      </trkpt>
      <trkpt lat="45.36996" lon="4.66267">
        <ele>594.59997558594</ele>
        <time>2021-03-24T13:31:10Z</time>
      </trkpt>
      <trkpt lat="45.36998" lon="4.66261">
        <ele>595.59997558594</ele>
        <time>2021-03-24T13:31:14Z</time>
      </trkpt>
      <trkpt lat="45.37" lon="4.66259">
        <ele>597.20001220703</ele>
        <time>2021-03-24T13:31:34Z</time>
      </trkpt>
      <trkpt lat="45.37" lon="4.66259">
        <ele>597.20001220703</ele>
        <time>2021-03-24T13:31:35Z</time>
      </trkpt>
      <trkpt lat="45.37014" lon="4.66255">
        <ele>599.40002441406</ele>
        <time>2021-03-24T13:31:48Z</time>
      </trkpt>
      <trkpt lat="45.37029" lon="4.66255">
        <ele>602.40002441406</ele>
        <time>2021-03-24T13:32:01Z</time>
      </trkpt>
      <trkpt lat="45.37039" lon="4.66257">
        <ele>604.40002441406</ele>
        <time>2021-03-24T13:32:12Z</time>
      </trkpt>
      <trkpt lat="45.37043" lon="4.66257">
        <ele>605.20001220703</ele>
        <time>2021-03-24T13:32:17Z</time>
      </trkpt>
      <trkpt lat="45.3705" lon="4.66258">
        <ele>606.79998779297</ele>
        <time>2021-03-24T13:32:24Z</time>
      </trkpt>
      <trkpt lat="45.37061" lon="4.6626">
        <ele>608.20001220703</ele>
        <time>2021-03-24T13:32:31Z</time>
      </trkpt>
      <trkpt lat="45.37075" lon="4.66272">
        <ele>609.79998779297</ele>
        <time>2021-03-24T13:32:39Z</time>
      </trkpt>
      <trkpt lat="45.3708" lon="4.66285">
        <ele>610.59997558594</ele>
        <time>2021-03-24T13:32:45Z</time>
      </trkpt>
      <trkpt lat="45.37084" lon="4.66289">
        <ele>611.40002441406</ele>
        <time>2021-03-24T13:32:49Z</time>
      </trkpt>
      <trkpt lat="45.37088" lon="4.66291">
        <ele>611.79998779297</ele>
        <time>2021-03-24T13:32:52Z</time>
      </trkpt>
      <trkpt lat="45.37097" lon="4.66304">
        <ele>613.79998779297</ele>
        <time>2021-03-24T13:33:02Z</time>
      </trkpt>
      <trkpt lat="45.37105" lon="4.66309">
        <ele>615.20001220703</ele>
        <time>2021-03-24T13:33:11Z</time>
      </trkpt>
      <trkpt lat="45.3711" lon="4.66312">
        <ele>616</ele>
        <time>2021-03-24T13:33:15Z</time>
      </trkpt>
      <trkpt lat="45.37113" lon="4.66318">
        <ele>617.20001220703</ele>
        <time>2021-03-24T13:33:21Z</time>
      </trkpt>
      <trkpt lat="45.37116" lon="4.66324">
        <ele>617.79998779297</ele>
        <time>2021-03-24T13:33:25Z</time>
      </trkpt>
      <trkpt lat="45.3713" lon="4.6633">
        <ele>620.59997558594</ele>
        <time>2021-03-24T13:33:36Z</time>
      </trkpt>
      <trkpt lat="45.37141" lon="4.66334">
        <ele>621.79998779297</ele>
        <time>2021-03-24T13:33:42Z</time>
      </trkpt>
      <trkpt lat="45.3715" lon="4.66335">
        <ele>623</ele>
        <time>2021-03-24T13:33:48Z</time>
      </trkpt>
      <trkpt lat="45.37155" lon="4.66335">
        <ele>623.59997558594</ele>
        <time>2021-03-24T13:33:52Z</time>
      </trkpt>
      <trkpt lat="45.37157" lon="4.66336">
        <ele>624.20001220703</ele>
        <time>2021-03-24T13:33:54Z</time>
      </trkpt>
      <trkpt lat="45.3717" lon="4.66333">
        <ele>626</ele>
        <time>2021-03-24T13:34:06Z</time>
      </trkpt>
      <trkpt lat="45.37177" lon="4.66332">
        <ele>627.20001220703</ele>
        <time>2021-03-24T13:34:16Z</time>
      </trkpt>
      <trkpt lat="45.37185" lon="4.66328">
        <ele>627.59997558594</ele>
        <time>2021-03-24T13:34:21Z</time>
      </trkpt>
      <trkpt lat="45.37195" lon="4.66321">
        <ele>628.40002441406</ele>
        <time>2021-03-24T13:34:28Z</time>
      </trkpt>
      <trkpt lat="45.37201" lon="4.66318">
        <ele>629.20001220703</ele>
        <time>2021-03-24T13:34:31Z</time>
      </trkpt>
      <trkpt lat="45.37207" lon="4.6632">
        <ele>630</ele>
        <time>2021-03-24T13:34:35Z</time>
      </trkpt>
      <trkpt lat="45.37208" lon="4.66322">
        <ele>630.79998779297</ele>
        <time>2021-03-24T13:34:39Z</time>
      </trkpt>
      <trkpt lat="45.37219" lon="4.6632">
        <ele>631.40002441406</ele>
        <time>2021-03-24T13:34:43Z</time>
      </trkpt>
      <trkpt lat="45.37225" lon="4.6632">
        <ele>632.20001220703</ele>
        <time>2021-03-24T13:34:46Z</time>
      </trkpt>
      <trkpt lat="45.37239" lon="4.66329">
        <ele>633.59997558594</ele>
        <time>2021-03-24T13:34:52Z</time>
      </trkpt>
      <trkpt lat="45.37245" lon="4.66336">
        <ele>634.40002441406</ele>
        <time>2021-03-24T13:34:58Z</time>
      </trkpt>
      <trkpt lat="45.37261" lon="4.66347">
        <ele>636</ele>
        <time>2021-03-24T13:35:09Z</time>
      </trkpt>
      <trkpt lat="45.37276" lon="4.66357">
        <ele>636.79998779297</ele>
        <time>2021-03-24T13:35:20Z</time>
      </trkpt>
      <trkpt lat="45.37289" lon="4.66368">
        <ele>637.79998779297</ele>
        <time>2021-03-24T13:35:31Z</time>
      </trkpt>
      <trkpt lat="45.37306" lon="4.6638">
        <ele>640.59997558594</ele>
        <time>2021-03-24T13:35:44Z</time>
      </trkpt>
      <trkpt lat="45.37321" lon="4.66389">
        <ele>643.20001220703</ele>
        <time>2021-03-24T13:35:57Z</time>
      </trkpt>
      <trkpt lat="45.37333" lon="4.66396">
        <ele>645.40002441406</ele>
        <time>2021-03-24T13:36:07Z</time>
      </trkpt>
      <trkpt lat="45.37339" lon="4.664">
        <ele>646</ele>
        <time>2021-03-24T13:36:11Z</time>
      </trkpt>
      <trkpt lat="45.37349" lon="4.66404">
        <ele>646.79998779297</ele>
        <time>2021-03-24T13:36:16Z</time>
      </trkpt>
      <trkpt lat="45.3736" lon="4.66406">
        <ele>647.59997558594</ele>
        <time>2021-03-24T13:36:22Z</time>
      </trkpt>
      <trkpt lat="45.37373" lon="4.66405">
        <ele>648.79998779297</ele>
        <time>2021-03-24T13:36:31Z</time>
      </trkpt>
      <trkpt lat="45.37374" lon="4.66404">
        <ele>649</ele>
        <time>2021-03-24T13:36:32Z</time>
      </trkpt>
      <trkpt lat="45.37384" lon="4.66403">
        <ele>650.79998779297</ele>
        <time>2021-03-24T13:36:44Z</time>
      </trkpt>
      <trkpt lat="45.3739" lon="4.66406">
        <ele>651.40002441406</ele>
        <time>2021-03-24T13:36:48Z</time>
      </trkpt>
      <trkpt lat="45.37396" lon="4.66404">
        <ele>651.59997558594</ele>
        <time>2021-03-24T13:36:51Z</time>
      </trkpt>
      <trkpt lat="45.37408" lon="4.66407">
        <ele>652.20001220703</ele>
        <time>2021-03-24T13:36:55Z</time>
      </trkpt>
      <trkpt lat="45.37419" lon="4.66404">
        <ele>652.59997558594</ele>
        <time>2021-03-24T13:36:59Z</time>
      </trkpt>
      <trkpt lat="45.37423" lon="4.66403">
        <ele>652.79998779297</ele>
        <time>2021-03-24T13:37:03Z</time>
      </trkpt>
      <trkpt lat="45.37436" lon="4.66386">
        <ele>654</ele>
        <time>2021-03-24T13:37:10Z</time>
      </trkpt>
      <trkpt lat="45.37436" lon="4.66383">
        <ele>655.59997558594</ele>
        <time>2021-03-24T13:37:16Z</time>
      </trkpt>
      <trkpt lat="45.37432" lon="4.66372">
        <ele>657.20001220703</ele>
        <time>2021-03-24T13:37:23Z</time>
      </trkpt>
      <trkpt lat="45.37421" lon="4.66357">
        <ele>659.79998779297</ele>
        <time>2021-03-24T13:37:35Z</time>
      </trkpt>
      <trkpt lat="45.37416" lon="4.66337">
        <ele>661.59997558594</ele>
        <time>2021-03-24T13:37:44Z</time>
      </trkpt>
      <trkpt lat="45.3741" lon="4.66329">
        <ele>662.20001220703</ele>
        <time>2021-03-24T13:37:47Z</time>
      </trkpt>
      <trkpt lat="45.3741" lon="4.66324">
        <ele>663.40002441406</ele>
        <time>2021-03-24T13:37:51Z</time>
      </trkpt>
      <trkpt lat="45.37411" lon="4.66321">
        <ele>663.79998779297</ele>
        <time>2021-03-24T13:37:54Z</time>
      </trkpt>
      <trkpt lat="45.37406" lon="4.66304">
        <ele>664.79998779297</ele>
        <time>2021-03-24T13:38:01Z</time>
      </trkpt>
      <trkpt lat="45.37405" lon="4.663">
        <ele>665</ele>
        <time>2021-03-24T13:38:03Z</time>
      </trkpt>
      <trkpt lat="45.37405" lon="4.66284">
        <ele>666.20001220703</ele>
        <time>2021-03-24T13:38:11Z</time>
      </trkpt>
      <trkpt lat="45.37402" lon="4.6627">
        <ele>667.20001220703</ele>
        <time>2021-03-24T13:38:19Z</time>
      </trkpt>
      <trkpt lat="45.37404" lon="4.66266">
        <ele>667.59997558594</ele>
        <time>2021-03-24T13:38:22Z</time>
      </trkpt>
      <trkpt lat="45.3741" lon="4.66265">
        <ele>668</ele>
        <time>2021-03-24T13:38:27Z</time>
      </trkpt>
      <trkpt lat="45.37421" lon="4.66269">
        <ele>670.40002441406</ele>
        <time>2021-03-24T13:38:36Z</time>
      </trkpt>
      <trkpt lat="45.37425" lon="4.6627">
        <ele>671</ele>
        <time>2021-03-24T13:38:40Z</time>
      </trkpt>
      <trkpt lat="45.3744" lon="4.66272">
        <ele>674</ele>
        <time>2021-03-24T13:38:51Z</time>
      </trkpt>
      <trkpt lat="45.37448" lon="4.6627">
        <ele>675.40002441406</ele>
        <time>2021-03-24T13:38:59Z</time>
      </trkpt>
      <trkpt lat="45.37452" lon="4.66273">
        <ele>675.79998779297</ele>
        <time>2021-03-24T13:39:02Z</time>
      </trkpt>
      <trkpt lat="45.3746" lon="4.66272">
        <ele>677</ele>
        <time>2021-03-24T13:39:09Z</time>
      </trkpt>
      <trkpt lat="45.37469" lon="4.66278">
        <ele>677.59997558594</ele>
        <time>2021-03-24T13:39:14Z</time>
      </trkpt>
      <trkpt lat="45.37477" lon="4.66278">
        <ele>678.20001220703</ele>
        <time>2021-03-24T13:39:21Z</time>
      </trkpt>
      <trkpt lat="45.37478" lon="4.66277">
        <ele>679</ele>
        <time>2021-03-24T13:39:24Z</time>
      </trkpt>
      <trkpt lat="45.37484" lon="4.66272">
        <ele>680.79998779297</ele>
        <time>2021-03-24T13:39:33Z</time>
      </trkpt>
      <trkpt lat="45.37494" lon="4.66268">
        <ele>682</ele>
        <time>2021-03-24T13:39:39Z</time>
      </trkpt>
      <trkpt lat="45.3751" lon="4.66271">
        <ele>683.20001220703</ele>
        <time>2021-03-24T13:39:45Z</time>
      </trkpt>
      <trkpt lat="45.37512" lon="4.66272">
        <ele>683.59997558594</ele>
        <time>2021-03-24T13:39:47Z</time>
      </trkpt>
      <trkpt lat="45.37517" lon="4.66276">
        <ele>684</ele>
        <time>2021-03-24T13:39:51Z</time>
      </trkpt>
      <trkpt lat="45.37521" lon="4.6628">
        <ele>684.79998779297</ele>
        <time>2021-03-24T13:39:53Z</time>
      </trkpt>
      <trkpt lat="45.37529" lon="4.66278">
        <ele>686.40002441406</ele>
        <time>2021-03-24T13:39:59Z</time>
      </trkpt>
      <trkpt lat="45.37539" lon="4.66298">
        <ele>688.40002441406</ele>
        <time>2021-03-24T13:40:10Z</time>
      </trkpt>
      <trkpt lat="45.3755" lon="4.66314">
        <ele>689.79998779297</ele>
        <time>2021-03-24T13:40:20Z</time>
      </trkpt>
      <trkpt lat="45.37558" lon="4.66314">
        <ele>691.20001220703</ele>
        <time>2021-03-24T13:40:28Z</time>
      </trkpt>
      <trkpt lat="45.37564" lon="4.66312">
        <ele>692</ele>
        <time>2021-03-24T13:40:31Z</time>
      </trkpt>
      <trkpt lat="45.37569" lon="4.66308">
        <ele>693</ele>
        <time>2021-03-24T13:40:35Z</time>
      </trkpt>
      <trkpt lat="45.37576" lon="4.66305">
        <ele>694.79998779297</ele>
        <time>2021-03-24T13:40:42Z</time>
      </trkpt>
      <trkpt lat="45.37581" lon="4.66293">
        <ele>696.40002441406</ele>
        <time>2021-03-24T13:40:48Z</time>
      </trkpt>
      <trkpt lat="45.37583" lon="4.66282">
        <ele>698</ele>
        <time>2021-03-24T13:40:55Z</time>
      </trkpt>
      <trkpt lat="45.37584" lon="4.66281">
        <ele>698.40002441406</ele>
        <time>2021-03-24T13:40:58Z</time>
      </trkpt>
      <trkpt lat="45.37591" lon="4.66281">
        <ele>700</ele>
        <time>2021-03-24T13:41:07Z</time>
      </trkpt>
      <trkpt lat="45.37602" lon="4.66285">
        <ele>702.20001220703</ele>
        <time>2021-03-24T13:41:18Z</time>
      </trkpt>
      <trkpt lat="45.37609" lon="4.66288">
        <ele>703</ele>
        <time>2021-03-24T13:41:22Z</time>
      </trkpt>
      <trkpt lat="45.37613" lon="4.6629">
        <ele>703.59997558594</ele>
        <time>2021-03-24T13:41:26Z</time>
      </trkpt>
      <trkpt lat="45.37616" lon="4.66289">
        <ele>704.20001220703</ele>
        <time>2021-03-24T13:41:29Z</time>
      </trkpt>
      <trkpt lat="45.37618" lon="4.66292">
        <ele>705.20001220703</ele>
        <time>2021-03-24T13:41:33Z</time>
      </trkpt>
      <trkpt lat="45.37625" lon="4.66297">
        <ele>706.20001220703</ele>
        <time>2021-03-24T13:41:41Z</time>
      </trkpt>
      <trkpt lat="45.37631" lon="4.66303">
        <ele>707.40002441406</ele>
        <time>2021-03-24T13:41:47Z</time>
      </trkpt>
      <trkpt lat="45.37633" lon="4.66311">
        <ele>708</ele>
        <time>2021-03-24T13:41:53Z</time>
      </trkpt>
      <trkpt lat="45.37641" lon="4.66328">
        <ele>709.20001220703</ele>
        <time>2021-03-24T13:42:01Z</time>
      </trkpt>
      <trkpt lat="45.37645" lon="4.66334">
        <ele>709.79998779297</ele>
        <time>2021-03-24T13:42:05Z</time>
      </trkpt>
      <trkpt lat="45.37651" lon="4.66338">
        <ele>710.59997558594</ele>
        <time>2021-03-24T13:42:10Z</time>
      </trkpt>
      <trkpt lat="45.37656" lon="4.66353">
        <ele>711.79998779297</ele>
        <time>2021-03-24T13:42:16Z</time>
      </trkpt>
      <trkpt lat="45.3766" lon="4.66358">
        <ele>712.79998779297</ele>
        <time>2021-03-24T13:42:21Z</time>
      </trkpt>
      <trkpt lat="45.37665" lon="4.66364">
        <ele>713.79998779297</ele>
        <time>2021-03-24T13:42:27Z</time>
      </trkpt>
      <trkpt lat="45.37667" lon="4.66364">
        <ele>714.40002441406</ele>
        <time>2021-03-24T13:42:29Z</time>
      </trkpt>
      <trkpt lat="45.37668" lon="4.66366">
        <ele>714.79998779297</ele>
        <time>2021-03-24T13:42:31Z</time>
      </trkpt>
      <trkpt lat="45.37676" lon="4.66373">
        <ele>716.20001220703</ele>
        <time>2021-03-24T13:42:39Z</time>
      </trkpt>
      <trkpt lat="45.37678" lon="4.66376">
        <ele>716.59997558594</ele>
        <time>2021-03-24T13:42:42Z</time>
      </trkpt>
      <trkpt lat="45.37687" lon="4.66391">
        <ele>717.40002441406</ele>
        <time>2021-03-24T13:42:49Z</time>
      </trkpt>
      <trkpt lat="45.37689" lon="4.66394">
        <ele>717.59997558594</ele>
        <time>2021-03-24T13:42:50Z</time>
      </trkpt>
      <trkpt lat="45.37689" lon="4.66397">
        <ele>717.79998779297</ele>
        <time>2021-03-24T13:42:52Z</time>
      </trkpt>
      <trkpt lat="45.37697" lon="4.66409">
        <ele>718.40002441406</ele>
        <time>2021-03-24T13:42:58Z</time>
      </trkpt>
      <trkpt lat="45.37698" lon="4.66411">
        <ele>718.40002441406</ele>
        <time>2021-03-24T13:42:59Z</time>
      </trkpt>
      <trkpt lat="45.37704" lon="4.66425">
        <ele>719.59997558594</ele>
        <time>2021-03-24T13:43:06Z</time>
      </trkpt>
      <trkpt lat="45.37711" lon="4.66434">
        <ele>720</ele>
        <time>2021-03-24T13:43:11Z</time>
      </trkpt>
      <trkpt lat="45.37718" lon="4.66439">
        <ele>720.40002441406</ele>
        <time>2021-03-24T13:43:16Z</time>
      </trkpt>
      <trkpt lat="45.3772" lon="4.66439">
        <ele>720.40002441406</ele>
        <time>2021-03-24T13:43:17Z</time>
      </trkpt>
      <trkpt lat="45.37729" lon="4.66446">
        <ele>721</ele>
        <time>2021-03-24T13:43:25Z</time>
      </trkpt>
      <trkpt lat="45.37738" lon="4.66447">
        <ele>721.40002441406</ele>
        <time>2021-03-24T13:43:29Z</time>
      </trkpt>
      <trkpt lat="45.37761" lon="4.66454">
        <ele>722.59997558594</ele>
        <time>2021-03-24T13:43:39Z</time>
      </trkpt>
      <trkpt lat="45.37764" lon="4.66455">
        <ele>722.79998779297</ele>
        <time>2021-03-24T13:43:41Z</time>
      </trkpt>
      <trkpt lat="45.37791" lon="4.6646">
        <ele>723.40002441406</ele>
        <time>2021-03-24T13:43:52Z</time>
      </trkpt>
      <trkpt lat="45.37807" lon="4.66455">
        <ele>724.79998779297</ele>
        <time>2021-03-24T13:44:02Z</time>
      </trkpt>
      <trkpt lat="45.3781" lon="4.66449">
        <ele>726.20001220703</ele>
        <time>2021-03-24T13:44:07Z</time>
      </trkpt>
      <trkpt lat="45.37822" lon="4.66441">
        <ele>727.79998779297</ele>
        <time>2021-03-24T13:44:16Z</time>
      </trkpt>
      <trkpt lat="45.37827" lon="4.66435">
        <ele>728.20001220703</ele>
        <time>2021-03-24T13:44:19Z</time>
      </trkpt>
      <trkpt lat="45.3784" lon="4.66415">
        <ele>729.20001220703</ele>
        <time>2021-03-24T13:44:28Z</time>
      </trkpt>
      <trkpt lat="45.37846" lon="4.66402">
        <ele>730.40002441406</ele>
        <time>2021-03-24T13:44:36Z</time>
      </trkpt>
      <trkpt lat="45.37848" lon="4.66391">
        <ele>731</ele>
        <time>2021-03-24T13:44:40Z</time>
      </trkpt>
      <trkpt lat="45.37852" lon="4.66378">
        <ele>732.40002441406</ele>
        <time>2021-03-24T13:44:47Z</time>
      </trkpt>
      <trkpt lat="45.37855" lon="4.66367">
        <ele>733.40002441406</ele>
        <time>2021-03-24T13:44:53Z</time>
      </trkpt>
      <trkpt lat="45.37857" lon="4.66363">
        <ele>733.59997558594</ele>
        <time>2021-03-24T13:44:55Z</time>
      </trkpt>
      <trkpt lat="45.37861" lon="4.66357">
        <ele>734</ele>
        <time>2021-03-24T13:44:59Z</time>
      </trkpt>
      <trkpt lat="45.37862" lon="4.66342">
        <ele>735.79998779297</ele>
        <time>2021-03-24T13:45:09Z</time>
      </trkpt>
      <trkpt lat="45.37861" lon="4.6634">
        <ele>736.20001220703</ele>
        <time>2021-03-24T13:45:11Z</time>
      </trkpt>
      <trkpt lat="45.37845" lon="4.66331">
        <ele>739.40002441406</ele>
        <time>2021-03-24T13:45:25Z</time>
      </trkpt>
      <trkpt lat="45.37843" lon="4.66331">
        <ele>739.59997558594</ele>
        <time>2021-03-24T13:45:27Z</time>
      </trkpt>
      <trkpt lat="45.37836" lon="4.66332">
        <ele>740.59997558594</ele>
        <time>2021-03-24T13:45:32Z</time>
      </trkpt>
      <trkpt lat="45.37823" lon="4.66331">
        <ele>742.20001220703</ele>
        <time>2021-03-24T13:45:41Z</time>
      </trkpt>
      <trkpt lat="45.37818" lon="4.6633">
        <ele>743.20001220703</ele>
        <time>2021-03-24T13:45:50Z</time>
      </trkpt>
      <trkpt lat="45.37815" lon="4.66328">
        <ele>744</ele>
        <time>2021-03-24T13:45:53Z</time>
      </trkpt>
      <trkpt lat="45.3781" lon="4.66319">
        <ele>745.20001220703</ele>
        <time>2021-03-24T13:46:02Z</time>
      </trkpt>
      <trkpt lat="45.37806" lon="4.66309">
        <ele>746.79998779297</ele>
        <time>2021-03-24T13:46:11Z</time>
      </trkpt>
      <trkpt lat="45.37806" lon="4.66309">
        <ele>747.20001220703</ele>
        <time>2021-03-24T13:46:13Z</time>
      </trkpt>
      <trkpt lat="45.37806" lon="4.66302">
        <ele>747.59997558594</ele>
        <time>2021-03-24T13:46:15Z</time>
      </trkpt>
      <trkpt lat="45.37799" lon="4.66287">
        <ele>748.20001220703</ele>
        <time>2021-03-24T13:46:20Z</time>
      </trkpt>
      <trkpt lat="45.37793" lon="4.66275">
        <ele>748.79998779297</ele>
        <time>2021-03-24T13:46:24Z</time>
      </trkpt>
      <trkpt lat="45.37793" lon="4.66259">
        <ele>750.20001220703</ele>
        <time>2021-03-24T13:46:32Z</time>
      </trkpt>
      <trkpt lat="45.37793" lon="4.66245">
        <ele>751</ele>
        <time>2021-03-24T13:46:36Z</time>
      </trkpt>
      <trkpt lat="45.37796" lon="4.66243">
        <ele>751.79998779297</ele>
        <time>2021-03-24T13:46:39Z</time>
      </trkpt>
      <trkpt lat="45.37795" lon="4.66221">
        <ele>753.20001220703</ele>
        <time>2021-03-24T13:46:48Z</time>
      </trkpt>
      <trkpt lat="45.37795" lon="4.66211">
        <ele>754</ele>
        <time>2021-03-24T13:46:54Z</time>
      </trkpt>
      <trkpt lat="45.37798" lon="4.66203">
        <ele>754.79998779297</ele>
        <time>2021-03-24T13:46:58Z</time>
      </trkpt>
      <trkpt lat="45.37797" lon="4.66184">
        <ele>757.20001220703</ele>
        <time>2021-03-24T13:47:12Z</time>
      </trkpt>
      <trkpt lat="45.37794" lon="4.66177">
        <ele>757.59997558594</ele>
        <time>2021-03-24T13:47:17Z</time>
      </trkpt>
      <trkpt lat="45.37792" lon="4.66168">
        <ele>758.20001220703</ele>
        <time>2021-03-24T13:47:21Z</time>
      </trkpt>
      <trkpt lat="45.37793" lon="4.66158">
        <ele>759</ele>
        <time>2021-03-24T13:47:27Z</time>
      </trkpt>
      <trkpt lat="45.37785" lon="4.66148">
        <ele>759.40002441406</ele>
        <time>2021-03-24T13:47:32Z</time>
      </trkpt>
      <trkpt lat="45.37783" lon="4.66145">
        <ele>759.59997558594</ele>
        <time>2021-03-24T13:47:35Z</time>
      </trkpt>
      <trkpt lat="45.37778" lon="4.66136">
        <ele>760</ele>
        <time>2021-03-24T13:47:39Z</time>
      </trkpt>
      <trkpt lat="45.37773" lon="4.66123">
        <ele>760.40002441406</ele>
        <time>2021-03-24T13:47:44Z</time>
      </trkpt>
      <trkpt lat="45.37773" lon="4.66107">
        <ele>761.59997558594</ele>
        <time>2021-03-24T13:47:50Z</time>
      </trkpt>
      <trkpt lat="45.37768" lon="4.66095">
        <ele>762.59997558594</ele>
        <time>2021-03-24T13:47:55Z</time>
      </trkpt>
      <trkpt lat="45.37763" lon="4.66081">
        <ele>765.20001220703</ele>
        <time>2021-03-24T13:48:03Z</time>
      </trkpt>
      <trkpt lat="45.37764" lon="4.66079">
        <ele>765.59997558594</ele>
        <time>2021-03-24T13:48:05Z</time>
      </trkpt>
      <trkpt lat="45.37762" lon="4.66068">
        <ele>766.79998779297</ele>
        <time>2021-03-24T13:48:10Z</time>
      </trkpt>
      <trkpt lat="45.37759" lon="4.66063">
        <ele>767.40002441406</ele>
        <time>2021-03-24T13:48:12Z</time>
      </trkpt>
      <trkpt lat="45.37759" lon="4.6606">
        <ele>767.79998779297</ele>
        <time>2021-03-24T13:48:14Z</time>
      </trkpt>
      <trkpt lat="45.37758" lon="4.66052">
        <ele>768.59997558594</ele>
        <time>2021-03-24T13:48:18Z</time>
      </trkpt>
      <trkpt lat="45.37759" lon="4.66051">
        <ele>769.40002441406</ele>
        <time>2021-03-24T13:48:20Z</time>
      </trkpt>
      <trkpt lat="45.37756" lon="4.66039">
        <ele>770.20001220703</ele>
        <time>2021-03-24T13:48:27Z</time>
      </trkpt>
      <trkpt lat="45.37753" lon="4.66037">
        <ele>770.59997558594</ele>
        <time>2021-03-24T13:48:29Z</time>
      </trkpt>
      <trkpt lat="45.37752" lon="4.66035">
        <ele>770.79998779297</ele>
        <time>2021-03-24T13:48:30Z</time>
      </trkpt>
      <trkpt lat="45.37751" lon="4.66026">
        <ele>771.59997558594</ele>
        <time>2021-03-24T13:48:35Z</time>
      </trkpt>
      <trkpt lat="45.3775" lon="4.66023">
        <ele>772.20001220703</ele>
        <time>2021-03-24T13:48:40Z</time>
      </trkpt>
      <trkpt lat="45.37759" lon="4.66009">
        <ele>773.40002441406</ele>
        <time>2021-03-24T13:48:50Z</time>
      </trkpt>
      <trkpt lat="45.37762" lon="4.66009">
        <ele>774</ele>
        <time>2021-03-24T13:48:52Z</time>
      </trkpt>
      <trkpt lat="45.3777" lon="4.66005">
        <ele>775.20001220703</ele>
        <time>2021-03-24T13:49:00Z</time>
      </trkpt>
      <trkpt lat="45.37778" lon="4.65994">
        <ele>776.59997558594</ele>
        <time>2021-03-24T13:49:08Z</time>
      </trkpt>
      <trkpt lat="45.37784" lon="4.65989">
        <ele>777.20001220703</ele>
        <time>2021-03-24T13:49:12Z</time>
      </trkpt>
      <trkpt lat="45.37786" lon="4.65976">
        <ele>778.79998779297</ele>
        <time>2021-03-24T13:49:20Z</time>
      </trkpt>
      <trkpt lat="45.37789" lon="4.65969">
        <ele>779.79998779297</ele>
        <time>2021-03-24T13:49:25Z</time>
      </trkpt>
      <trkpt lat="45.37791" lon="4.65965">
        <ele>780.59997558594</ele>
        <time>2021-03-24T13:49:28Z</time>
      </trkpt>
      <trkpt lat="45.37789" lon="4.65949">
        <ele>783.59997558594</ele>
        <time>2021-03-24T13:49:41Z</time>
      </trkpt>
      <trkpt lat="45.37788" lon="4.65948">
        <ele>783.79998779297</ele>
        <time>2021-03-24T13:49:42Z</time>
      </trkpt>
      <trkpt lat="45.37784" lon="4.65942">
        <ele>785.20001220703</ele>
        <time>2021-03-24T13:49:48Z</time>
      </trkpt>
      <trkpt lat="45.37784" lon="4.6594">
        <ele>785.79998779297</ele>
        <time>2021-03-24T13:49:51Z</time>
      </trkpt>
      <trkpt lat="45.37777" lon="4.65927">
        <ele>787.40002441406</ele>
        <time>2021-03-24T13:50:00Z</time>
      </trkpt>
      <trkpt lat="45.37773" lon="4.65915">
        <ele>788.59997558594</ele>
        <time>2021-03-24T13:50:04Z</time>
      </trkpt>
      <trkpt lat="45.37773" lon="4.65912">
        <ele>788.59997558594</ele>
        <time>2021-03-24T13:50:05Z</time>
      </trkpt>
      <trkpt lat="45.37775" lon="4.65903">
        <ele>789.59997558594</ele>
        <time>2021-03-24T13:50:09Z</time>
      </trkpt>
      <trkpt lat="45.37777" lon="4.65903">
        <ele>790.40002441406</ele>
        <time>2021-03-24T13:50:11Z</time>
      </trkpt>
      <trkpt lat="45.37776" lon="4.65897">
        <ele>791.40002441406</ele>
        <time>2021-03-24T13:50:15Z</time>
      </trkpt>
      <trkpt lat="45.37773" lon="4.65884">
        <ele>793.20001220703</ele>
        <time>2021-03-24T13:50:28Z</time>
      </trkpt>
      <trkpt lat="45.37773" lon="4.65878">
        <ele>793.59997558594</ele>
        <time>2021-03-24T13:50:31Z</time>
      </trkpt>
      <trkpt lat="45.37776" lon="4.65864">
        <ele>794.59997558594</ele>
        <time>2021-03-24T13:50:39Z</time>
      </trkpt>
      <trkpt lat="45.37776" lon="4.65861">
        <ele>795</ele>
        <time>2021-03-24T13:50:42Z</time>
      </trkpt>
      <trkpt lat="45.3777" lon="4.6585">
        <ele>796</ele>
        <time>2021-03-24T13:50:49Z</time>
      </trkpt>
      <trkpt lat="45.37769" lon="4.65843">
        <ele>797.20001220703</ele>
        <time>2021-03-24T13:50:56Z</time>
      </trkpt>
      <trkpt lat="45.37767" lon="4.65831">
        <ele>798</ele>
        <time>2021-03-24T13:51:00Z</time>
      </trkpt>
      <trkpt lat="45.37756" lon="4.65818">
        <ele>798.79998779297</ele>
        <time>2021-03-24T13:51:04Z</time>
      </trkpt>
      <trkpt lat="45.37756" lon="4.65816">
        <ele>799.40002441406</ele>
        <time>2021-03-24T13:51:06Z</time>
      </trkpt>
      <trkpt lat="45.37749" lon="4.65808">
        <ele>800.59997558594</ele>
        <time>2021-03-24T13:51:13Z</time>
      </trkpt>
      <trkpt lat="45.37744" lon="4.65794">
        <ele>801.59997558594</ele>
        <time>2021-03-24T13:51:21Z</time>
      </trkpt>
      <trkpt lat="45.3774" lon="4.65779">
        <ele>802.40002441406</ele>
        <time>2021-03-24T13:51:28Z</time>
      </trkpt>
      <trkpt lat="45.37738" lon="4.65772">
        <ele>802.59997558594</ele>
        <time>2021-03-24T13:51:32Z</time>
      </trkpt>
      <trkpt lat="45.37734" lon="4.65753">
        <ele>803.20001220703</ele>
        <time>2021-03-24T13:51:44Z</time>
      </trkpt>
      <trkpt lat="45.3773" lon="4.65726">
        <ele>805.59997558594</ele>
        <time>2021-03-24T13:51:57Z</time>
      </trkpt>
      <trkpt lat="45.37727" lon="4.65717">
        <ele>806.59997558594</ele>
        <time>2021-03-24T13:52:02Z</time>
      </trkpt>
      <trkpt lat="45.37724" lon="4.65711">
        <ele>807</ele>
        <time>2021-03-24T13:52:05Z</time>
      </trkpt>
      <trkpt lat="45.37723" lon="4.65699">
        <ele>807.59997558594</ele>
        <time>2021-03-24T13:52:10Z</time>
      </trkpt>
      <trkpt lat="45.3772" lon="4.65668">
        <ele>810</ele>
        <time>2021-03-24T13:52:25Z</time>
      </trkpt>
      <trkpt lat="45.3772" lon="4.65645">
        <ele>811.79998779297</ele>
        <time>2021-03-24T13:52:35Z</time>
      </trkpt>
      <trkpt lat="45.3772" lon="4.65628">
        <ele>813.40002441406</ele>
        <time>2021-03-24T13:52:43Z</time>
      </trkpt>
      <trkpt lat="45.37724" lon="4.65609">
        <ele>815.59997558594</ele>
        <time>2021-03-24T13:52:55Z</time>
      </trkpt>
      <trkpt lat="45.37729" lon="4.65595">
        <ele>817.20001220703</ele>
        <time>2021-03-24T13:53:05Z</time>
      </trkpt>
      <trkpt lat="45.3773" lon="4.65583">
        <ele>817.79998779297</ele>
        <time>2021-03-24T13:53:11Z</time>
      </trkpt>
      <trkpt lat="45.3773" lon="4.65571">
        <ele>818.20001220703</ele>
        <time>2021-03-24T13:53:18Z</time>
      </trkpt>
      <trkpt lat="45.37729" lon="4.6556">
        <ele>819.20001220703</ele>
        <time>2021-03-24T13:53:24Z</time>
      </trkpt>
      <trkpt lat="45.37726" lon="4.65548">
        <ele>820.20001220703</ele>
        <time>2021-03-24T13:53:31Z</time>
      </trkpt>
      <trkpt lat="45.37722" lon="4.65545">
        <ele>821.59997558594</ele>
        <time>2021-03-24T13:53:36Z</time>
      </trkpt>
      <trkpt lat="45.37718" lon="4.65539">
        <ele>823</ele>
        <time>2021-03-24T13:53:40Z</time>
      </trkpt>
      <trkpt lat="45.37718" lon="4.65536">
        <ele>823.40002441406</ele>
        <time>2021-03-24T13:53:43Z</time>
      </trkpt>
      <trkpt lat="45.37713" lon="4.65528">
        <ele>825</ele>
        <time>2021-03-24T13:53:47Z</time>
      </trkpt>
      <trkpt lat="45.37711" lon="4.65523">
        <ele>825.79998779297</ele>
        <time>2021-03-24T13:53:50Z</time>
      </trkpt>
      <trkpt lat="45.3771" lon="4.65522">
        <ele>826.59997558594</ele>
        <time>2021-03-24T13:53:52Z</time>
      </trkpt>
      <trkpt lat="45.37707" lon="4.65507">
        <ele>828.40002441406</ele>
        <time>2021-03-24T13:53:57Z</time>
      </trkpt>
      <trkpt lat="45.37707" lon="4.65505">
        <ele>829</ele>
        <time>2021-03-24T13:53:59Z</time>
      </trkpt>
      <trkpt lat="45.37706" lon="4.65497">
        <ele>830</ele>
        <time>2021-03-24T13:54:02Z</time>
      </trkpt>
      <trkpt lat="45.37705" lon="4.6549">
        <ele>830.59997558594</ele>
        <time>2021-03-24T13:54:04Z</time>
      </trkpt>
      <trkpt lat="45.37706" lon="4.65477">
        <ele>832.40002441406</ele>
        <time>2021-03-24T13:54:12Z</time>
      </trkpt>
      <trkpt lat="45.37707" lon="4.65474">
        <ele>833</ele>
        <time>2021-03-24T13:54:14Z</time>
      </trkpt>
      <trkpt lat="45.37706" lon="4.65468">
        <ele>833.59997558594</ele>
        <time>2021-03-24T13:54:18Z</time>
      </trkpt>
      <trkpt lat="45.37704" lon="4.65458">
        <ele>835.40002441406</ele>
        <time>2021-03-24T13:54:25Z</time>
      </trkpt>
      <trkpt lat="45.37704" lon="4.65456">
        <ele>835.79998779297</ele>
        <time>2021-03-24T13:54:27Z</time>
      </trkpt>
      <trkpt lat="45.37705" lon="4.65452">
        <ele>837</ele>
        <time>2021-03-24T13:54:33Z</time>
      </trkpt>
      <trkpt lat="45.37702" lon="4.65437">
        <ele>838.40002441406</ele>
        <time>2021-03-24T13:54:39Z</time>
      </trkpt>
      <trkpt lat="45.37701" lon="4.6543">
        <ele>839.20001220703</ele>
        <time>2021-03-24T13:54:44Z</time>
      </trkpt>
      <trkpt lat="45.37701" lon="4.65427">
        <ele>840.20001220703</ele>
        <time>2021-03-24T13:54:49Z</time>
      </trkpt>
      <trkpt lat="45.37701" lon="4.6542">
        <ele>841.59997558594</ele>
        <time>2021-03-24T13:54:56Z</time>
      </trkpt>
      <trkpt lat="45.37702" lon="4.65406">
        <ele>841.79998779297</ele>
        <time>2021-03-24T13:55:00Z</time>
      </trkpt>
      <trkpt lat="45.37702" lon="4.65395">
        <ele>841.79998779297</ele>
        <time>2021-03-24T13:55:05Z</time>
      </trkpt>
      <trkpt lat="45.37699" lon="4.6539">
        <ele>842</ele>
        <time>2021-03-24T13:55:08Z</time>
      </trkpt>
      <trkpt lat="45.37701" lon="4.65381">
        <ele>842.20001220703</ele>
        <time>2021-03-24T13:55:14Z</time>
      </trkpt>
      <trkpt lat="45.377" lon="4.65375">
        <ele>842.59997558594</ele>
        <time>2021-03-24T13:55:17Z</time>
      </trkpt>
      <trkpt lat="45.37701" lon="4.65346">
        <ele>844</ele>
        <time>2021-03-24T13:55:27Z</time>
      </trkpt>
      <trkpt lat="45.37702" lon="4.65332">
        <ele>844.20001220703</ele>
        <time>2021-03-24T13:55:33Z</time>
      </trkpt>
      <trkpt lat="45.37704" lon="4.65314">
        <ele>844.59997558594</ele>
        <time>2021-03-24T13:55:38Z</time>
      </trkpt>
      <trkpt lat="45.37704" lon="4.65311">
        <ele>844.79998779297</ele>
        <time>2021-03-24T13:55:39Z</time>
      </trkpt>
      <trkpt lat="45.37705" lon="4.65307">
        <ele>845</ele>
        <time>2021-03-24T13:55:42Z</time>
      </trkpt>
      <trkpt lat="45.37704" lon="4.65293">
        <ele>846</ele>
        <time>2021-03-24T13:55:51Z</time>
      </trkpt>
      <trkpt lat="45.37702" lon="4.65281">
        <ele>846.79998779297</ele>
        <time>2021-03-24T13:55:56Z</time>
      </trkpt>
      <trkpt lat="45.37701" lon="4.65253">
        <ele>848.40002441406</ele>
        <time>2021-03-24T13:56:06Z</time>
      </trkpt>
      <trkpt lat="45.37698" lon="4.65238">
        <ele>849</ele>
        <time>2021-03-24T13:56:13Z</time>
      </trkpt>
      <trkpt lat="45.37693" lon="4.65222">
        <ele>850</ele>
        <time>2021-03-24T13:56:19Z</time>
      </trkpt>
      <trkpt lat="45.3769" lon="4.65218">
        <ele>850.40002441406</ele>
        <time>2021-03-24T13:56:20Z</time>
      </trkpt>
      <trkpt lat="45.37692" lon="4.65207">
        <ele>851.20001220703</ele>
        <time>2021-03-24T13:56:24Z</time>
      </trkpt>
      <trkpt lat="45.37691" lon="4.65199">
        <ele>851.59997558594</ele>
        <time>2021-03-24T13:56:26Z</time>
      </trkpt>
      <trkpt lat="45.37691" lon="4.6517">
        <ele>851.79998779297</ele>
        <time>2021-03-24T13:56:32Z</time>
      </trkpt>
      <trkpt lat="45.37691" lon="4.65162">
        <ele>851.40002441406</ele>
        <time>2021-03-24T13:56:34Z</time>
      </trkpt>
      <trkpt lat="45.37686" lon="4.65146">
        <ele>851.40002441406</ele>
        <time>2021-03-24T13:56:39Z</time>
      </trkpt>
      <trkpt lat="45.37691" lon="4.65134">
        <ele>851.40002441406</ele>
        <time>2021-03-24T13:56:42Z</time>
      </trkpt>
      <trkpt lat="45.37689" lon="4.65119">
        <ele>852</ele>
        <time>2021-03-24T13:56:46Z</time>
      </trkpt>
      <trkpt lat="45.3769" lon="4.65112">
        <ele>852.20001220703</ele>
        <time>2021-03-24T13:56:49Z</time>
      </trkpt>
      <trkpt lat="45.3769" lon="4.65082">
        <ele>852.20001220703</ele>
        <time>2021-03-24T13:56:55Z</time>
      </trkpt>
      <trkpt lat="45.37689" lon="4.65067">
        <ele>852.59997558594</ele>
        <time>2021-03-24T13:57:00Z</time>
      </trkpt>
      <trkpt lat="45.37683" lon="4.65055">
        <ele>853</ele>
        <time>2021-03-24T13:57:05Z</time>
      </trkpt>
      <trkpt lat="45.37681" lon="4.65051">
        <ele>853.40002441406</ele>
        <time>2021-03-24T13:57:07Z</time>
      </trkpt>
      <trkpt lat="45.37672" lon="4.65012">
        <ele>853.79998779297</ele>
        <time>2021-03-24T13:57:16Z</time>
      </trkpt>
      <trkpt lat="45.37669" lon="4.64982">
        <ele>853.40002441406</ele>
        <time>2021-03-24T13:57:22Z</time>
      </trkpt>
      <trkpt lat="45.37669" lon="4.64977">
        <ele>853.40002441406</ele>
        <time>2021-03-24T13:57:23Z</time>
      </trkpt>
      <trkpt lat="45.37664" lon="4.64913">
        <ele>853.20001220703</ele>
        <time>2021-03-24T13:57:33Z</time>
      </trkpt>
      <trkpt lat="45.37661" lon="4.64883">
        <ele>853</ele>
        <time>2021-03-24T13:57:40Z</time>
      </trkpt>
      <trkpt lat="45.37652" lon="4.64837">
        <ele>852.40002441406</ele>
        <time>2021-03-24T13:57:51Z</time>
      </trkpt>
      <trkpt lat="45.37649" lon="4.64814">
        <ele>852.40002441406</ele>
        <time>2021-03-24T13:57:55Z</time>
      </trkpt>
      <trkpt lat="45.37647" lon="4.64778">
        <ele>852.20001220703</ele>
        <time>2021-03-24T13:58:02Z</time>
      </trkpt>
      <trkpt lat="45.37656" lon="4.6474">
        <ele>852.40002441406</ele>
        <time>2021-03-24T13:58:11Z</time>
      </trkpt>
      <trkpt lat="45.37664" lon="4.64696">
        <ele>854.59997558594</ele>
        <time>2021-03-24T13:58:24Z</time>
      </trkpt>
      <trkpt lat="45.3767" lon="4.64657">
        <ele>853.79998779297</ele>
        <time>2021-03-24T13:58:33Z</time>
      </trkpt>
      <trkpt lat="45.37675" lon="4.64607">
        <ele>851.59997558594</ele>
        <time>2021-03-24T13:58:40Z</time>
      </trkpt>
      <trkpt lat="45.37684" lon="4.64545">
        <ele>848.59997558594</ele>
        <time>2021-03-24T13:58:47Z</time>
      </trkpt>
      <trkpt lat="45.37699" lon="4.64477">
        <ele>845.40002441406</ele>
        <time>2021-03-24T13:58:54Z</time>
      </trkpt>
      <trkpt lat="45.37711" lon="4.64428">
        <ele>842.40002441406</ele>
        <time>2021-03-24T13:59:01Z</time>
      </trkpt>
      <trkpt lat="45.37714" lon="4.64412">
        <ele>841.20001220703</ele>
        <time>2021-03-24T13:59:03Z</time>
      </trkpt>
      <trkpt lat="45.37719" lon="4.64366">
        <ele>836.79998779297</ele>
        <time>2021-03-24T13:59:08Z</time>
      </trkpt>
      <trkpt lat="45.37718" lon="4.64345">
        <ele>834.59997558594</ele>
        <time>2021-03-24T13:59:11Z</time>
      </trkpt>
      <trkpt lat="45.37716" lon="4.64327">
        <ele>830.79998779297</ele>
        <time>2021-03-24T13:59:14Z</time>
      </trkpt>
      <trkpt lat="45.37713" lon="4.64307">
        <ele>827.59997558594</ele>
        <time>2021-03-24T13:59:17Z</time>
      </trkpt>
      <trkpt lat="45.37711" lon="4.64288">
        <ele>826.20001220703</ele>
        <time>2021-03-24T13:59:19Z</time>
      </trkpt>
      <trkpt lat="45.37708" lon="4.64258">
        <ele>822.40002441406</ele>
        <time>2021-03-24T13:59:22Z</time>
      </trkpt>
      <trkpt lat="45.37702" lon="4.64216">
        <ele>819.20001220703</ele>
        <time>2021-03-24T13:59:26Z</time>
      </trkpt>
      <trkpt lat="45.37701" lon="4.64206">
        <ele>819</ele>
        <time>2021-03-24T13:59:27Z</time>
      </trkpt>
      <trkpt lat="45.37708" lon="4.64111">
        <ele>817</ele>
        <time>2021-03-24T13:59:36Z</time>
      </trkpt>
      <trkpt lat="45.37711" lon="4.64092">
        <ele>816.20001220703</ele>
        <time>2021-03-24T13:59:38Z</time>
      </trkpt>
      <trkpt lat="45.37715" lon="4.64054">
        <ele>814.40002441406</ele>
        <time>2021-03-24T13:59:43Z</time>
      </trkpt>
      <trkpt lat="45.37704" lon="4.63964">
        <ele>815.20001220703</ele>
        <time>2021-03-24T13:59:55Z</time>
      </trkpt>
      <trkpt lat="45.37702" lon="4.63944">
        <ele>815</ele>
        <time>2021-03-24T13:59:57Z</time>
      </trkpt>
      <trkpt lat="45.37681" lon="4.63867">
        <ele>813.40002441406</ele>
        <time>2021-03-24T14:00:06Z</time>
      </trkpt>
      <trkpt lat="45.37659" lon="4.63817">
        <ele>812.20001220703</ele>
        <time>2021-03-24T14:00:13Z</time>
      </trkpt>
      <trkpt lat="45.37649" lon="4.63781">
        <ele>812</ele>
        <time>2021-03-24T14:00:18Z</time>
      </trkpt>
      <trkpt lat="45.37645" lon="4.63707">
        <ele>812.59997558594</ele>
        <time>2021-03-24T14:00:29Z</time>
      </trkpt>
      <trkpt lat="45.37644" lon="4.63667">
        <ele>815.59997558594</ele>
        <time>2021-03-24T14:00:39Z</time>
      </trkpt>
      <trkpt lat="45.37642" lon="4.63647">
        <ele>816.40002441406</ele>
        <time>2021-03-24T14:00:45Z</time>
      </trkpt>
      <trkpt lat="45.3764" lon="4.63635">
        <ele>817.79998779297</ele>
        <time>2021-03-24T14:00:48Z</time>
      </trkpt>
      <trkpt lat="45.37639" lon="4.63624">
        <ele>818</ele>
        <time>2021-03-24T14:00:51Z</time>
      </trkpt>
      <trkpt lat="45.37633" lon="4.63599">
        <ele>819</ele>
        <time>2021-03-24T14:00:55Z</time>
      </trkpt>
      <trkpt lat="45.37628" lon="4.63574">
        <ele>819</ele>
        <time>2021-03-24T14:00:59Z</time>
      </trkpt>
      <trkpt lat="45.37614" lon="4.63513">
        <ele>817.79998779297</ele>
        <time>2021-03-24T14:01:06Z</time>
      </trkpt>
      <trkpt lat="45.37601" lon="4.63471">
        <ele>817</ele>
        <time>2021-03-24T14:01:10Z</time>
      </trkpt>
      <trkpt lat="45.37575" lon="4.63421">
        <ele>813.79998779297</ele>
        <time>2021-03-24T14:01:15Z</time>
      </trkpt>
      <trkpt lat="45.37565" lon="4.63403">
        <ele>811.79998779297</ele>
        <time>2021-03-24T14:01:17Z</time>
      </trkpt>
      <trkpt lat="45.37556" lon="4.63373">
        <ele>807.20001220703</ele>
        <time>2021-03-24T14:01:20Z</time>
      </trkpt>
      <trkpt lat="45.37549" lon="4.63337">
        <ele>803.20001220703</ele>
        <time>2021-03-24T14:01:23Z</time>
      </trkpt>
      <trkpt lat="45.37544" lon="4.63252">
        <ele>800</ele>
        <time>2021-03-24T14:01:29Z</time>
      </trkpt>
      <trkpt lat="45.37542" lon="4.63206">
        <ele>797.59997558594</ele>
        <time>2021-03-24T14:01:32Z</time>
      </trkpt>
      <trkpt lat="45.37539" lon="4.63193">
        <ele>797.40002441406</ele>
        <time>2021-03-24T14:01:33Z</time>
      </trkpt>
      <trkpt lat="45.37512" lon="4.6315">
        <ele>793</ele>
        <time>2021-03-24T14:01:37Z</time>
      </trkpt>
      <trkpt lat="45.37484" lon="4.63144">
        <ele>789.20001220703</ele>
        <time>2021-03-24T14:01:40Z</time>
      </trkpt>
      <trkpt lat="45.37465" lon="4.63167">
        <ele>785.79998779297</ele>
        <time>2021-03-24T14:01:43Z</time>
      </trkpt>
      <trkpt lat="45.37459" lon="4.63179">
        <ele>784.59997558594</ele>
        <time>2021-03-24T14:01:44Z</time>
      </trkpt>
      <trkpt lat="45.37453" lon="4.6319">
        <ele>784.40002441406</ele>
        <time>2021-03-24T14:01:45Z</time>
      </trkpt>
      <trkpt lat="45.37421" lon="4.63238">
        <ele>781.20001220703</ele>
        <time>2021-03-24T14:01:50Z</time>
      </trkpt>
      <trkpt lat="45.37409" lon="4.63257">
        <ele>780.20001220703</ele>
        <time>2021-03-24T14:01:52Z</time>
      </trkpt>
      <trkpt lat="45.37398" lon="4.63272">
        <ele>779.20001220703</ele>
        <time>2021-03-24T14:01:54Z</time>
      </trkpt>
      <trkpt lat="45.37367" lon="4.63298">
        <ele>778</ele>
        <time>2021-03-24T14:02:00Z</time>
      </trkpt>
      <trkpt lat="45.37357" lon="4.63307">
        <ele>777.79998779297</ele>
        <time>2021-03-24T14:02:03Z</time>
      </trkpt>
      <trkpt lat="45.37349" lon="4.63316">
        <ele>778.20001220703</ele>
        <time>2021-03-24T14:02:07Z</time>
      </trkpt>
      <trkpt lat="45.37346" lon="4.63318">
        <ele>778</ele>
        <time>2021-03-24T14:02:08Z</time>
      </trkpt>
      <trkpt lat="45.37335" lon="4.6333">
        <ele>779.40002441406</ele>
        <time>2021-03-24T14:02:14Z</time>
      </trkpt>
      <trkpt lat="45.37333" lon="4.63333">
        <ele>779.79998779297</ele>
        <time>2021-03-24T14:02:16Z</time>
      </trkpt>
      <trkpt lat="45.37322" lon="4.63339">
        <ele>780.20001220703</ele>
        <time>2021-03-24T14:02:21Z</time>
      </trkpt>
      <trkpt lat="45.37319" lon="4.63364">
        <ele>780.40002441406</ele>
        <time>2021-03-24T14:02:29Z</time>
      </trkpt>
      <trkpt lat="45.37311" lon="4.63378">
        <ele>780.20001220703</ele>
        <time>2021-03-24T14:02:34Z</time>
      </trkpt>
      <trkpt lat="45.37298" lon="4.63393">
        <ele>780</ele>
        <time>2021-03-24T14:02:39Z</time>
      </trkpt>
      <trkpt lat="45.37283" lon="4.63414">
        <ele>780</ele>
        <time>2021-03-24T14:02:46Z</time>
      </trkpt>
      <trkpt lat="45.37281" lon="4.63416">
        <ele>780</ele>
        <time>2021-03-24T14:02:47Z</time>
      </trkpt>
      <trkpt lat="45.37285" lon="4.63427">
        <ele>780.40002441406</ele>
        <time>2021-03-24T14:02:50Z</time>
      </trkpt>
      <trkpt lat="45.3727" lon="4.63432">
        <ele>780.79998779297</ele>
        <time>2021-03-24T14:02:54Z</time>
      </trkpt>
      <trkpt lat="45.3727" lon="4.63432">
        <ele>781</ele>
        <time>2021-03-24T14:02:55Z</time>
      </trkpt>
      <trkpt lat="45.37268" lon="4.63438">
        <ele>782</ele>
        <time>2021-03-24T14:02:59Z</time>
      </trkpt>
      <trkpt lat="45.37262" lon="4.63439">
        <ele>782.40002441406</ele>
        <time>2021-03-24T14:03:02Z</time>
      </trkpt>
      <trkpt lat="45.37246" lon="4.63459">
        <ele>783.59997558594</ele>
        <time>2021-03-24T14:03:13Z</time>
      </trkpt>
      <trkpt lat="45.37233" lon="4.63475">
        <ele>784.40002441406</ele>
        <time>2021-03-24T14:03:20Z</time>
      </trkpt>
      <trkpt lat="45.3722" lon="4.635">
        <ele>785</ele>
        <time>2021-03-24T14:03:29Z</time>
      </trkpt>
      <trkpt lat="45.37208" lon="4.6351">
        <ele>785.40002441406</ele>
        <time>2021-03-24T14:03:33Z</time>
      </trkpt>
      <trkpt lat="45.37174" lon="4.63525">
        <ele>788.40002441406</ele>
        <time>2021-03-24T14:03:47Z</time>
      </trkpt>
      <trkpt lat="45.37124" lon="4.6353">
        <ele>789.59997558594</ele>
        <time>2021-03-24T14:04:01Z</time>
      </trkpt>
      <trkpt lat="45.37089" lon="4.63543">
        <ele>789.79998779297</ele>
        <time>2021-03-24T14:04:10Z</time>
      </trkpt>
      <trkpt lat="45.37053" lon="4.63556">
        <ele>790.59997558594</ele>
        <time>2021-03-24T14:04:20Z</time>
      </trkpt>
      <trkpt lat="45.37038" lon="4.63531">
        <ele>791.79998779297</ele>
        <time>2021-03-24T14:04:27Z</time>
      </trkpt>
      <trkpt lat="45.37035" lon="4.63493">
        <ele>793</ele>
        <time>2021-03-24T14:04:36Z</time>
      </trkpt>
      <trkpt lat="45.37027" lon="4.6346">
        <ele>794.79998779297</ele>
        <time>2021-03-24T14:04:45Z</time>
      </trkpt>
      <trkpt lat="45.37012" lon="4.63414">
        <ele>797</ele>
        <time>2021-03-24T14:04:59Z</time>
      </trkpt>
      <trkpt lat="45.37004" lon="4.63406">
        <ele>797.59997558594</ele>
        <time>2021-03-24T14:05:03Z</time>
      </trkpt>
      <trkpt lat="45.36999" lon="4.63391">
        <ele>798.20001220703</ele>
        <time>2021-03-24T14:05:07Z</time>
      </trkpt>
      <trkpt lat="45.36995" lon="4.63363">
        <ele>799</ele>
        <time>2021-03-24T14:05:15Z</time>
      </trkpt>
      <trkpt lat="45.36991" lon="4.63337">
        <ele>799.20001220703</ele>
        <time>2021-03-24T14:05:20Z</time>
      </trkpt>
      <trkpt lat="45.36989" lon="4.63302">
        <ele>800</ele>
        <time>2021-03-24T14:05:27Z</time>
      </trkpt>
      <trkpt lat="45.36991" lon="4.63257">
        <ele>800.20001220703</ele>
        <time>2021-03-24T14:05:33Z</time>
      </trkpt>
      <trkpt lat="45.36993" lon="4.63238">
        <ele>800.20001220703</ele>
        <time>2021-03-24T14:05:36Z</time>
      </trkpt>
      <trkpt lat="45.36994" lon="4.63195">
        <ele>799</ele>
        <time>2021-03-24T14:05:43Z</time>
      </trkpt>
      <trkpt lat="45.36998" lon="4.63163">
        <ele>799.20001220703</ele>
        <time>2021-03-24T14:05:49Z</time>
      </trkpt>
      <trkpt lat="45.36999" lon="4.63131">
        <ele>799.59997558594</ele>
        <time>2021-03-24T14:05:56Z</time>
      </trkpt>
      <trkpt lat="45.37" lon="4.63121">
        <ele>799.79998779297</ele>
        <time>2021-03-24T14:05:58Z</time>
      </trkpt>
      <trkpt lat="45.36981" lon="4.6309">
        <ele>800.79998779297</ele>
        <time>2021-03-24T14:06:05Z</time>
      </trkpt>
      <trkpt lat="45.36976" lon="4.63089">
        <ele>800.79998779297</ele>
        <time>2021-03-24T14:06:06Z</time>
      </trkpt>
      <trkpt lat="45.36943" lon="4.63102">
        <ele>800.20001220703</ele>
        <time>2021-03-24T14:06:13Z</time>
      </trkpt>
      <trkpt lat="45.36909" lon="4.63125">
        <ele>798.40002441406</ele>
        <time>2021-03-24T14:06:19Z</time>
      </trkpt>
      <trkpt lat="45.36904" lon="4.6313">
        <ele>797.79998779297</ele>
        <time>2021-03-24T14:06:20Z</time>
      </trkpt>
      <trkpt lat="45.36899" lon="4.63134">
        <ele>797.59997558594</ele>
        <time>2021-03-24T14:06:21Z</time>
      </trkpt>
      <trkpt lat="45.3685" lon="4.63148">
        <ele>795.20001220703</ele>
        <time>2021-03-24T14:06:28Z</time>
      </trkpt>
      <trkpt lat="45.3684" lon="4.63152">
        <ele>795</ele>
        <time>2021-03-24T14:06:30Z</time>
      </trkpt>
      <trkpt lat="45.36811" lon="4.63138">
        <ele>794.40002441406</ele>
        <time>2021-03-24T14:06:37Z</time>
      </trkpt>
      <trkpt lat="45.36803" lon="4.63133">
        <ele>794.59997558594</ele>
        <time>2021-03-24T14:06:40Z</time>
      </trkpt>
      <trkpt lat="45.36783" lon="4.63125">
        <ele>797.79998779297</ele>
        <time>2021-03-24T14:06:50Z</time>
      </trkpt>
      <trkpt lat="45.36781" lon="4.63124">
        <ele>798</ele>
        <time>2021-03-24T14:06:51Z</time>
      </trkpt>
      <trkpt lat="45.36769" lon="4.63118">
        <ele>801</ele>
        <time>2021-03-24T14:07:02Z</time>
      </trkpt>
      <trkpt lat="45.36759" lon="4.63111">
        <ele>804</ele>
        <time>2021-03-24T14:07:13Z</time>
      </trkpt>
      <trkpt lat="45.3675" lon="4.63108">
        <ele>805.20001220703</ele>
        <time>2021-03-24T14:07:20Z</time>
      </trkpt>
      <trkpt lat="45.36737" lon="4.63106">
        <ele>806.79998779297</ele>
        <time>2021-03-24T14:07:27Z</time>
      </trkpt>
      <trkpt lat="45.36724" lon="4.63097">
        <ele>807.59997558594</ele>
        <time>2021-03-24T14:07:33Z</time>
      </trkpt>
      <trkpt lat="45.36707" lon="4.63092">
        <ele>808.59997558594</ele>
        <time>2021-03-24T14:07:41Z</time>
      </trkpt>
      <trkpt lat="45.36703" lon="4.63095">
        <ele>809</ele>
        <time>2021-03-24T14:07:44Z</time>
      </trkpt>
      <trkpt lat="45.36684" lon="4.6309">
        <ele>810.20001220703</ele>
        <time>2021-03-24T14:07:55Z</time>
      </trkpt>
      <trkpt lat="45.36671" lon="4.6309">
        <ele>810.79998779297</ele>
        <time>2021-03-24T14:08:00Z</time>
      </trkpt>
      <trkpt lat="45.36666" lon="4.63091">
        <ele>810.79998779297</ele>
        <time>2021-03-24T14:08:02Z</time>
      </trkpt>
      <trkpt lat="45.36635" lon="4.63088">
        <ele>810.20001220703</ele>
        <time>2021-03-24T14:08:07Z</time>
      </trkpt>
      <trkpt lat="45.36593" lon="4.63072">
        <ele>808</ele>
        <time>2021-03-24T14:08:13Z</time>
      </trkpt>
      <trkpt lat="45.36574" lon="4.63057">
        <ele>807</ele>
        <time>2021-03-24T14:08:17Z</time>
      </trkpt>
      <trkpt lat="45.36552" lon="4.63042">
        <ele>806.59997558594</ele>
        <time>2021-03-24T14:08:22Z</time>
      </trkpt>
      <trkpt lat="45.36527" lon="4.63029">
        <ele>806.59997558594</ele>
        <time>2021-03-24T14:08:31Z</time>
      </trkpt>
      <trkpt lat="45.36508" lon="4.63017">
        <ele>807.79998779297</ele>
        <time>2021-03-24T14:08:39Z</time>
      </trkpt>
      <trkpt lat="45.36502" lon="4.63014">
        <ele>808.59997558594</ele>
        <time>2021-03-24T14:08:42Z</time>
      </trkpt>
      <trkpt lat="45.3649" lon="4.63009">
        <ele>809.79998779297</ele>
        <time>2021-03-24T14:08:48Z</time>
      </trkpt>
      <trkpt lat="45.36467" lon="4.62996">
        <ele>812.20001220703</ele>
        <time>2021-03-24T14:09:01Z</time>
      </trkpt>
      <trkpt lat="45.36455" lon="4.62974">
        <ele>814.20001220703</ele>
        <time>2021-03-24T14:09:12Z</time>
      </trkpt>
      <trkpt lat="45.36447" lon="4.62954">
        <ele>817.20001220703</ele>
        <time>2021-03-24T14:09:22Z</time>
      </trkpt>
      <trkpt lat="45.36435" lon="4.62937">
        <ele>820.20001220703</ele>
        <time>2021-03-24T14:09:33Z</time>
      </trkpt>
      <trkpt lat="45.36407" lon="4.62913">
        <ele>821.20001220703</ele>
        <time>2021-03-24T14:09:45Z</time>
      </trkpt>
      <trkpt lat="45.36386" lon="4.62877">
        <ele>821.79998779297</ele>
        <time>2021-03-24T14:09:59Z</time>
      </trkpt>
      <trkpt lat="45.36378" lon="4.62862">
        <ele>822.79998779297</ele>
        <time>2021-03-24T14:10:06Z</time>
      </trkpt>
      <trkpt lat="45.36376" lon="4.62848">
        <ele>823.79998779297</ele>
        <time>2021-03-24T14:10:11Z</time>
      </trkpt>
      <trkpt lat="45.36366" lon="4.62826">
        <ele>825.20001220703</ele>
        <time>2021-03-24T14:10:18Z</time>
      </trkpt>
      <trkpt lat="45.36359" lon="4.62811">
        <ele>826.59997558594</ele>
        <time>2021-03-24T14:10:25Z</time>
      </trkpt>
      <trkpt lat="45.36346" lon="4.62799">
        <ele>828.40002441406</ele>
        <time>2021-03-24T14:10:35Z</time>
      </trkpt>
      <trkpt lat="45.36329" lon="4.62798">
        <ele>828.59997558594</ele>
        <time>2021-03-24T14:10:46Z</time>
      </trkpt>
      <trkpt lat="45.36322" lon="4.62796">
        <ele>828.59997558594</ele>
        <time>2021-03-24T14:10:50Z</time>
      </trkpt>
      <trkpt lat="45.36281" lon="4.62786">
        <ele>828.40002441406</ele>
        <time>2021-03-24T14:11:04Z</time>
      </trkpt>
      <trkpt lat="45.36268" lon="4.6279">
        <ele>828.79998779297</ele>
        <time>2021-03-24T14:11:08Z</time>
      </trkpt>
      <trkpt lat="45.36237" lon="4.62783">
        <ele>828.40002441406</ele>
        <time>2021-03-24T14:11:13Z</time>
      </trkpt>
      <trkpt lat="45.36202" lon="4.62806">
        <ele>825.79998779297</ele>
        <time>2021-03-24T14:11:20Z</time>
      </trkpt>
      <trkpt lat="45.36192" lon="4.62821">
        <ele>825</ele>
        <time>2021-03-24T14:11:22Z</time>
      </trkpt>
      <trkpt lat="45.36188" lon="4.62858">
        <ele>823.59997558594</ele>
        <time>2021-03-24T14:11:25Z</time>
      </trkpt>
      <trkpt lat="45.36189" lon="4.62884">
        <ele>820.20001220703</ele>
        <time>2021-03-24T14:11:27Z</time>
      </trkpt>
      <trkpt lat="45.36189" lon="4.62938">
        <ele>816.59997558594</ele>
        <time>2021-03-24T14:11:31Z</time>
      </trkpt>
      <trkpt lat="45.36187" lon="4.62951">
        <ele>816.40002441406</ele>
        <time>2021-03-24T14:11:32Z</time>
      </trkpt>
      <trkpt lat="45.36171" lon="4.62996">
        <ele>814.59997558594</ele>
        <time>2021-03-24T14:11:38Z</time>
      </trkpt>
      <trkpt lat="45.3617" lon="4.63003">
        <ele>814.59997558594</ele>
        <time>2021-03-24T14:11:39Z</time>
      </trkpt>
      <trkpt lat="45.36158" lon="4.63058">
        <ele>812.79998779297</ele>
        <time>2021-03-24T14:11:45Z</time>
      </trkpt>
      <trkpt lat="45.3616" lon="4.63102">
        <ele>812.20001220703</ele>
        <time>2021-03-24T14:11:51Z</time>
      </trkpt>
      <trkpt lat="45.36153" lon="4.63127">
        <ele>812.20001220703</ele>
        <time>2021-03-24T14:11:57Z</time>
      </trkpt>
      <trkpt lat="45.36152" lon="4.63146">
        <ele>812.20001220703</ele>
        <time>2021-03-24T14:12:00Z</time>
      </trkpt>
      <trkpt lat="45.36145" lon="4.63194">
        <ele>812</ele>
        <time>2021-03-24T14:12:05Z</time>
      </trkpt>
      <trkpt lat="45.36143" lon="4.63222">
        <ele>810.59997558594</ele>
        <time>2021-03-24T14:12:08Z</time>
      </trkpt>
      <trkpt lat="45.36138" lon="4.63257">
        <ele>808.20001220703</ele>
        <time>2021-03-24T14:12:11Z</time>
      </trkpt>
      <trkpt lat="45.36117" lon="4.63312">
        <ele>803</ele>
        <time>2021-03-24T14:12:16Z</time>
      </trkpt>
      <trkpt lat="45.36099" lon="4.63332">
        <ele>801</ele>
        <time>2021-03-24T14:12:18Z</time>
      </trkpt>
      <trkpt lat="45.36083" lon="4.63372">
        <ele>799.20001220703</ele>
        <time>2021-03-24T14:12:22Z</time>
      </trkpt>
      <trkpt lat="45.36073" lon="4.63405">
        <ele>797</ele>
        <time>2021-03-24T14:12:25Z</time>
      </trkpt>
      <trkpt lat="45.36058" lon="4.63456">
        <ele>795</ele>
        <time>2021-03-24T14:12:30Z</time>
      </trkpt>
      <trkpt lat="45.36039" lon="4.63477">
        <ele>791.79998779297</ele>
        <time>2021-03-24T14:12:34Z</time>
      </trkpt>
      <trkpt lat="45.36034" lon="4.6348">
        <ele>791.59997558594</ele>
        <time>2021-03-24T14:12:35Z</time>
      </trkpt>
      <trkpt lat="45.36023" lon="4.63487">
        <ele>791.20001220703</ele>
        <time>2021-03-24T14:12:37Z</time>
      </trkpt>
      <trkpt lat="45.35988" lon="4.63491">
        <ele>789.20001220703</ele>
        <time>2021-03-24T14:12:43Z</time>
      </trkpt>
      <trkpt lat="45.35972" lon="4.63486">
        <ele>789</ele>
        <time>2021-03-24T14:12:47Z</time>
      </trkpt>
      <trkpt lat="45.3596" lon="4.63484">
        <ele>788.40002441406</ele>
        <time>2021-03-24T14:12:50Z</time>
      </trkpt>
      <trkpt lat="45.35937" lon="4.63474">
        <ele>788.20001220703</ele>
        <time>2021-03-24T14:12:59Z</time>
      </trkpt>
      <trkpt lat="45.35923" lon="4.63465">
        <ele>788.79998779297</ele>
        <time>2021-03-24T14:13:05Z</time>
      </trkpt>
      <trkpt lat="45.35903" lon="4.63451">
        <ele>789.40002441406</ele>
        <time>2021-03-24T14:13:11Z</time>
      </trkpt>
      <trkpt lat="45.35884" lon="4.63435">
        <ele>791.20001220703</ele>
        <time>2021-03-24T14:13:20Z</time>
      </trkpt>
      <trkpt lat="45.35863" lon="4.63412">
        <ele>792.40002441406</ele>
        <time>2021-03-24T14:13:29Z</time>
      </trkpt>
      <trkpt lat="45.35862" lon="4.63409">
        <ele>792.59997558594</ele>
        <time>2021-03-24T14:13:30Z</time>
      </trkpt>
      <trkpt lat="45.35851" lon="4.63394">
        <ele>794</ele>
        <time>2021-03-24T14:13:35Z</time>
      </trkpt>
      <trkpt lat="45.35845" lon="4.63388">
        <ele>794.40002441406</ele>
        <time>2021-03-24T14:13:39Z</time>
      </trkpt>
      <trkpt lat="45.35837" lon="4.63374">
        <ele>794.79998779297</ele>
        <time>2021-03-24T14:13:46Z</time>
      </trkpt>
      <trkpt lat="45.3583" lon="4.63352">
        <ele>796.20001220703</ele>
        <time>2021-03-24T14:13:57Z</time>
      </trkpt>
      <trkpt lat="45.3583" lon="4.6335">
        <ele>796.40002441406</ele>
        <time>2021-03-24T14:13:58Z</time>
      </trkpt>
      <trkpt lat="45.35826" lon="4.63327">
        <ele>797.59997558594</ele>
        <time>2021-03-24T14:14:08Z</time>
      </trkpt>
      <trkpt lat="45.35818" lon="4.63306">
        <ele>798.59997558594</ele>
        <time>2021-03-24T14:14:14Z</time>
      </trkpt>
      <trkpt lat="45.35813" lon="4.63295">
        <ele>799</ele>
        <time>2021-03-24T14:14:18Z</time>
      </trkpt>
      <trkpt lat="45.35809" lon="4.6328">
        <ele>801.20001220703</ele>
        <time>2021-03-24T14:14:25Z</time>
      </trkpt>
      <trkpt lat="45.358" lon="4.63272">
        <ele>802</ele>
        <time>2021-03-24T14:14:30Z</time>
      </trkpt>
      <trkpt lat="45.35794" lon="4.63254">
        <ele>804.20001220703</ele>
        <time>2021-03-24T14:14:40Z</time>
      </trkpt>
      <trkpt lat="45.35793" lon="4.63239">
        <ele>806</ele>
        <time>2021-03-24T14:14:48Z</time>
      </trkpt>
      <trkpt lat="45.3579" lon="4.63217">
        <ele>808</ele>
        <time>2021-03-24T14:14:56Z</time>
      </trkpt>
      <trkpt lat="45.35784" lon="4.63199">
        <ele>809.20001220703</ele>
        <time>2021-03-24T14:15:03Z</time>
      </trkpt>
      <trkpt lat="45.35778" lon="4.63187">
        <ele>809.79998779297</ele>
        <time>2021-03-24T14:15:08Z</time>
      </trkpt>
      <trkpt lat="45.35777" lon="4.63184">
        <ele>810.40002441406</ele>
        <time>2021-03-24T14:15:13Z</time>
      </trkpt>
      <trkpt lat="45.35764" lon="4.63166">
        <ele>811.59997558594</ele>
        <time>2021-03-24T14:15:24Z</time>
      </trkpt>
      <trkpt lat="45.35746" lon="4.6315">
        <ele>812.40002441406</ele>
        <time>2021-03-24T14:15:32Z</time>
      </trkpt>
      <trkpt lat="45.35736" lon="4.63132">
        <ele>812.59997558594</ele>
        <time>2021-03-24T14:15:39Z</time>
      </trkpt>
      <trkpt lat="45.35721" lon="4.63123">
        <ele>813</ele>
        <time>2021-03-24T14:15:45Z</time>
      </trkpt>
      <trkpt lat="45.35707" lon="4.63106">
        <ele>814</ele>
        <time>2021-03-24T14:15:53Z</time>
      </trkpt>
      <trkpt lat="45.35701" lon="4.63095">
        <ele>815.59997558594</ele>
        <time>2021-03-24T14:16:00Z</time>
      </trkpt>
      <trkpt lat="45.35694" lon="4.63083">
        <ele>816.79998779297</ele>
        <time>2021-03-24T14:16:09Z</time>
      </trkpt>
      <trkpt lat="45.35681" lon="4.63076">
        <ele>817.40002441406</ele>
        <time>2021-03-24T14:16:15Z</time>
      </trkpt>
      <trkpt lat="45.35669" lon="4.63076">
        <ele>817.59997558594</ele>
        <time>2021-03-24T14:16:20Z</time>
      </trkpt>
      <trkpt lat="45.35626" lon="4.63077">
        <ele>817.20001220703</ele>
        <time>2021-03-24T14:16:33Z</time>
      </trkpt>
      <trkpt lat="45.3561" lon="4.63075">
        <ele>816.79998779297</ele>
        <time>2021-03-24T14:16:38Z</time>
      </trkpt>
      <trkpt lat="45.35581" lon="4.63075">
        <ele>816.79998779297</ele>
        <time>2021-03-24T14:16:47Z</time>
      </trkpt>
      <trkpt lat="45.35564" lon="4.63071">
        <ele>817</ele>
        <time>2021-03-24T14:16:51Z</time>
      </trkpt>
      <trkpt lat="45.35563" lon="4.6307">
        <ele>817.20001220703</ele>
        <time>2021-03-24T14:16:53Z</time>
      </trkpt>
      <trkpt lat="45.35531" lon="4.63068">
        <ele>817.79998779297</ele>
        <time>2021-03-24T14:17:02Z</time>
      </trkpt>
      <trkpt lat="45.35498" lon="4.63074">
        <ele>818.40002441406</ele>
        <time>2021-03-24T14:17:12Z</time>
      </trkpt>
      <trkpt lat="45.35477" lon="4.63086">
        <ele>818.59997558594</ele>
        <time>2021-03-24T14:17:19Z</time>
      </trkpt>
      <trkpt lat="45.35464" lon="4.631">
        <ele>818.79998779297</ele>
        <time>2021-03-24T14:17:24Z</time>
      </trkpt>
      <trkpt lat="45.3546" lon="4.63105">
        <ele>818.79998779297</ele>
        <time>2021-03-24T14:17:25Z</time>
      </trkpt>
      <trkpt lat="45.35439" lon="4.63127">
        <ele>818.20001220703</ele>
        <time>2021-03-24T14:17:30Z</time>
      </trkpt>
      <trkpt lat="45.35411" lon="4.63158">
        <ele>818.40002441406</ele>
        <time>2021-03-24T14:17:40Z</time>
      </trkpt>
      <trkpt lat="45.35406" lon="4.63163">
        <ele>818.40002441406</ele>
        <time>2021-03-24T14:17:42Z</time>
      </trkpt>
      <trkpt lat="45.35372" lon="4.63217">
        <ele>817</ele>
        <time>2021-03-24T14:17:52Z</time>
      </trkpt>
      <trkpt lat="45.35357" lon="4.63263">
        <ele>815.59997558594</ele>
        <time>2021-03-24T14:17:57Z</time>
      </trkpt>
      <trkpt lat="45.35342" lon="4.63275">
        <ele>814.59997558594</ele>
        <time>2021-03-24T14:18:01Z</time>
      </trkpt>
      <trkpt lat="45.35334" lon="4.63282">
        <ele>814.20001220703</ele>
        <time>2021-03-24T14:18:03Z</time>
      </trkpt>
      <trkpt lat="45.3532" lon="4.63323">
        <ele>813</ele>
        <time>2021-03-24T14:18:10Z</time>
      </trkpt>
      <trkpt lat="45.35319" lon="4.63327">
        <ele>813</ele>
        <time>2021-03-24T14:18:11Z</time>
      </trkpt>
      <trkpt lat="45.35304" lon="4.63359">
        <ele>813</ele>
        <time>2021-03-24T14:18:18Z</time>
      </trkpt>
      <trkpt lat="45.35293" lon="4.63358">
        <ele>813.20001220703</ele>
        <time>2021-03-24T14:18:22Z</time>
      </trkpt>
      <trkpt lat="45.35264" lon="4.63349">
        <ele>814.59997558594</ele>
        <time>2021-03-24T14:18:32Z</time>
      </trkpt>
      <trkpt lat="45.35239" lon="4.63335">
        <ele>815.20001220703</ele>
        <time>2021-03-24T14:18:39Z</time>
      </trkpt>
      <trkpt lat="45.35221" lon="4.63316">
        <ele>815.59997558594</ele>
        <time>2021-03-24T14:18:47Z</time>
      </trkpt>
      <trkpt lat="45.35217" lon="4.63313">
        <ele>815.79998779297</ele>
        <time>2021-03-24T14:18:49Z</time>
      </trkpt>
      <trkpt lat="45.3521" lon="4.63304">
        <ele>816.59997558594</ele>
        <time>2021-03-24T14:18:53Z</time>
      </trkpt>
      <trkpt lat="45.35204" lon="4.63296">
        <ele>818</ele>
        <time>2021-03-24T14:18:58Z</time>
      </trkpt>
      <trkpt lat="45.35203" lon="4.63295">
        <ele>818.20001220703</ele>
        <time>2021-03-24T14:18:59Z</time>
      </trkpt>
      <trkpt lat="45.35194" lon="4.63286">
        <ele>820</ele>
        <time>2021-03-24T14:19:08Z</time>
      </trkpt>
      <trkpt lat="45.35194" lon="4.63286">
        <ele>820.40002441406</ele>
        <time>2021-03-24T14:19:09Z</time>
      </trkpt>
      <trkpt lat="45.3518" lon="4.63273">
        <ele>821.40002441406</ele>
        <time>2021-03-24T14:19:18Z</time>
      </trkpt>
      <trkpt lat="45.35173" lon="4.63263">
        <ele>822.40002441406</ele>
        <time>2021-03-24T14:19:25Z</time>
      </trkpt>
      <trkpt lat="45.35161" lon="4.63251">
        <ele>822.79998779297</ele>
        <time>2021-03-24T14:19:31Z</time>
      </trkpt>
      <trkpt lat="45.35157" lon="4.63245">
        <ele>823.59997558594</ele>
        <time>2021-03-24T14:19:36Z</time>
      </trkpt>
      <trkpt lat="45.35156" lon="4.63238">
        <ele>823.59997558594</ele>
        <time>2021-03-24T14:19:38Z</time>
      </trkpt>
      <trkpt lat="45.35143" lon="4.63226">
        <ele>825</ele>
        <time>2021-03-24T14:19:44Z</time>
      </trkpt>
      <trkpt lat="45.35131" lon="4.63216">
        <ele>826.59997558594</ele>
        <time>2021-03-24T14:19:50Z</time>
      </trkpt>
      <trkpt lat="45.35129" lon="4.63206">
        <ele>827.79998779297</ele>
        <time>2021-03-24T14:19:55Z</time>
      </trkpt>
      <trkpt lat="45.3512" lon="4.63194">
        <ele>829</ele>
        <time>2021-03-24T14:20:03Z</time>
      </trkpt>
      <trkpt lat="45.35116" lon="4.6319">
        <ele>829.59997558594</ele>
        <time>2021-03-24T14:20:09Z</time>
      </trkpt>
      <trkpt lat="45.35108" lon="4.63184">
        <ele>830.59997558594</ele>
        <time>2021-03-24T14:20:14Z</time>
      </trkpt>
      <trkpt lat="45.35091" lon="4.63175">
        <ele>831.40002441406</ele>
        <time>2021-03-24T14:20:21Z</time>
      </trkpt>
      <trkpt lat="45.35079" lon="4.63164">
        <ele>832</ele>
        <time>2021-03-24T14:20:27Z</time>
      </trkpt>
      <trkpt lat="45.35073" lon="4.63159">
        <ele>832.40002441406</ele>
        <time>2021-03-24T14:20:30Z</time>
      </trkpt>
      <trkpt lat="45.35051" lon="4.63141">
        <ele>833.20001220703</ele>
        <time>2021-03-24T14:20:39Z</time>
      </trkpt>
      <trkpt lat="45.35016" lon="4.63116">
        <ele>833</ele>
        <time>2021-03-24T14:20:51Z</time>
      </trkpt>
      <trkpt lat="45.34988" lon="4.63085">
        <ele>833</ele>
        <time>2021-03-24T14:21:00Z</time>
      </trkpt>
      <trkpt lat="45.34974" lon="4.63071">
        <ele>832.59997558594</ele>
        <time>2021-03-24T14:21:03Z</time>
      </trkpt>
      <trkpt lat="45.34943" lon="4.63044">
        <ele>830.20001220703</ele>
        <time>2021-03-24T14:21:12Z</time>
      </trkpt>
      <trkpt lat="45.34936" lon="4.63017">
        <ele>828.40002441406</ele>
        <time>2021-03-24T14:21:25Z</time>
      </trkpt>
      <trkpt lat="45.34928" lon="4.62983">
        <ele>830</ele>
        <time>2021-03-24T14:21:35Z</time>
      </trkpt>
      <trkpt lat="45.34918" lon="4.62929">
        <ele>831.40002441406</ele>
        <time>2021-03-24T14:21:49Z</time>
      </trkpt>
      <trkpt lat="45.34918" lon="4.62919">
        <ele>833</ele>
        <time>2021-03-24T14:21:54Z</time>
      </trkpt>
      <trkpt lat="45.34918" lon="4.62918">
        <ele>833.79998779297</ele>
        <time>2021-03-24T14:21:55Z</time>
      </trkpt>
      <trkpt lat="45.34917" lon="4.62917">
        <ele>834</ele>
        <time>2021-03-24T14:21:56Z</time>
      </trkpt>
      <trkpt lat="45.34915" lon="4.62912">
        <ele>835</ele>
        <time>2021-03-24T14:22:12Z</time>
      </trkpt>
      <trkpt lat="45.34914" lon="4.62911">
        <ele>835.40002441406</ele>
        <time>2021-03-24T14:26:19Z</time>
      </trkpt>
      <trkpt lat="45.34906" lon="4.62906">
        <ele>835.20001220703</ele>
        <time>2021-03-24T14:26:22Z</time>
      </trkpt>
      <trkpt lat="45.34875" lon="4.62889">
        <ele>835</ele>
        <time>2021-03-24T14:26:31Z</time>
      </trkpt>
      <trkpt lat="45.34827" lon="4.62831">
        <ele>832.40002441406</ele>
        <time>2021-03-24T14:26:41Z</time>
      </trkpt>
      <trkpt lat="45.34797" lon="4.62789">
        <ele>830.79998779297</ele>
        <time>2021-03-24T14:26:50Z</time>
      </trkpt>
      <trkpt lat="45.34772" lon="4.62733">
        <ele>830.20001220703</ele>
        <time>2021-03-24T14:27:01Z</time>
      </trkpt>
      <trkpt lat="45.34755" lon="4.627">
        <ele>826.79998779297</ele>
        <time>2021-03-24T14:27:06Z</time>
      </trkpt>
      <trkpt lat="45.34749" lon="4.62689">
        <ele>825.79998779297</ele>
        <time>2021-03-24T14:27:08Z</time>
      </trkpt>
      <trkpt lat="45.34745" lon="4.62668">
        <ele>822</ele>
        <time>2021-03-24T14:27:12Z</time>
      </trkpt>
      <trkpt lat="45.34729" lon="4.62639">
        <ele>818.40002441406</ele>
        <time>2021-03-24T14:27:19Z</time>
      </trkpt>
      <trkpt lat="45.34727" lon="4.62638">
        <ele>818.20001220703</ele>
        <time>2021-03-24T14:27:20Z</time>
      </trkpt>
      <trkpt lat="45.34715" lon="4.62621">
        <ele>815.20001220703</ele>
        <time>2021-03-24T14:27:26Z</time>
      </trkpt>
      <trkpt lat="45.34714" lon="4.6262">
        <ele>814.59997558594</ele>
        <time>2021-03-24T14:27:27Z</time>
      </trkpt>
      <trkpt lat="45.34701" lon="4.62622">
        <ele>812.59997558594</ele>
        <time>2021-03-24T14:27:32Z</time>
      </trkpt>
      <trkpt lat="45.34682" lon="4.62632">
        <ele>811.40002441406</ele>
        <time>2021-03-24T14:27:37Z</time>
      </trkpt>
      <trkpt lat="45.34654" lon="4.62652">
        <ele>808.20001220703</ele>
        <time>2021-03-24T14:27:42Z</time>
      </trkpt>
      <trkpt lat="45.34647" lon="4.62657">
        <ele>808</ele>
        <time>2021-03-24T14:27:43Z</time>
      </trkpt>
      <trkpt lat="45.34624" lon="4.62676">
        <ele>805.40002441406</ele>
        <time>2021-03-24T14:27:46Z</time>
      </trkpt>
      <trkpt lat="45.34593" lon="4.6271">
        <ele>802.40002441406</ele>
        <time>2021-03-24T14:27:51Z</time>
      </trkpt>
      <trkpt lat="45.34588" lon="4.62717">
        <ele>802.20001220703</ele>
        <time>2021-03-24T14:27:52Z</time>
      </trkpt>
      <trkpt lat="45.34561" lon="4.62723">
        <ele>800.20001220703</ele>
        <time>2021-03-24T14:27:56Z</time>
      </trkpt>
      <trkpt lat="45.34553" lon="4.62722">
        <ele>799.59997558594</ele>
        <time>2021-03-24T14:27:57Z</time>
      </trkpt>
      <trkpt lat="45.34532" lon="4.62727">
        <ele>796.79998779297</ele>
        <time>2021-03-24T14:28:00Z</time>
      </trkpt>
      <trkpt lat="45.34507" lon="4.62745">
        <ele>794.79998779297</ele>
        <time>2021-03-24T14:28:04Z</time>
      </trkpt>
      <trkpt lat="45.34494" lon="4.62763">
        <ele>793</ele>
        <time>2021-03-24T14:28:07Z</time>
      </trkpt>
      <trkpt lat="45.34489" lon="4.62771">
        <ele>792.79998779297</ele>
        <time>2021-03-24T14:28:08Z</time>
      </trkpt>
      <trkpt lat="45.34481" lon="4.62782">
        <ele>790.79998779297</ele>
        <time>2021-03-24T14:28:10Z</time>
      </trkpt>
      <trkpt lat="45.34467" lon="4.62795">
        <ele>787.79998779297</ele>
        <time>2021-03-24T14:28:13Z</time>
      </trkpt>
      <trkpt lat="45.34457" lon="4.62806">
        <ele>784.79998779297</ele>
        <time>2021-03-24T14:28:16Z</time>
      </trkpt>
      <trkpt lat="45.34455" lon="4.62817">
        <ele>782.40002441406</ele>
        <time>2021-03-24T14:28:19Z</time>
      </trkpt>
      <trkpt lat="45.3446" lon="4.62833">
        <ele>779.79998779297</ele>
        <time>2021-03-24T14:28:23Z</time>
      </trkpt>
      <trkpt lat="45.34462" lon="4.62838">
        <ele>779.59997558594</ele>
        <time>2021-03-24T14:28:24Z</time>
      </trkpt>
      <trkpt lat="45.34465" lon="4.62846">
        <ele>779</ele>
        <time>2021-03-24T14:28:26Z</time>
      </trkpt>
      <trkpt lat="45.34464" lon="4.62853">
        <ele>778.40002441406</ele>
        <time>2021-03-24T14:28:29Z</time>
      </trkpt>
      <trkpt lat="45.34454" lon="4.62854">
        <ele>776.20001220703</ele>
        <time>2021-03-24T14:28:33Z</time>
      </trkpt>
      <trkpt lat="45.34449" lon="4.62851">
        <ele>776</ele>
        <time>2021-03-24T14:28:34Z</time>
      </trkpt>
      <trkpt lat="45.34415" lon="4.62838">
        <ele>773.59997558594</ele>
        <time>2021-03-24T14:28:40Z</time>
      </trkpt>
      <trkpt lat="45.34401" lon="4.62839">
        <ele>770.79998779297</ele>
        <time>2021-03-24T14:28:43Z</time>
      </trkpt>
      <trkpt lat="45.34385" lon="4.62868">
        <ele>767.79998779297</ele>
        <time>2021-03-24T14:28:48Z</time>
      </trkpt>
      <trkpt lat="45.34381" lon="4.62877">
        <ele>767.20001220703</ele>
        <time>2021-03-24T14:28:49Z</time>
      </trkpt>
      <trkpt lat="45.34365" lon="4.62912">
        <ele>763.79998779297</ele>
        <time>2021-03-24T14:28:53Z</time>
      </trkpt>
      <trkpt lat="45.34349" lon="4.62944">
        <ele>762.20001220703</ele>
        <time>2021-03-24T14:28:58Z</time>
      </trkpt>
      <trkpt lat="45.34339" lon="4.62971">
        <ele>761.79998779297</ele>
        <time>2021-03-24T14:29:05Z</time>
      </trkpt>
      <trkpt lat="45.34309" lon="4.6301">
        <ele>761.20001220703</ele>
        <time>2021-03-24T14:29:14Z</time>
      </trkpt>
      <trkpt lat="45.34305" lon="4.63013">
        <ele>761</ele>
        <time>2021-03-24T14:29:15Z</time>
      </trkpt>
      <trkpt lat="45.34267" lon="4.6304">
        <ele>758.59997558594</ele>
        <time>2021-03-24T14:29:23Z</time>
      </trkpt>
      <trkpt lat="45.34246" lon="4.63062">
        <ele>754.59997558594</ele>
        <time>2021-03-24T14:29:29Z</time>
      </trkpt>
      <trkpt lat="45.3424" lon="4.63066">
        <ele>753.40002441406</ele>
        <time>2021-03-24T14:29:31Z</time>
      </trkpt>
      <trkpt lat="45.34228" lon="4.63073">
        <ele>750.40002441406</ele>
        <time>2021-03-24T14:29:35Z</time>
      </trkpt>
      <trkpt lat="45.3422" lon="4.63075">
        <ele>749.59997558594</ele>
        <time>2021-03-24T14:29:37Z</time>
      </trkpt>
      <trkpt lat="45.34206" lon="4.63085">
        <ele>748.20001220703</ele>
        <time>2021-03-24T14:29:42Z</time>
      </trkpt>
      <trkpt lat="45.34188" lon="4.63094">
        <ele>744.20001220703</ele>
        <time>2021-03-24T14:29:47Z</time>
      </trkpt>
      <trkpt lat="45.34184" lon="4.63094">
        <ele>743.79998779297</ele>
        <time>2021-03-24T14:29:48Z</time>
      </trkpt>
      <trkpt lat="45.34169" lon="4.63096">
        <ele>740.40002441406</ele>
        <time>2021-03-24T14:29:52Z</time>
      </trkpt>
      <trkpt lat="45.34157" lon="4.63094">
        <ele>737.40002441406</ele>
        <time>2021-03-24T14:29:57Z</time>
      </trkpt>
      <trkpt lat="45.34141" lon="4.63086">
        <ele>734.20001220703</ele>
        <time>2021-03-24T14:30:03Z</time>
      </trkpt>
      <trkpt lat="45.34138" lon="4.63084">
        <ele>734</ele>
        <time>2021-03-24T14:30:04Z</time>
      </trkpt>
      <trkpt lat="45.34132" lon="4.63079">
        <ele>730.79998779297</ele>
        <time>2021-03-24T14:30:07Z</time>
      </trkpt>
      <trkpt lat="45.34124" lon="4.63074">
        <ele>727.79998779297</ele>
        <time>2021-03-24T14:30:10Z</time>
      </trkpt>
      <trkpt lat="45.34088" lon="4.63055">
        <ele>724.59997558594</ele>
        <time>2021-03-24T14:30:17Z</time>
      </trkpt>
      <trkpt lat="45.34078" lon="4.63048">
        <ele>721.40002441406</ele>
        <time>2021-03-24T14:30:20Z</time>
      </trkpt>
      <trkpt lat="45.34069" lon="4.63043">
        <ele>720</ele>
        <time>2021-03-24T14:30:22Z</time>
      </trkpt>
      <trkpt lat="45.34054" lon="4.63037">
        <ele>716</ele>
        <time>2021-03-24T14:30:26Z</time>
      </trkpt>
      <trkpt lat="45.34048" lon="4.63035">
        <ele>715</ele>
        <time>2021-03-24T14:30:28Z</time>
      </trkpt>
      <trkpt lat="45.34026" lon="4.63034">
        <ele>711</ele>
        <time>2021-03-24T14:30:35Z</time>
      </trkpt>
      <trkpt lat="45.34017" lon="4.63038">
        <ele>709.79998779297</ele>
        <time>2021-03-24T14:30:37Z</time>
      </trkpt>
      <trkpt lat="45.33996" lon="4.63056">
        <ele>708.20001220703</ele>
        <time>2021-03-24T14:30:41Z</time>
      </trkpt>
      <trkpt lat="45.33976" lon="4.63061">
        <ele>705.59997558594</ele>
        <time>2021-03-24T14:30:44Z</time>
      </trkpt>
      <trkpt lat="45.33946" lon="4.63066">
        <ele>702.59997558594</ele>
        <time>2021-03-24T14:30:49Z</time>
      </trkpt>
      <trkpt lat="45.33925" lon="4.63076">
        <ele>701.20001220703</ele>
        <time>2021-03-24T14:30:53Z</time>
      </trkpt>
      <trkpt lat="45.33915" lon="4.63082">
        <ele>699.20001220703</ele>
        <time>2021-03-24T14:30:55Z</time>
      </trkpt>
      <trkpt lat="45.33901" lon="4.63082">
        <ele>697.40002441406</ele>
        <time>2021-03-24T14:30:58Z</time>
      </trkpt>
      <trkpt lat="45.33896" lon="4.6308">
        <ele>696.59997558594</ele>
        <time>2021-03-24T14:30:59Z</time>
      </trkpt>
      <trkpt lat="45.33891" lon="4.63077">
        <ele>696.40002441406</ele>
        <time>2021-03-24T14:31:00Z</time>
      </trkpt>
      <trkpt lat="45.33836" lon="4.63062">
        <ele>695</ele>
        <time>2021-03-24T14:31:13Z</time>
      </trkpt>
      <trkpt lat="45.33827" lon="4.63061">
        <ele>695</ele>
        <time>2021-03-24T14:31:15Z</time>
      </trkpt>
      <trkpt lat="45.33794" lon="4.6308">
        <ele>694.79998779297</ele>
        <time>2021-03-24T14:31:22Z</time>
      </trkpt>
      <trkpt lat="45.33782" lon="4.63105">
        <ele>694.59997558594</ele>
        <time>2021-03-24T14:31:27Z</time>
      </trkpt>
      <trkpt lat="45.33771" lon="4.63185">
        <ele>696.79998779297</ele>
        <time>2021-03-24T14:31:44Z</time>
      </trkpt>
      <trkpt lat="45.3376" lon="4.63235">
        <ele>698.40002441406</ele>
        <time>2021-03-24T14:31:54Z</time>
      </trkpt>
      <trkpt lat="45.33735" lon="4.63261">
        <ele>698.40002441406</ele>
        <time>2021-03-24T14:32:01Z</time>
      </trkpt>
      <trkpt lat="45.33722" lon="4.63256">
        <ele>697.59997558594</ele>
        <time>2021-03-24T14:32:03Z</time>
      </trkpt>
      <trkpt lat="45.33692" lon="4.63244">
        <ele>696.20001220703</ele>
        <time>2021-03-24T14:32:07Z</time>
      </trkpt>
      <trkpt lat="45.33658" lon="4.63262">
        <ele>693.40002441406</ele>
        <time>2021-03-24T14:32:12Z</time>
      </trkpt>
      <trkpt lat="45.33652" lon="4.63269">
        <ele>692.40002441406</ele>
        <time>2021-03-24T14:32:13Z</time>
      </trkpt>
      <trkpt lat="45.33629" lon="4.63284">
        <ele>688.59997558594</ele>
        <time>2021-03-24T14:32:16Z</time>
      </trkpt>
      <trkpt lat="45.33622" lon="4.63287">
        <ele>688</ele>
        <time>2021-03-24T14:32:17Z</time>
      </trkpt>
      <trkpt lat="45.33601" lon="4.63285">
        <ele>685.59997558594</ele>
        <time>2021-03-24T14:32:21Z</time>
      </trkpt>
      <trkpt lat="45.336" lon="4.63246">
        <ele>684.59997558594</ele>
        <time>2021-03-24T14:32:27Z</time>
      </trkpt>
      <trkpt lat="45.33599" lon="4.63228">
        <ele>684.59997558594</ele>
        <time>2021-03-24T14:32:29Z</time>
      </trkpt>
      <trkpt lat="45.33603" lon="4.63123">
        <ele>683.59997558594</ele>
        <time>2021-03-24T14:32:41Z</time>
      </trkpt>
      <trkpt lat="45.33602" lon="4.63102">
        <ele>683</ele>
        <time>2021-03-24T14:32:43Z</time>
      </trkpt>
      <trkpt lat="45.33604" lon="4.63082">
        <ele>682</ele>
        <time>2021-03-24T14:32:46Z</time>
      </trkpt>
      <trkpt lat="45.33626" lon="4.63096">
        <ele>679.20001220703</ele>
        <time>2021-03-24T14:32:53Z</time>
      </trkpt>
      <trkpt lat="45.33645" lon="4.63091">
        <ele>678.40002441406</ele>
        <time>2021-03-24T14:32:56Z</time>
      </trkpt>
      <trkpt lat="45.33668" lon="4.6306">
        <ele>676.40002441406</ele>
        <time>2021-03-24T14:33:00Z</time>
      </trkpt>
      <trkpt lat="45.33692" lon="4.63032">
        <ele>674.20001220703</ele>
        <time>2021-03-24T14:33:04Z</time>
      </trkpt>
      <trkpt lat="45.33697" lon="4.63027">
        <ele>674</ele>
        <time>2021-03-24T14:33:05Z</time>
      </trkpt>
      <trkpt lat="45.33745" lon="4.62991">
        <ele>670.40002441406</ele>
        <time>2021-03-24T14:33:11Z</time>
      </trkpt>
      <trkpt lat="45.33803" lon="4.62945">
        <ele>667.20001220703</ele>
        <time>2021-03-24T14:33:17Z</time>
      </trkpt>
      <trkpt lat="45.3383" lon="4.62924">
        <ele>664.20001220703</ele>
        <time>2021-03-24T14:33:21Z</time>
      </trkpt>
      <trkpt lat="45.33846" lon="4.62915">
        <ele>663</ele>
        <time>2021-03-24T14:33:24Z</time>
      </trkpt>
      <trkpt lat="45.33855" lon="4.62911">
        <ele>662.40002441406</ele>
        <time>2021-03-24T14:33:26Z</time>
      </trkpt>
      <trkpt lat="45.33882" lon="4.62887">
        <ele>663.40002441406</ele>
        <time>2021-03-24T14:33:36Z</time>
      </trkpt>
      <trkpt lat="45.33869" lon="4.62877">
        <ele>665.40002441406</ele>
        <time>2021-03-24T14:33:42Z</time>
      </trkpt>
      <trkpt lat="45.33842" lon="4.62873">
        <ele>666.59997558594</ele>
        <time>2021-03-24T14:33:51Z</time>
      </trkpt>
      <trkpt lat="45.33824" lon="4.62868">
        <ele>668.40002441406</ele>
        <time>2021-03-24T14:33:59Z</time>
      </trkpt>
      <trkpt lat="45.33801" lon="4.62852">
        <ele>670.40002441406</ele>
        <time>2021-03-24T14:34:09Z</time>
      </trkpt>
      <trkpt lat="45.33787" lon="4.62843">
        <ele>670.40002441406</ele>
        <time>2021-03-24T14:34:13Z</time>
      </trkpt>
      <trkpt lat="45.33773" lon="4.6284">
        <ele>669.59997558594</ele>
        <time>2021-03-24T14:34:17Z</time>
      </trkpt>
      <trkpt lat="45.33745" lon="4.6285">
        <ele>666.40002441406</ele>
        <time>2021-03-24T14:34:26Z</time>
      </trkpt>
      <trkpt lat="45.33723" lon="4.62848">
        <ele>663.79998779297</ele>
        <time>2021-03-24T14:34:34Z</time>
      </trkpt>
      <trkpt lat="45.33697" lon="4.62857">
        <ele>661.79998779297</ele>
        <time>2021-03-24T14:34:42Z</time>
      </trkpt>
      <trkpt lat="45.33693" lon="4.62863">
        <ele>658.20001220703</ele>
        <time>2021-03-24T14:34:50Z</time>
      </trkpt>
      <trkpt lat="45.33692" lon="4.62864">
        <ele>655</ele>
        <time>2021-03-24T14:35:18Z</time>
      </trkpt>
      <trkpt lat="45.33687" lon="4.62868">
        <ele>652</ele>
        <time>2021-03-24T14:35:29Z</time>
      </trkpt>
      <trkpt lat="45.33682" lon="4.62867">
        <ele>649.20001220703</ele>
        <time>2021-03-24T14:35:43Z</time>
      </trkpt>
      <trkpt lat="45.33682" lon="4.62867">
        <ele>649</ele>
        <time>2021-03-24T14:35:53Z</time>
      </trkpt>
      <trkpt lat="45.33677" lon="4.62852">
        <ele>647.40002441406</ele>
        <time>2021-03-24T14:36:03Z</time>
      </trkpt>
      <trkpt lat="45.33668" lon="4.62828">
        <ele>644.40002441406</ele>
        <time>2021-03-24T14:36:11Z</time>
      </trkpt>
      <trkpt lat="45.33667" lon="4.62822">
        <ele>644.20001220703</ele>
        <time>2021-03-24T14:36:12Z</time>
      </trkpt>
      <trkpt lat="45.33663" lon="4.62806">
        <ele>643.20001220703</ele>
        <time>2021-03-24T14:36:15Z</time>
      </trkpt>
      <trkpt lat="45.3367" lon="4.62778">
        <ele>640.59997558594</ele>
        <time>2021-03-24T14:36:19Z</time>
      </trkpt>
      <trkpt lat="45.3368" lon="4.62748">
        <ele>637.40002441406</ele>
        <time>2021-03-24T14:36:23Z</time>
      </trkpt>
      <trkpt lat="45.33683" lon="4.62731">
        <ele>635.59997558594</ele>
        <time>2021-03-24T14:36:26Z</time>
      </trkpt>
      <trkpt lat="45.33672" lon="4.62706">
        <ele>632.59997558594</ele>
        <time>2021-03-24T14:36:32Z</time>
      </trkpt>
      <trkpt lat="45.33663" lon="4.62709">
        <ele>631.40002441406</ele>
        <time>2021-03-24T14:36:35Z</time>
      </trkpt>
      <trkpt lat="45.33636" lon="4.62703">
        <ele>631.59997558594</ele>
        <time>2021-03-24T14:36:44Z</time>
      </trkpt>
      <trkpt lat="45.3363" lon="4.62696">
        <ele>631.59997558594</ele>
        <time>2021-03-24T14:36:46Z</time>
      </trkpt>
      <trkpt lat="45.33607" lon="4.62697">
        <ele>630.59997558594</ele>
        <time>2021-03-24T14:36:50Z</time>
      </trkpt>
      <trkpt lat="45.3358" lon="4.62688">
        <ele>627.40002441406</ele>
        <time>2021-03-24T14:36:54Z</time>
      </trkpt>
      <trkpt lat="45.3357" lon="4.62684">
        <ele>626.59997558594</ele>
        <time>2021-03-24T14:36:55Z</time>
      </trkpt>
      <trkpt lat="45.33561" lon="4.62681">
        <ele>625.40002441406</ele>
        <time>2021-03-24T14:36:56Z</time>
      </trkpt>
      <trkpt lat="45.33519" lon="4.62684">
        <ele>623</ele>
        <time>2021-03-24T14:37:01Z</time>
      </trkpt>
      <trkpt lat="45.33471" lon="4.62697">
        <ele>621</ele>
        <time>2021-03-24T14:37:07Z</time>
      </trkpt>
      <trkpt lat="45.33466" lon="4.62698">
        <ele>619.79998779297</ele>
        <time>2021-03-24T14:37:08Z</time>
      </trkpt>
      <trkpt lat="45.33447" lon="4.62702">
        <ele>616.79998779297</ele>
        <time>2021-03-24T14:37:11Z</time>
      </trkpt>
      <trkpt lat="45.33399" lon="4.62733">
        <ele>613.40002441406</ele>
        <time>2021-03-24T14:37:18Z</time>
      </trkpt>
      <trkpt lat="45.33392" lon="4.62736">
        <ele>612.79998779297</ele>
        <time>2021-03-24T14:37:19Z</time>
      </trkpt>
      <trkpt lat="45.33381" lon="4.62734">
        <ele>609.79998779297</ele>
        <time>2021-03-24T14:37:20Z</time>
      </trkpt>
      <trkpt lat="45.33373" lon="4.62733">
        <ele>608.79998779297</ele>
        <time>2021-03-24T14:37:21Z</time>
      </trkpt>
      <trkpt lat="45.33353" lon="4.62717">
        <ele>605.59997558594</ele>
        <time>2021-03-24T14:37:25Z</time>
      </trkpt>
      <trkpt lat="45.33315" lon="4.62664">
        <ele>606.20001220703</ele>
        <time>2021-03-24T14:37:34Z</time>
      </trkpt>
      <trkpt lat="45.33293" lon="4.62662">
        <ele>605.79998779297</ele>
        <time>2021-03-24T14:37:37Z</time>
      </trkpt>
      <trkpt lat="45.33252" lon="4.62658">
        <ele>604.79998779297</ele>
        <time>2021-03-24T14:37:43Z</time>
      </trkpt>
      <trkpt lat="45.33194" lon="4.62645">
        <ele>603.79998779297</ele>
        <time>2021-03-24T14:37:51Z</time>
      </trkpt>
      <trkpt lat="45.33167" lon="4.62639">
        <ele>602.20001220703</ele>
        <time>2021-03-24T14:37:55Z</time>
      </trkpt>
      <trkpt lat="45.33128" lon="4.62601">
        <ele>600.79998779297</ele>
        <time>2021-03-24T14:38:03Z</time>
      </trkpt>
      <trkpt lat="45.33125" lon="4.6259">
        <ele>600.40002441406</ele>
        <time>2021-03-24T14:38:04Z</time>
      </trkpt>
      <trkpt lat="45.3312" lon="4.62574">
        <ele>599.20001220703</ele>
        <time>2021-03-24T14:38:06Z</time>
      </trkpt>
      <trkpt lat="45.33107" lon="4.62565">
        <ele>595</ele>
        <time>2021-03-24T14:38:09Z</time>
      </trkpt>
      <trkpt lat="45.33103" lon="4.62566">
        <ele>594.59997558594</ele>
        <time>2021-03-24T14:38:10Z</time>
      </trkpt>
      <trkpt lat="45.33092" lon="4.62568">
        <ele>593.59997558594</ele>
        <time>2021-03-24T14:38:12Z</time>
      </trkpt>
      <trkpt lat="45.33069" lon="4.62572">
        <ele>593.20001220703</ele>
        <time>2021-03-24T14:38:16Z</time>
      </trkpt>
      <trkpt lat="45.33051" lon="4.62557">
        <ele>593.40002441406</ele>
        <time>2021-03-24T14:38:21Z</time>
      </trkpt>
      <trkpt lat="45.33044" lon="4.62545">
        <ele>594.79998779297</ele>
        <time>2021-03-24T14:38:24Z</time>
      </trkpt>
      <trkpt lat="45.33021" lon="4.62503">
        <ele>596.20001220703</ele>
        <time>2021-03-24T14:38:34Z</time>
      </trkpt>
      <trkpt lat="45.33017" lon="4.62491">
        <ele>596.40002441406</ele>
        <time>2021-03-24T14:38:36Z</time>
      </trkpt>
      <trkpt lat="45.33007" lon="4.62465">
        <ele>596.20001220703</ele>
        <time>2021-03-24T14:38:40Z</time>
      </trkpt>
      <trkpt lat="45.32987" lon="4.62452">
        <ele>596</ele>
        <time>2021-03-24T14:38:45Z</time>
      </trkpt>
      <trkpt lat="45.3294" lon="4.6245">
        <ele>596.40002441406</ele>
        <time>2021-03-24T14:38:57Z</time>
      </trkpt>
      <trkpt lat="45.32884" lon="4.62438">
        <ele>598.20001220703</ele>
        <time>2021-03-24T14:39:12Z</time>
      </trkpt>
      <trkpt lat="45.32855" lon="4.62415">
        <ele>600</ele>
        <time>2021-03-24T14:39:23Z</time>
      </trkpt>
      <trkpt lat="45.32836" lon="4.62397">
        <ele>602.20001220703</ele>
        <time>2021-03-24T14:39:34Z</time>
      </trkpt>
      <trkpt lat="45.32819" lon="4.62373">
        <ele>603.79998779297</ele>
        <time>2021-03-24T14:39:45Z</time>
      </trkpt>
      <trkpt lat="45.32808" lon="4.62343">
        <ele>606.20001220703</ele>
        <time>2021-03-24T14:39:56Z</time>
      </trkpt>
      <trkpt lat="45.32786" lon="4.62329">
        <ele>608</ele>
        <time>2021-03-24T14:40:03Z</time>
      </trkpt>
      <trkpt lat="45.32758" lon="4.62309">
        <ele>608</ele>
        <time>2021-03-24T14:40:09Z</time>
      </trkpt>
      <trkpt lat="45.3273" lon="4.62259">
        <ele>606.40002441406</ele>
        <time>2021-03-24T14:40:15Z</time>
      </trkpt>
      <trkpt lat="45.32725" lon="4.62239">
        <ele>605.59997558594</ele>
        <time>2021-03-24T14:40:17Z</time>
      </trkpt>
      <trkpt lat="45.3271" lon="4.6221">
        <ele>604.20001220703</ele>
        <time>2021-03-24T14:40:20Z</time>
      </trkpt>
      <trkpt lat="45.32687" lon="4.62201">
        <ele>602.59997558594</ele>
        <time>2021-03-24T14:40:23Z</time>
      </trkpt>
      <trkpt lat="45.32667" lon="4.62206">
        <ele>602</ele>
        <time>2021-03-24T14:40:25Z</time>
      </trkpt>
      <trkpt lat="45.32646" lon="4.62213">
        <ele>601.79998779297</ele>
        <time>2021-03-24T14:40:29Z</time>
      </trkpt>
      <trkpt lat="45.32642" lon="4.62215">
        <ele>601.79998779297</ele>
        <time>2021-03-24T14:40:30Z</time>
      </trkpt>
      <trkpt lat="45.32628" lon="4.62226">
        <ele>603.59997558594</ele>
        <time>2021-03-24T14:40:36Z</time>
      </trkpt>
      <trkpt lat="45.32602" lon="4.62222">
        <ele>606.40002441406</ele>
        <time>2021-03-24T14:40:47Z</time>
      </trkpt>
      <trkpt lat="45.32579" lon="4.62212">
        <ele>609.40002441406</ele>
        <time>2021-03-24T14:41:00Z</time>
      </trkpt>
      <trkpt lat="45.32559" lon="4.62194">
        <ele>612.20001220703</ele>
        <time>2021-03-24T14:41:14Z</time>
      </trkpt>
      <trkpt lat="45.32547" lon="4.62175">
        <ele>614.20001220703</ele>
        <time>2021-03-24T14:41:25Z</time>
      </trkpt>
      <trkpt lat="45.32536" lon="4.62149">
        <ele>616.79998779297</ele>
        <time>2021-03-24T14:41:37Z</time>
      </trkpt>
      <trkpt lat="45.32525" lon="4.62121">
        <ele>619</ele>
        <time>2021-03-24T14:41:49Z</time>
      </trkpt>
      <trkpt lat="45.32511" lon="4.62086">
        <ele>620.59997558594</ele>
        <time>2021-03-24T14:42:03Z</time>
      </trkpt>
      <trkpt lat="45.32497" lon="4.62059">
        <ele>622.40002441406</ele>
        <time>2021-03-24T14:42:15Z</time>
      </trkpt>
      <trkpt lat="45.32483" lon="4.62035">
        <ele>624.59997558594</ele>
        <time>2021-03-24T14:42:26Z</time>
      </trkpt>
      <trkpt lat="45.3247" lon="4.62015">
        <ele>627.40002441406</ele>
        <time>2021-03-24T14:42:37Z</time>
      </trkpt>
      <trkpt lat="45.32455" lon="4.61993">
        <ele>630</ele>
        <time>2021-03-24T14:42:51Z</time>
      </trkpt>
      <trkpt lat="45.32426" lon="4.62002">
        <ele>631.20001220703</ele>
        <time>2021-03-24T14:43:02Z</time>
      </trkpt>
      <trkpt lat="45.32421" lon="4.62005">
        <ele>631</ele>
        <time>2021-03-24T14:43:03Z</time>
      </trkpt>
      <trkpt lat="45.32378" lon="4.62012">
        <ele>629.40002441406</ele>
        <time>2021-03-24T14:43:09Z</time>
      </trkpt>
      <trkpt lat="45.32335" lon="4.62024">
        <ele>626.20001220703</ele>
        <time>2021-03-24T14:43:14Z</time>
      </trkpt>
      <trkpt lat="45.32317" lon="4.62033">
        <ele>624.79998779297</ele>
        <time>2021-03-24T14:43:16Z</time>
      </trkpt>
      <trkpt lat="45.32291" lon="4.62053">
        <ele>621.59997558594</ele>
        <time>2021-03-24T14:43:19Z</time>
      </trkpt>
      <trkpt lat="45.32258" lon="4.62085">
        <ele>618.59997558594</ele>
        <time>2021-03-24T14:43:23Z</time>
      </trkpt>
      <trkpt lat="45.32235" lon="4.62105">
        <ele>614.59997558594</ele>
        <time>2021-03-24T14:43:26Z</time>
      </trkpt>
      <trkpt lat="45.32223" lon="4.62117">
        <ele>611.20001220703</ele>
        <time>2021-03-24T14:43:29Z</time>
      </trkpt>
      <trkpt lat="45.32219" lon="4.62119">
        <ele>608</ele>
        <time>2021-03-24T14:43:32Z</time>
      </trkpt>
      <trkpt lat="45.32216" lon="4.6212">
        <ele>607</ele>
        <time>2021-03-24T14:43:33Z</time>
      </trkpt>
      <trkpt lat="45.32198" lon="4.6216">
        <ele>605.20001220703</ele>
        <time>2021-03-24T14:43:39Z</time>
      </trkpt>
      <trkpt lat="45.32171" lon="4.62207">
        <ele>602.20001220703</ele>
        <time>2021-03-24T14:43:44Z</time>
      </trkpt>
      <trkpt lat="45.32164" lon="4.62217">
        <ele>601.40002441406</ele>
        <time>2021-03-24T14:43:45Z</time>
      </trkpt>
      <trkpt lat="45.32133" lon="4.62252">
        <ele>598.40002441406</ele>
        <time>2021-03-24T14:43:49Z</time>
      </trkpt>
      <trkpt lat="45.32105" lon="4.62268">
        <ele>595.59997558594</ele>
        <time>2021-03-24T14:43:52Z</time>
      </trkpt>
      <trkpt lat="45.32087" lon="4.62277">
        <ele>594.20001220703</ele>
        <time>2021-03-24T14:43:54Z</time>
      </trkpt>
      <trkpt lat="45.32079" lon="4.62283">
        <ele>594</ele>
        <time>2021-03-24T14:43:55Z</time>
      </trkpt>
      <trkpt lat="45.31997" lon="4.62327">
        <ele>591</ele>
        <time>2021-03-24T14:44:06Z</time>
      </trkpt>
      <trkpt lat="45.31984" lon="4.62357">
        <ele>590</ele>
        <time>2021-03-24T14:44:11Z</time>
      </trkpt>
      <trkpt lat="45.31971" lon="4.62379">
        <ele>589.40002441406</ele>
        <time>2021-03-24T14:44:15Z</time>
      </trkpt>
      <trkpt lat="45.31956" lon="4.62409">
        <ele>588.40002441406</ele>
        <time>2021-03-24T14:44:20Z</time>
      </trkpt>
      <trkpt lat="45.31951" lon="4.62424">
        <ele>588</ele>
        <time>2021-03-24T14:44:22Z</time>
      </trkpt>
      <trkpt lat="45.3194" lon="4.62471">
        <ele>587.40002441406</ele>
        <time>2021-03-24T14:44:27Z</time>
      </trkpt>
      <trkpt lat="45.31938" lon="4.62513">
        <ele>586.40002441406</ele>
        <time>2021-03-24T14:44:31Z</time>
      </trkpt>
      <trkpt lat="45.31915" lon="4.62583">
        <ele>584.20001220703</ele>
        <time>2021-03-24T14:44:38Z</time>
      </trkpt>
      <trkpt lat="45.31895" lon="4.62667">
        <ele>581.20001220703</ele>
        <time>2021-03-24T14:44:45Z</time>
      </trkpt>
      <trkpt lat="45.31885" lon="4.62736">
        <ele>578.20001220703</ele>
        <time>2021-03-24T14:44:51Z</time>
      </trkpt>
      <trkpt lat="45.31894" lon="4.62883">
        <ele>576.20001220703</ele>
        <time>2021-03-24T14:45:05Z</time>
      </trkpt>
      <trkpt lat="45.31888" lon="4.62967">
        <ele>575.20001220703</ele>
        <time>2021-03-24T14:45:13Z</time>
      </trkpt>
      <trkpt lat="45.31877" lon="4.63044">
        <ele>573.59997558594</ele>
        <time>2021-03-24T14:45:20Z</time>
      </trkpt>
      <trkpt lat="45.31862" lon="4.6317">
        <ele>570.79998779297</ele>
        <time>2021-03-24T14:45:32Z</time>
      </trkpt>
      <trkpt lat="45.31847" lon="4.63282">
        <ele>568.59997558594</ele>
        <time>2021-03-24T14:45:45Z</time>
      </trkpt>
      <trkpt lat="45.3184" lon="4.63303">
        <ele>568.59997558594</ele>
        <time>2021-03-24T14:45:48Z</time>
      </trkpt>
      <trkpt lat="45.31839" lon="4.6333">
        <ele>568.59997558594</ele>
        <time>2021-03-24T14:45:52Z</time>
      </trkpt>
      <trkpt lat="45.31847" lon="4.634">
        <ele>570</ele>
        <time>2021-03-24T14:46:07Z</time>
      </trkpt>
      <trkpt lat="45.31849" lon="4.63463">
        <ele>573</ele>
        <time>2021-03-24T14:46:25Z</time>
      </trkpt>
      <trkpt lat="45.31842" lon="4.63515">
        <ele>575.59997558594</ele>
        <time>2021-03-24T14:46:43Z</time>
      </trkpt>
      <trkpt lat="45.31835" lon="4.63542">
        <ele>578.59997558594</ele>
        <time>2021-03-24T14:46:55Z</time>
      </trkpt>
      <trkpt lat="45.31829" lon="4.63571">
        <ele>580.40002441406</ele>
        <time>2021-03-24T14:47:08Z</time>
      </trkpt>
      <trkpt lat="45.31824" lon="4.63596">
        <ele>581.79998779297</ele>
        <time>2021-03-24T14:47:19Z</time>
      </trkpt>
      <trkpt lat="45.31816" lon="4.63623">
        <ele>584.40002441406</ele>
        <time>2021-03-24T14:47:32Z</time>
      </trkpt>
      <trkpt lat="45.31806" lon="4.63666">
        <ele>587.40002441406</ele>
        <time>2021-03-24T14:47:51Z</time>
      </trkpt>
      <trkpt lat="45.31804" lon="4.63706">
        <ele>590.40002441406</ele>
        <time>2021-03-24T14:48:08Z</time>
      </trkpt>
      <trkpt lat="45.31801" lon="4.63741">
        <ele>593.20001220703</ele>
        <time>2021-03-24T14:48:24Z</time>
      </trkpt>
      <trkpt lat="45.31799" lon="4.63765">
        <ele>594.59997558594</ele>
        <time>2021-03-24T14:48:35Z</time>
      </trkpt>
      <trkpt lat="45.318" lon="4.63791">
        <ele>596</ele>
        <time>2021-03-24T14:48:45Z</time>
      </trkpt>
      <trkpt lat="45.31803" lon="4.63816">
        <ele>597</ele>
        <time>2021-03-24T14:48:54Z</time>
      </trkpt>
      <trkpt lat="45.31807" lon="4.63845">
        <ele>598.20001220703</ele>
        <time>2021-03-24T14:49:02Z</time>
      </trkpt>
      <trkpt lat="45.3181" lon="4.6388">
        <ele>598.79998779297</ele>
        <time>2021-03-24T14:49:10Z</time>
      </trkpt>
      <trkpt lat="45.31816" lon="4.63921">
        <ele>599.20001220703</ele>
        <time>2021-03-24T14:49:19Z</time>
      </trkpt>
      <trkpt lat="45.31837" lon="4.6403">
        <ele>600.79998779297</ele>
        <time>2021-03-24T14:49:40Z</time>
      </trkpt>
      <trkpt lat="45.31842" lon="4.64061">
        <ele>600.59997558594</ele>
        <time>2021-03-24T14:49:45Z</time>
      </trkpt>
      <trkpt lat="45.31843" lon="4.64079">
        <ele>600.40002441406</ele>
        <time>2021-03-24T14:49:48Z</time>
      </trkpt>
      <trkpt lat="45.31849" lon="4.64111">
        <ele>600</ele>
        <time>2021-03-24T14:49:54Z</time>
      </trkpt>
      <trkpt lat="45.31875" lon="4.64161">
        <ele>599.59997558594</ele>
        <time>2021-03-24T14:50:04Z</time>
      </trkpt>
      <trkpt lat="45.31889" lon="4.64222">
        <ele>600.20001220703</ele>
        <time>2021-03-24T14:50:15Z</time>
      </trkpt>
      <trkpt lat="45.31893" lon="4.64327">
        <ele>600.20001220703</ele>
        <time>2021-03-24T14:50:36Z</time>
      </trkpt>
      <trkpt lat="45.31912" lon="4.64387">
        <ele>601.40002441406</ele>
        <time>2021-03-24T14:50:53Z</time>
      </trkpt>
      <trkpt lat="45.31936" lon="4.64441">
        <ele>603.40002441406</ele>
        <time>2021-03-24T14:51:12Z</time>
      </trkpt>
      <trkpt lat="45.31956" lon="4.64475">
        <ele>605.79998779297</ele>
        <time>2021-03-24T14:51:29Z</time>
      </trkpt>
      <trkpt lat="45.31972" lon="4.64506">
        <ele>608.59997558594</ele>
        <time>2021-03-24T14:51:45Z</time>
      </trkpt>
      <trkpt lat="45.31985" lon="4.64529">
        <ele>610.59997558594</ele>
        <time>2021-03-24T14:51:57Z</time>
      </trkpt>
      <trkpt lat="45.31996" lon="4.64558">
        <ele>613.20001220703</ele>
        <time>2021-03-24T14:52:11Z</time>
      </trkpt>
      <trkpt lat="45.32005" lon="4.6458">
        <ele>614.59997558594</ele>
        <time>2021-03-24T14:52:21Z</time>
      </trkpt>
      <trkpt lat="45.32016" lon="4.64599">
        <ele>617</ele>
        <time>2021-03-24T14:52:32Z</time>
      </trkpt>
      <trkpt lat="45.32028" lon="4.64609">
        <ele>619.40002441406</ele>
        <time>2021-03-24T14:52:43Z</time>
      </trkpt>
      <trkpt lat="45.32045" lon="4.64626">
        <ele>622.40002441406</ele>
        <time>2021-03-24T14:52:59Z</time>
      </trkpt>
      <trkpt lat="45.32045" lon="4.64628">
        <ele>622.40002441406</ele>
        <time>2021-03-24T14:53:00Z</time>
      </trkpt>
      <trkpt lat="45.32035" lon="4.64637">
        <ele>624</ele>
        <time>2021-03-24T14:53:07Z</time>
      </trkpt>
      <trkpt lat="45.32019" lon="4.64647">
        <ele>625.59997558594</ele>
        <time>2021-03-24T14:53:17Z</time>
      </trkpt>
      <trkpt lat="45.31986" lon="4.64661">
        <ele>627</ele>
        <time>2021-03-24T14:53:33Z</time>
      </trkpt>
      <trkpt lat="45.31949" lon="4.647">
        <ele>628.40002441406</ele>
        <time>2021-03-24T14:53:53Z</time>
      </trkpt>
      <trkpt lat="45.3192" lon="4.64732">
        <ele>630.40002441406</ele>
        <time>2021-03-24T14:54:10Z</time>
      </trkpt>
      <trkpt lat="45.31891" lon="4.64772">
        <ele>633</ele>
        <time>2021-03-24T14:54:27Z</time>
      </trkpt>
      <trkpt lat="45.31882" lon="4.64797">
        <ele>633.59997558594</ele>
        <time>2021-03-24T14:54:34Z</time>
      </trkpt>
      <trkpt lat="45.31873" lon="4.64845">
        <ele>635.20001220703</ele>
        <time>2021-03-24T14:54:48Z</time>
      </trkpt>
      <trkpt lat="45.3187" lon="4.64875">
        <ele>636.79998779297</ele>
        <time>2021-03-24T14:54:57Z</time>
      </trkpt>
      <trkpt lat="45.3187" lon="4.64907">
        <ele>638</ele>
        <time>2021-03-24T14:55:06Z</time>
      </trkpt>
      <trkpt lat="45.31869" lon="4.64945">
        <ele>640</ele>
        <time>2021-03-24T14:55:17Z</time>
      </trkpt>
      <trkpt lat="45.31868" lon="4.64981">
        <ele>641.79998779297</ele>
        <time>2021-03-24T14:55:27Z</time>
      </trkpt>
      <trkpt lat="45.31867" lon="4.65019">
        <ele>642.20001220703</ele>
        <time>2021-03-24T14:55:37Z</time>
      </trkpt>
      <trkpt lat="45.31867" lon="4.65047">
        <ele>643.20001220703</ele>
        <time>2021-03-24T14:55:44Z</time>
      </trkpt>
      <trkpt lat="45.31866" lon="4.65078">
        <ele>643.79998779297</ele>
        <time>2021-03-24T14:55:52Z</time>
      </trkpt>
      <trkpt lat="45.31863" lon="4.65142">
        <ele>645.59997558594</ele>
        <time>2021-03-24T14:56:07Z</time>
      </trkpt>
      <trkpt lat="45.31878" lon="4.65208">
        <ele>647.40002441406</ele>
        <time>2021-03-24T14:56:22Z</time>
      </trkpt>
      <trkpt lat="45.3191" lon="4.65279">
        <ele>648.40002441406</ele>
        <time>2021-03-24T14:56:39Z</time>
      </trkpt>
      <trkpt lat="45.31915" lon="4.65297">
        <ele>648.40002441406</ele>
        <time>2021-03-24T14:56:43Z</time>
      </trkpt>
      <trkpt lat="45.31907" lon="4.65312">
        <ele>648.40002441406</ele>
        <time>2021-03-24T14:56:46Z</time>
      </trkpt>
      <trkpt lat="45.31863" lon="4.6536">
        <ele>647</ele>
        <time>2021-03-24T14:56:55Z</time>
      </trkpt>
      <trkpt lat="45.31836" lon="4.65398">
        <ele>645.59997558594</ele>
        <time>2021-03-24T14:57:00Z</time>
      </trkpt>
      <trkpt lat="45.31795" lon="4.65455">
        <ele>641.40002441406</ele>
        <time>2021-03-24T14:57:06Z</time>
      </trkpt>
      <trkpt lat="45.31781" lon="4.65486">
        <ele>638.20001220703</ele>
        <time>2021-03-24T14:57:09Z</time>
      </trkpt>
      <trkpt lat="45.31772" lon="4.65506">
        <ele>637.20001220703</ele>
        <time>2021-03-24T14:57:11Z</time>
      </trkpt>
      <trkpt lat="45.31745" lon="4.65532">
        <ele>636</ele>
        <time>2021-03-24T14:57:16Z</time>
      </trkpt>
      <trkpt lat="45.31689" lon="4.65548">
        <ele>634.20001220703</ele>
        <time>2021-03-24T14:57:25Z</time>
      </trkpt>
      <trkpt lat="45.31665" lon="4.65548">
        <ele>634.20001220703</ele>
        <time>2021-03-24T14:57:29Z</time>
      </trkpt>
      <trkpt lat="45.31646" lon="4.65552">
        <ele>634</ele>
        <time>2021-03-24T14:57:32Z</time>
      </trkpt>
      <trkpt lat="45.31613" lon="4.65584">
        <ele>634</ele>
        <time>2021-03-24T14:57:39Z</time>
      </trkpt>
      <trkpt lat="45.31575" lon="4.65601">
        <ele>633.20001220703</ele>
        <time>2021-03-24T14:57:46Z</time>
      </trkpt>
      <trkpt lat="45.3149" lon="4.65615">
        <ele>632</ele>
        <time>2021-03-24T14:58:02Z</time>
      </trkpt>
      <trkpt lat="45.31398" lon="4.65628">
        <ele>631</ele>
        <time>2021-03-24T14:58:19Z</time>
      </trkpt>
      <trkpt lat="45.31371" lon="4.65635">
        <ele>631</ele>
        <time>2021-03-24T14:58:24Z</time>
      </trkpt>
      <trkpt lat="45.31343" lon="4.65648">
        <ele>630.59997558594</ele>
        <time>2021-03-24T14:58:30Z</time>
      </trkpt>
      <trkpt lat="45.31346" lon="4.65658">
        <ele>630.79998779297</ele>
        <time>2021-03-24T14:58:36Z</time>
      </trkpt>
      <trkpt lat="45.31347" lon="4.65658">
        <ele>631</ele>
        <time>2021-03-24T14:58:37Z</time>
      </trkpt>
      <trkpt lat="45.31352" lon="4.65657">
        <ele>631.20001220703</ele>
        <time>2021-03-24T14:58:41Z</time>
      </trkpt>
      <trkpt lat="45.31354" lon="4.65656">
        <ele>631.59997558594</ele>
        <time>2021-03-24T14:58:43Z</time>
      </trkpt>
      <trkpt lat="45.31376" lon="4.65664">
        <ele>633.59997558594</ele>
        <time>2021-03-24T14:58:54Z</time>
      </trkpt>
      <trkpt lat="45.31385" lon="4.65666">
        <ele>634.40002441406</ele>
        <time>2021-03-24T14:58:58Z</time>
      </trkpt>
      <trkpt lat="45.31412" lon="4.65677">
        <ele>637.20001220703</ele>
        <time>2021-03-24T14:59:12Z</time>
      </trkpt>
      <trkpt lat="45.31431" lon="4.65693">
        <ele>639.79998779297</ele>
        <time>2021-03-24T14:59:26Z</time>
      </trkpt>
      <trkpt lat="45.31448" lon="4.65713">
        <ele>642.79998779297</ele>
        <time>2021-03-24T14:59:40Z</time>
      </trkpt>
      <trkpt lat="45.31465" lon="4.65727">
        <ele>644.59997558594</ele>
        <time>2021-03-24T14:59:52Z</time>
      </trkpt>
      <trkpt lat="45.31489" lon="4.65742">
        <ele>646.20001220703</ele>
        <time>2021-03-24T15:00:06Z</time>
      </trkpt>
      <trkpt lat="45.31512" lon="4.6575">
        <ele>648</ele>
        <time>2021-03-24T15:00:18Z</time>
      </trkpt>
      <trkpt lat="45.31515" lon="4.65757">
        <ele>648.59997558594</ele>
        <time>2021-03-24T15:00:21Z</time>
      </trkpt>
      <trkpt lat="45.31506" lon="4.65771">
        <ele>650.79998779297</ele>
        <time>2021-03-24T15:00:29Z</time>
      </trkpt>
      <trkpt lat="45.31477" lon="4.65786">
        <ele>653.40002441406</ele>
        <time>2021-03-24T15:00:43Z</time>
      </trkpt>
      <trkpt lat="45.31458" lon="4.65798">
        <ele>654.79998779297</ele>
        <time>2021-03-24T15:00:53Z</time>
      </trkpt>
      <trkpt lat="45.3144" lon="4.65805">
        <ele>657.40002441406</ele>
        <time>2021-03-24T15:01:04Z</time>
      </trkpt>
      <trkpt lat="45.31415" lon="4.65818">
        <ele>659.79998779297</ele>
        <time>2021-03-24T15:01:19Z</time>
      </trkpt>
      <trkpt lat="45.31398" lon="4.65832">
        <ele>662.20001220703</ele>
        <time>2021-03-24T15:01:31Z</time>
      </trkpt>
      <trkpt lat="45.31388" lon="4.65845">
        <ele>664.20001220703</ele>
        <time>2021-03-24T15:01:42Z</time>
      </trkpt>
      <trkpt lat="45.31384" lon="4.6585">
        <ele>665</ele>
        <time>2021-03-24T15:01:46Z</time>
      </trkpt>
      <trkpt lat="45.31383" lon="4.65871">
        <ele>666.79998779297</ele>
        <time>2021-03-24T15:01:57Z</time>
      </trkpt>
      <trkpt lat="45.31387" lon="4.65896">
        <ele>668.59997558594</ele>
        <time>2021-03-24T15:02:11Z</time>
      </trkpt>
      <trkpt lat="45.31387" lon="4.65898">
        <ele>668.59997558594</ele>
        <time>2021-03-24T15:02:12Z</time>
      </trkpt>
      <trkpt lat="45.31387" lon="4.65914">
        <ele>669.40002441406</ele>
        <time>2021-03-24T15:02:19Z</time>
      </trkpt>
      <trkpt lat="45.31388" lon="4.65945">
        <ele>670.59997558594</ele>
        <time>2021-03-24T15:02:28Z</time>
      </trkpt>
      <trkpt lat="45.31389" lon="4.65947">
        <ele>670.79998779297</ele>
        <time>2021-03-24T15:02:29Z</time>
      </trkpt>
      <trkpt lat="45.31389" lon="4.65975">
        <ele>671.79998779297</ele>
        <time>2021-03-24T15:02:37Z</time>
      </trkpt>
      <trkpt lat="45.3139" lon="4.65985">
        <ele>672.40002441406</ele>
        <time>2021-03-24T15:02:40Z</time>
      </trkpt>
      <trkpt lat="45.31392" lon="4.65996">
        <ele>672.79998779297</ele>
        <time>2021-03-24T15:02:44Z</time>
      </trkpt>
      <trkpt lat="45.31402" lon="4.66032">
        <ele>675.20001220703</ele>
        <time>2021-03-24T15:02:58Z</time>
      </trkpt>
      <trkpt lat="45.31413" lon="4.66064">
        <ele>676</ele>
        <time>2021-03-24T15:03:09Z</time>
      </trkpt>
      <trkpt lat="45.31413" lon="4.66122">
        <ele>677.40002441406</ele>
        <time>2021-03-24T15:03:25Z</time>
      </trkpt>
      <trkpt lat="45.31397" lon="4.66162">
        <ele>678.20001220703</ele>
        <time>2021-03-24T15:03:38Z</time>
      </trkpt>
      <trkpt lat="45.31377" lon="4.66207">
        <ele>680.59997558594</ele>
        <time>2021-03-24T15:03:56Z</time>
      </trkpt>
      <trkpt lat="45.31363" lon="4.66223">
        <ele>682.40002441406</ele>
        <time>2021-03-24T15:04:06Z</time>
      </trkpt>
      <trkpt lat="45.3133" lon="4.66222">
        <ele>684</ele>
        <time>2021-03-24T15:04:21Z</time>
      </trkpt>
      <trkpt lat="45.31305" lon="4.66225">
        <ele>684.79998779297</ele>
        <time>2021-03-24T15:04:32Z</time>
      </trkpt>
      <trkpt lat="45.31282" lon="4.66225">
        <ele>685.59997558594</ele>
        <time>2021-03-24T15:04:42Z</time>
      </trkpt>
      <trkpt lat="45.31256" lon="4.66229">
        <ele>687.40002441406</ele>
        <time>2021-03-24T15:04:53Z</time>
      </trkpt>
      <trkpt lat="45.31236" lon="4.66233">
        <ele>690.20001220703</ele>
        <time>2021-03-24T15:05:04Z</time>
      </trkpt>
      <trkpt lat="45.31227" lon="4.66237">
        <ele>691.79998779297</ele>
        <time>2021-03-24T15:05:11Z</time>
      </trkpt>
      <trkpt lat="45.31212" lon="4.66241">
        <ele>694</ele>
        <time>2021-03-24T15:05:22Z</time>
      </trkpt>
      <trkpt lat="45.31189" lon="4.66234">
        <ele>695.79998779297</ele>
        <time>2021-03-24T15:05:33Z</time>
      </trkpt>
      <trkpt lat="45.31169" lon="4.66228">
        <ele>697.79998779297</ele>
        <time>2021-03-24T15:05:44Z</time>
      </trkpt>
      <trkpt lat="45.31157" lon="4.66227">
        <ele>698.79998779297</ele>
        <time>2021-03-24T15:05:51Z</time>
      </trkpt>
      <trkpt lat="45.31145" lon="4.6622">
        <ele>700</ele>
        <time>2021-03-24T15:05:58Z</time>
      </trkpt>
      <trkpt lat="45.3113" lon="4.66216">
        <ele>702</ele>
        <time>2021-03-24T15:06:08Z</time>
      </trkpt>
      <trkpt lat="45.31111" lon="4.66203">
        <ele>703.59997558594</ele>
        <time>2021-03-24T15:06:19Z</time>
      </trkpt>
      <trkpt lat="45.3109" lon="4.66181">
        <ele>705</ele>
        <time>2021-03-24T15:06:31Z</time>
      </trkpt>
      <trkpt lat="45.31077" lon="4.66165">
        <ele>705.40002441406</ele>
        <time>2021-03-24T15:06:39Z</time>
      </trkpt>
      <trkpt lat="45.31057" lon="4.66144">
        <ele>705.59997558594</ele>
        <time>2021-03-24T15:06:46Z</time>
      </trkpt>
      <trkpt lat="45.31036" lon="4.66113">
        <ele>705.79998779297</ele>
        <time>2021-03-24T15:06:56Z</time>
      </trkpt>
      <trkpt lat="45.31011" lon="4.66079">
        <ele>705.59997558594</ele>
        <time>2021-03-24T15:07:07Z</time>
      </trkpt>
      <trkpt lat="45.30998" lon="4.66055">
        <ele>705.59997558594</ele>
        <time>2021-03-24T15:07:14Z</time>
      </trkpt>
      <trkpt lat="45.30977" lon="4.6603">
        <ele>705.40002441406</ele>
        <time>2021-03-24T15:07:19Z</time>
      </trkpt>
      <trkpt lat="45.30929" lon="4.65968">
        <ele>702.20001220703</ele>
        <time>2021-03-24T15:07:27Z</time>
      </trkpt>
      <trkpt lat="45.30905" lon="4.65942">
        <ele>699</ele>
        <time>2021-03-24T15:07:30Z</time>
      </trkpt>
      <trkpt lat="45.30885" lon="4.65925">
        <ele>697</ele>
        <time>2021-03-24T15:07:33Z</time>
      </trkpt>
      <trkpt lat="45.30877" lon="4.65915">
        <ele>695.40002441406</ele>
        <time>2021-03-24T15:07:35Z</time>
      </trkpt>
      <trkpt lat="45.30859" lon="4.65881">
        <ele>693.20001220703</ele>
        <time>2021-03-24T15:07:42Z</time>
      </trkpt>
      <trkpt lat="45.30855" lon="4.65869">
        <ele>690</ele>
        <time>2021-03-24T15:07:45Z</time>
      </trkpt>
      <trkpt lat="45.30841" lon="4.65857">
        <ele>687</ele>
        <time>2021-03-24T15:07:49Z</time>
      </trkpt>
      <trkpt lat="45.30841" lon="4.65857">
        <ele>686.20001220703</ele>
        <time>2021-03-24T15:07:50Z</time>
      </trkpt>
      <trkpt lat="45.30828" lon="4.65884">
        <ele>684.20001220703</ele>
        <time>2021-03-24T15:07:53Z</time>
      </trkpt>
      <trkpt lat="45.30825" lon="4.65895">
        <ele>684</ele>
        <time>2021-03-24T15:07:54Z</time>
      </trkpt>
      <trkpt lat="45.30817" lon="4.65931">
        <ele>682.79998779297</ele>
        <time>2021-03-24T15:07:57Z</time>
      </trkpt>
      <trkpt lat="45.30816" lon="4.6598">
        <ele>681</ele>
        <time>2021-03-24T15:08:02Z</time>
      </trkpt>
      <trkpt lat="45.3082" lon="4.66019">
        <ele>678.20001220703</ele>
        <time>2021-03-24T15:08:06Z</time>
      </trkpt>
      <trkpt lat="45.30822" lon="4.66037">
        <ele>676.59997558594</ele>
        <time>2021-03-24T15:08:08Z</time>
      </trkpt>
      <trkpt lat="45.30848" lon="4.66083">
        <ele>673.20001220703</ele>
        <time>2021-03-24T15:08:14Z</time>
      </trkpt>
      <trkpt lat="45.30854" lon="4.66087">
        <ele>672.59997558594</ele>
        <time>2021-03-24T15:08:15Z</time>
      </trkpt>
      <trkpt lat="45.30876" lon="4.66105">
        <ele>670.20001220703</ele>
        <time>2021-03-24T15:08:19Z</time>
      </trkpt>
      <trkpt lat="45.30887" lon="4.66132">
        <ele>669</ele>
        <time>2021-03-24T15:08:22Z</time>
      </trkpt>
      <trkpt lat="45.30887" lon="4.66161">
        <ele>667.20001220703</ele>
        <time>2021-03-24T15:08:25Z</time>
      </trkpt>
      <trkpt lat="45.30885" lon="4.66199">
        <ele>664</ele>
        <time>2021-03-24T15:08:29Z</time>
      </trkpt>
      <trkpt lat="45.30884" lon="4.66219">
        <ele>662.40002441406</ele>
        <time>2021-03-24T15:08:31Z</time>
      </trkpt>
      <trkpt lat="45.30881" lon="4.66228">
        <ele>662.20001220703</ele>
        <time>2021-03-24T15:08:32Z</time>
      </trkpt>
      <trkpt lat="45.30866" lon="4.66222">
        <ele>658.20001220703</ele>
        <time>2021-03-24T15:08:37Z</time>
      </trkpt>
      <trkpt lat="45.3086" lon="4.66193">
        <ele>656</ele>
        <time>2021-03-24T15:08:41Z</time>
      </trkpt>
      <trkpt lat="45.30847" lon="4.66172">
        <ele>653.59997558594</ele>
        <time>2021-03-24T15:08:44Z</time>
      </trkpt>
      <trkpt lat="45.30823" lon="4.66159">
        <ele>649.59997558594</ele>
        <time>2021-03-24T15:08:49Z</time>
      </trkpt>
      <trkpt lat="45.30807" lon="4.66165">
        <ele>646</ele>
        <time>2021-03-24T15:08:54Z</time>
      </trkpt>
      <trkpt lat="45.30787" lon="4.6617">
        <ele>643.79998779297</ele>
        <time>2021-03-24T15:08:58Z</time>
      </trkpt>
      <trkpt lat="45.30762" lon="4.6617">
        <ele>640.20001220703</ele>
        <time>2021-03-24T15:09:03Z</time>
      </trkpt>
      <trkpt lat="45.30748" lon="4.66173">
        <ele>637.79998779297</ele>
        <time>2021-03-24T15:09:07Z</time>
      </trkpt>
      <trkpt lat="45.30735" lon="4.66174">
        <ele>635.20001220703</ele>
        <time>2021-03-24T15:09:12Z</time>
      </trkpt>
      <trkpt lat="45.30732" lon="4.66173">
        <ele>635.20001220703</ele>
        <time>2021-03-24T15:09:13Z</time>
      </trkpt>
      <trkpt lat="45.30711" lon="4.66178">
        <ele>634</ele>
        <time>2021-03-24T15:09:17Z</time>
      </trkpt>
      <trkpt lat="45.30677" lon="4.66183">
        <ele>631</ele>
        <time>2021-03-24T15:09:23Z</time>
      </trkpt>
      <trkpt lat="45.30669" lon="4.66176">
        <ele>630</ele>
        <time>2021-03-24T15:09:25Z</time>
      </trkpt>
      <trkpt lat="45.30657" lon="4.66186">
        <ele>627.20001220703</ele>
        <time>2021-03-24T15:09:30Z</time>
      </trkpt>
      <trkpt lat="45.30673" lon="4.66212">
        <ele>625</ele>
        <time>2021-03-24T15:09:37Z</time>
      </trkpt>
      <trkpt lat="45.30696" lon="4.66247">
        <ele>622</ele>
        <time>2021-03-24T15:09:42Z</time>
      </trkpt>
      <trkpt lat="45.30699" lon="4.66254">
        <ele>621.79998779297</ele>
        <time>2021-03-24T15:09:43Z</time>
      </trkpt>
      <trkpt lat="45.30698" lon="4.66274">
        <ele>618.59997558594</ele>
        <time>2021-03-24T15:09:47Z</time>
      </trkpt>
      <trkpt lat="45.30701" lon="4.6629">
        <ele>616.79998779297</ele>
        <time>2021-03-24T15:09:50Z</time>
      </trkpt>
      <trkpt lat="45.30704" lon="4.66313">
        <ele>616</ele>
        <time>2021-03-24T15:09:55Z</time>
      </trkpt>
      <trkpt lat="45.30681" lon="4.66337">
        <ele>616.20001220703</ele>
        <time>2021-03-24T15:10:04Z</time>
      </trkpt>
      <trkpt lat="45.30663" lon="4.66335">
        <ele>617.20001220703</ele>
        <time>2021-03-24T15:10:10Z</time>
      </trkpt>
      <trkpt lat="45.30634" lon="4.66321">
        <ele>618</ele>
        <time>2021-03-24T15:10:20Z</time>
      </trkpt>
      <trkpt lat="45.30598" lon="4.66314">
        <ele>620.20001220703</ele>
        <time>2021-03-24T15:10:34Z</time>
      </trkpt>
      <trkpt lat="45.30574" lon="4.66322">
        <ele>621.40002441406</ele>
        <time>2021-03-24T15:10:44Z</time>
      </trkpt>
      <trkpt lat="45.30547" lon="4.66342">
        <ele>623</ele>
        <time>2021-03-24T15:10:55Z</time>
      </trkpt>
      <trkpt lat="45.30526" lon="4.66375">
        <ele>624.40002441406</ele>
        <time>2021-03-24T15:11:06Z</time>
      </trkpt>
      <trkpt lat="45.30503" lon="4.66418">
        <ele>626.20001220703</ele>
        <time>2021-03-24T15:11:19Z</time>
      </trkpt>
      <trkpt lat="45.30489" lon="4.66471">
        <ele>628.20001220703</ele>
        <time>2021-03-24T15:11:33Z</time>
      </trkpt>
      <trkpt lat="45.30482" lon="4.66488">
        <ele>628.59997558594</ele>
        <time>2021-03-24T15:11:37Z</time>
      </trkpt>
      <trkpt lat="45.30476" lon="4.66509">
        <ele>628</ele>
        <time>2021-03-24T15:11:43Z</time>
      </trkpt>
      <trkpt lat="45.30476" lon="4.66509">
        <ele>626</ele>
        <time>2021-03-24T15:11:52Z</time>
      </trkpt>
      <trkpt lat="45.30476" lon="4.66509">
        <ele>626.40002441406</ele>
        <time>2021-03-24T15:16:38Z</time>
      </trkpt>
      <trkpt lat="45.30492" lon="4.66585">
        <ele>625</ele>
        <time>2021-03-24T15:16:49Z</time>
      </trkpt>
      <trkpt lat="45.30495" lon="4.66604">
        <ele>623.79998779297</ele>
        <time>2021-03-24T15:16:51Z</time>
      </trkpt>
      <trkpt lat="45.30509" lon="4.66657">
        <ele>621</ele>
        <time>2021-03-24T15:16:56Z</time>
      </trkpt>
      <trkpt lat="45.30517" lon="4.66701">
        <ele>619.40002441406</ele>
        <time>2021-03-24T15:17:00Z</time>
      </trkpt>
      <trkpt lat="45.30528" lon="4.66796">
        <ele>616.59997558594</ele>
        <time>2021-03-24T15:17:09Z</time>
      </trkpt>
      <trkpt lat="45.30531" lon="4.66815">
        <ele>616.20001220703</ele>
        <time>2021-03-24T15:17:11Z</time>
      </trkpt>
      <trkpt lat="45.30541" lon="4.66901">
        <ele>614.40002441406</ele>
        <time>2021-03-24T15:17:20Z</time>
      </trkpt>
      <trkpt lat="45.30543" lon="4.6691">
        <ele>614.20001220703</ele>
        <time>2021-03-24T15:17:21Z</time>
      </trkpt>
      <trkpt lat="45.30565" lon="4.66986">
        <ele>612.20001220703</ele>
        <time>2021-03-24T15:17:29Z</time>
      </trkpt>
      <trkpt lat="45.3059" lon="4.67042">
        <ele>608.59997558594</ele>
        <time>2021-03-24T15:17:35Z</time>
      </trkpt>
      <trkpt lat="45.30597" lon="4.67063">
        <ele>607.40002441406</ele>
        <time>2021-03-24T15:17:37Z</time>
      </trkpt>
      <trkpt lat="45.3059" lon="4.67108">
        <ele>605.79998779297</ele>
        <time>2021-03-24T15:17:42Z</time>
      </trkpt>
      <trkpt lat="45.30584" lon="4.67117">
        <ele>605.40002441406</ele>
        <time>2021-03-24T15:17:43Z</time>
      </trkpt>
      <trkpt lat="45.30557" lon="4.67177">
        <ele>603.20001220703</ele>
        <time>2021-03-24T15:17:50Z</time>
      </trkpt>
      <trkpt lat="45.30551" lon="4.67233">
        <ele>603</ele>
        <time>2021-03-24T15:17:57Z</time>
      </trkpt>
      <trkpt lat="45.30556" lon="4.67255">
        <ele>603.20001220703</ele>
        <time>2021-03-24T15:18:00Z</time>
      </trkpt>
      <trkpt lat="45.30592" lon="4.67377">
        <ele>604.20001220703</ele>
        <time>2021-03-24T15:18:16Z</time>
      </trkpt>
      <trkpt lat="45.30632" lon="4.6746">
        <ele>603.20001220703</ele>
        <time>2021-03-24T15:18:27Z</time>
      </trkpt>
      <trkpt lat="45.30655" lon="4.67482">
        <ele>602.79998779297</ele>
        <time>2021-03-24T15:18:32Z</time>
      </trkpt>
      <trkpt lat="45.30677" lon="4.67519">
        <ele>603.40002441406</ele>
        <time>2021-03-24T15:18:39Z</time>
      </trkpt>
      <trkpt lat="45.30688" lon="4.67544">
        <ele>603.79998779297</ele>
        <time>2021-03-24T15:18:44Z</time>
      </trkpt>
      <trkpt lat="45.30693" lon="4.67552">
        <ele>604</ele>
        <time>2021-03-24T15:18:46Z</time>
      </trkpt>
      <trkpt lat="45.307" lon="4.67569">
        <ele>604.59997558594</ele>
        <time>2021-03-24T15:18:50Z</time>
      </trkpt>
      <trkpt lat="45.30741" lon="4.67616">
        <ele>604.79998779297</ele>
        <time>2021-03-24T15:19:01Z</time>
      </trkpt>
      <trkpt lat="45.30758" lon="4.67646">
        <ele>604</ele>
        <time>2021-03-24T15:19:06Z</time>
      </trkpt>
      <trkpt lat="45.30769" lon="4.6767">
        <ele>604</ele>
        <time>2021-03-24T15:19:10Z</time>
      </trkpt>
      <trkpt lat="45.30787" lon="4.67688">
        <ele>604.20001220703</ele>
        <time>2021-03-24T15:19:15Z</time>
      </trkpt>
      <trkpt lat="45.3081" lon="4.67704">
        <ele>605.59997558594</ele>
        <time>2021-03-24T15:19:23Z</time>
      </trkpt>
      <trkpt lat="45.30819" lon="4.67715">
        <ele>606</ele>
        <time>2021-03-24T15:19:27Z</time>
      </trkpt>
      <trkpt lat="45.30818" lon="4.67747">
        <ele>606.79998779297</ele>
        <time>2021-03-24T15:19:36Z</time>
      </trkpt>
      <trkpt lat="45.30815" lon="4.67771">
        <ele>608.40002441406</ele>
        <time>2021-03-24T15:19:45Z</time>
      </trkpt>
      <trkpt lat="45.30798" lon="4.67807">
        <ele>610.20001220703</ele>
        <time>2021-03-24T15:19:57Z</time>
      </trkpt>
      <trkpt lat="45.30772" lon="4.67856">
        <ele>612</ele>
        <time>2021-03-24T15:20:11Z</time>
      </trkpt>
      <trkpt lat="45.30766" lon="4.67873">
        <ele>613</ele>
        <time>2021-03-24T15:20:16Z</time>
      </trkpt>
      <trkpt lat="45.30771" lon="4.67888">
        <ele>613.59997558594</ele>
        <time>2021-03-24T15:20:20Z</time>
      </trkpt>
      <trkpt lat="45.30792" lon="4.67924">
        <ele>616.59997558594</ele>
        <time>2021-03-24T15:20:35Z</time>
      </trkpt>
      <trkpt lat="45.30813" lon="4.67962">
        <ele>619.40002441406</ele>
        <time>2021-03-24T15:20:51Z</time>
      </trkpt>
      <trkpt lat="45.30825" lon="4.68004">
        <ele>621</ele>
        <time>2021-03-24T15:21:01Z</time>
      </trkpt>
      <trkpt lat="45.30823" lon="4.68051">
        <ele>620.59997558594</ele>
        <time>2021-03-24T15:21:10Z</time>
      </trkpt>
      <trkpt lat="45.30839" lon="4.6814">
        <ele>622.79998779297</ele>
        <time>2021-03-24T15:21:32Z</time>
      </trkpt>
      <trkpt lat="45.30838" lon="4.68173">
        <ele>624.40002441406</ele>
        <time>2021-03-24T15:21:41Z</time>
      </trkpt>
      <trkpt lat="45.30835" lon="4.68229">
        <ele>626.40002441406</ele>
        <time>2021-03-24T15:21:54Z</time>
      </trkpt>
      <trkpt lat="45.30849" lon="4.68277">
        <ele>627.79998779297</ele>
        <time>2021-03-24T15:22:04Z</time>
      </trkpt>
      <trkpt lat="45.30858" lon="4.68302">
        <ele>628.20001220703</ele>
        <time>2021-03-24T15:22:09Z</time>
      </trkpt>
      <trkpt lat="45.30864" lon="4.68325">
        <ele>628.40002441406</ele>
        <time>2021-03-24T15:22:13Z</time>
      </trkpt>
      <trkpt lat="45.30869" lon="4.68365">
        <ele>628.59997558594</ele>
        <time>2021-03-24T15:22:19Z</time>
      </trkpt>
      <trkpt lat="45.30849" lon="4.68466">
        <ele>627.20001220703</ele>
        <time>2021-03-24T15:22:32Z</time>
      </trkpt>
      <trkpt lat="45.30817" lon="4.68567">
        <ele>624.79998779297</ele>
        <time>2021-03-24T15:22:45Z</time>
      </trkpt>
      <trkpt lat="45.3081" lon="4.68585">
        <ele>624</ele>
        <time>2021-03-24T15:22:48Z</time>
      </trkpt>
      <trkpt lat="45.30806" lon="4.68658">
        <ele>623.40002441406</ele>
        <time>2021-03-24T15:22:57Z</time>
      </trkpt>
      <trkpt lat="45.3081" lon="4.68692">
        <ele>624.40002441406</ele>
        <time>2021-03-24T15:23:02Z</time>
      </trkpt>
      <trkpt lat="45.30799" lon="4.68714">
        <ele>627</ele>
        <time>2021-03-24T15:23:11Z</time>
      </trkpt>
      <trkpt lat="45.30777" lon="4.68739">
        <ele>630</ele>
        <time>2021-03-24T15:23:26Z</time>
      </trkpt>
      <trkpt lat="45.3076" lon="4.68774">
        <ele>632.20001220703</ele>
        <time>2021-03-24T15:23:40Z</time>
      </trkpt>
      <trkpt lat="45.30758" lon="4.68813">
        <ele>634.59997558594</ele>
        <time>2021-03-24T15:23:54Z</time>
      </trkpt>
      <trkpt lat="45.30764" lon="4.68861">
        <ele>637.40002441406</ele>
        <time>2021-03-24T15:24:09Z</time>
      </trkpt>
      <trkpt lat="45.30773" lon="4.68917">
        <ele>638.79998779297</ele>
        <time>2021-03-24T15:24:24Z</time>
      </trkpt>
      <trkpt lat="45.30771" lon="4.68945">
        <ele>638.59997558594</ele>
        <time>2021-03-24T15:24:28Z</time>
      </trkpt>
      <trkpt lat="45.30763" lon="4.68983">
        <ele>638</ele>
        <time>2021-03-24T15:24:32Z</time>
      </trkpt>
      <trkpt lat="45.30751" lon="4.69016">
        <ele>636.59997558594</ele>
        <time>2021-03-24T15:24:35Z</time>
      </trkpt>
      <trkpt lat="45.30738" lon="4.69078">
        <ele>633</ele>
        <time>2021-03-24T15:24:40Z</time>
      </trkpt>
      <trkpt lat="45.30733" lon="4.6913">
        <ele>630</ele>
        <time>2021-03-24T15:24:44Z</time>
      </trkpt>
      <trkpt lat="45.3073" lon="4.69151">
        <ele>629.20001220703</ele>
        <time>2021-03-24T15:24:46Z</time>
      </trkpt>
      <trkpt lat="45.30728" lon="4.69162">
        <ele>628.79998779297</ele>
        <time>2021-03-24T15:24:47Z</time>
      </trkpt>
      <trkpt lat="45.30726" lon="4.69203">
        <ele>628.20001220703</ele>
        <time>2021-03-24T15:24:51Z</time>
      </trkpt>
      <trkpt lat="45.30735" lon="4.69251">
        <ele>628.40002441406</ele>
        <time>2021-03-24T15:24:56Z</time>
      </trkpt>
      <trkpt lat="45.30737" lon="4.69261">
        <ele>628.59997558594</ele>
        <time>2021-03-24T15:24:57Z</time>
      </trkpt>
      <trkpt lat="45.30744" lon="4.69277">
        <ele>629</ele>
        <time>2021-03-24T15:24:59Z</time>
      </trkpt>
      <trkpt lat="45.30775" lon="4.69316">
        <ele>629</ele>
        <time>2021-03-24T15:25:05Z</time>
      </trkpt>
      <trkpt lat="45.3079" lon="4.69334">
        <ele>628.79998779297</ele>
        <time>2021-03-24T15:25:08Z</time>
      </trkpt>
      <trkpt lat="45.30805" lon="4.69355">
        <ele>628.20001220703</ele>
        <time>2021-03-24T15:25:11Z</time>
      </trkpt>
      <trkpt lat="45.30832" lon="4.69384">
        <ele>627.40002441406</ele>
        <time>2021-03-24T15:25:15Z</time>
      </trkpt>
      <trkpt lat="45.30846" lon="4.69399">
        <ele>626.79998779297</ele>
        <time>2021-03-24T15:25:17Z</time>
      </trkpt>
      <trkpt lat="45.30862" lon="4.69435">
        <ele>624.79998779297</ele>
        <time>2021-03-24T15:25:21Z</time>
      </trkpt>
      <trkpt lat="45.30875" lon="4.69479">
        <ele>622.59997558594</ele>
        <time>2021-03-24T15:25:25Z</time>
      </trkpt>
      <trkpt lat="45.30876" lon="4.69514">
        <ele>620.59997558594</ele>
        <time>2021-03-24T15:25:28Z</time>
      </trkpt>
      <trkpt lat="45.30876" lon="4.69537">
        <ele>619.79998779297</ele>
        <time>2021-03-24T15:25:30Z</time>
      </trkpt>
      <trkpt lat="45.30883" lon="4.69584">
        <ele>617</ele>
        <time>2021-03-24T15:25:35Z</time>
      </trkpt>
      <trkpt lat="45.30894" lon="4.69628">
        <ele>616.20001220703</ele>
        <time>2021-03-24T15:25:39Z</time>
      </trkpt>
      <trkpt lat="45.30917" lon="4.69695">
        <ele>615</ele>
        <time>2021-03-24T15:25:44Z</time>
      </trkpt>
      <trkpt lat="45.30955" lon="4.69773">
        <ele>611.40002441406</ele>
        <time>2021-03-24T15:25:50Z</time>
      </trkpt>
      <trkpt lat="45.30959" lon="4.69784">
        <ele>610.79998779297</ele>
        <time>2021-03-24T15:25:51Z</time>
      </trkpt>
      <trkpt lat="45.30985" lon="4.69863">
        <ele>607.79998779297</ele>
        <time>2021-03-24T15:25:58Z</time>
      </trkpt>
      <trkpt lat="45.31001" lon="4.69907">
        <ele>607</ele>
        <time>2021-03-24T15:26:02Z</time>
      </trkpt>
      <trkpt lat="45.3102" lon="4.69965">
        <ele>604</ele>
        <time>2021-03-24T15:26:07Z</time>
      </trkpt>
      <trkpt lat="45.31052" lon="4.7005">
        <ele>602.59997558594</ele>
        <time>2021-03-24T15:26:17Z</time>
      </trkpt>
      <trkpt lat="45.31069" lon="4.70113">
        <ele>602</ele>
        <time>2021-03-24T15:26:24Z</time>
      </trkpt>
      <trkpt lat="45.31074" lon="4.70135">
        <ele>601.40002441406</ele>
        <time>2021-03-24T15:26:27Z</time>
      </trkpt>
      <trkpt lat="45.3108" lon="4.70161">
        <ele>601</ele>
        <time>2021-03-24T15:26:30Z</time>
      </trkpt>
      <trkpt lat="45.31094" lon="4.70195">
        <ele>600.59997558594</ele>
        <time>2021-03-24T15:26:35Z</time>
      </trkpt>
      <trkpt lat="45.31107" lon="4.70242">
        <ele>600.79998779297</ele>
        <time>2021-03-24T15:26:42Z</time>
      </trkpt>
      <trkpt lat="45.31136" lon="4.70305">
        <ele>599.20001220703</ele>
        <time>2021-03-24T15:26:49Z</time>
      </trkpt>
      <trkpt lat="45.31156" lon="4.70355">
        <ele>596.20001220703</ele>
        <time>2021-03-24T15:26:54Z</time>
      </trkpt>
      <trkpt lat="45.31169" lon="4.70386">
        <ele>595.40002441406</ele>
        <time>2021-03-24T15:26:57Z</time>
      </trkpt>
      <trkpt lat="45.31178" lon="4.70404">
        <ele>594.79998779297</ele>
        <time>2021-03-24T15:26:59Z</time>
      </trkpt>
      <trkpt lat="45.31204" lon="4.70446">
        <ele>593.40002441406</ele>
        <time>2021-03-24T15:27:04Z</time>
      </trkpt>
      <trkpt lat="45.31219" lon="4.70485">
        <ele>591.20001220703</ele>
        <time>2021-03-24T15:27:08Z</time>
      </trkpt>
      <trkpt lat="45.31227" lon="4.70556">
        <ele>588.59997558594</ele>
        <time>2021-03-24T15:27:14Z</time>
      </trkpt>
      <trkpt lat="45.31226" lon="4.70619">
        <ele>587</ele>
        <time>2021-03-24T15:27:19Z</time>
      </trkpt>
      <trkpt lat="45.31238" lon="4.70669">
        <ele>584.79998779297</ele>
        <time>2021-03-24T15:27:23Z</time>
      </trkpt>
      <trkpt lat="45.31249" lon="4.70697">
        <ele>583.59997558594</ele>
        <time>2021-03-24T15:27:26Z</time>
      </trkpt>
      <trkpt lat="45.31249" lon="4.70724">
        <ele>580</ele>
        <time>2021-03-24T15:27:29Z</time>
      </trkpt>
      <trkpt lat="45.31244" lon="4.70732">
        <ele>578.59997558594</ele>
        <time>2021-03-24T15:27:30Z</time>
      </trkpt>
      <trkpt lat="45.3123" lon="4.7076">
        <ele>576.20001220703</ele>
        <time>2021-03-24T15:27:33Z</time>
      </trkpt>
      <trkpt lat="45.31211" lon="4.70778">
        <ele>573.20001220703</ele>
        <time>2021-03-24T15:27:36Z</time>
      </trkpt>
      <trkpt lat="45.31202" lon="4.70782">
        <ele>572.20001220703</ele>
        <time>2021-03-24T15:27:37Z</time>
      </trkpt>
      <trkpt lat="45.31185" lon="4.7079">
        <ele>570.40002441406</ele>
        <time>2021-03-24T15:27:39Z</time>
      </trkpt>
      <trkpt lat="45.31171" lon="4.70801">
        <ele>568.20001220703</ele>
        <time>2021-03-24T15:27:41Z</time>
      </trkpt>
      <trkpt lat="45.31156" lon="4.70805">
        <ele>565.20001220703</ele>
        <time>2021-03-24T15:27:43Z</time>
      </trkpt>
      <trkpt lat="45.31127" lon="4.70778">
        <ele>561.79998779297</ele>
        <time>2021-03-24T15:27:48Z</time>
      </trkpt>
      <trkpt lat="45.31122" lon="4.70737">
        <ele>560</ele>
        <time>2021-03-24T15:27:52Z</time>
      </trkpt>
      <trkpt lat="45.31122" lon="4.70726">
        <ele>559.79998779297</ele>
        <time>2021-03-24T15:27:53Z</time>
      </trkpt>
      <trkpt lat="45.31095" lon="4.70677">
        <ele>558.59997558594</ele>
        <time>2021-03-24T15:28:00Z</time>
      </trkpt>
      <trkpt lat="45.31048" lon="4.70665">
        <ele>556.79998779297</ele>
        <time>2021-03-24T15:28:06Z</time>
      </trkpt>
      <trkpt lat="45.31014" lon="4.70639">
        <ele>555.20001220703</ele>
        <time>2021-03-24T15:28:10Z</time>
      </trkpt>
      <trkpt lat="45.30968" lon="4.70623">
        <ele>551.40002441406</ele>
        <time>2021-03-24T15:28:15Z</time>
      </trkpt>
      <trkpt lat="45.30945" lon="4.70596">
        <ele>549.79998779297</ele>
        <time>2021-03-24T15:28:18Z</time>
      </trkpt>
      <trkpt lat="45.30934" lon="4.70578">
        <ele>547.59997558594</ele>
        <time>2021-03-24T15:28:20Z</time>
      </trkpt>
      <trkpt lat="45.30908" lon="4.7057">
        <ele>545.20001220703</ele>
        <time>2021-03-24T15:28:24Z</time>
      </trkpt>
      <trkpt lat="45.30883" lon="4.70612">
        <ele>542.79998779297</ele>
        <time>2021-03-24T15:28:29Z</time>
      </trkpt>
      <trkpt lat="45.30881" lon="4.70624">
        <ele>542.20001220703</ele>
        <time>2021-03-24T15:28:30Z</time>
      </trkpt>
      <trkpt lat="45.30869" lon="4.70689">
        <ele>540.20001220703</ele>
        <time>2021-03-24T15:28:36Z</time>
      </trkpt>
      <trkpt lat="45.30836" lon="4.70721">
        <ele>539</ele>
        <time>2021-03-24T15:28:41Z</time>
      </trkpt>
      <trkpt lat="45.30818" lon="4.70757">
        <ele>537.40002441406</ele>
        <time>2021-03-24T15:28:45Z</time>
      </trkpt>
      <trkpt lat="45.30817" lon="4.70771">
        <ele>536.59997558594</ele>
        <time>2021-03-24T15:28:46Z</time>
      </trkpt>
      <trkpt lat="45.30816" lon="4.70786">
        <ele>536.40002441406</ele>
        <time>2021-03-24T15:28:47Z</time>
      </trkpt>
      <trkpt lat="45.30823" lon="4.70864">
        <ele>533.59997558594</ele>
        <time>2021-03-24T15:28:52Z</time>
      </trkpt>
      <trkpt lat="45.30823" lon="4.70888">
        <ele>531.79998779297</ele>
        <time>2021-03-24T15:28:54Z</time>
      </trkpt>
      <trkpt lat="45.30824" lon="4.7091">
        <ele>529.79998779297</ele>
        <time>2021-03-24T15:28:56Z</time>
      </trkpt>
      <trkpt lat="45.30814" lon="4.70945">
        <ele>526.79998779297</ele>
        <time>2021-03-24T15:28:59Z</time>
      </trkpt>
      <trkpt lat="45.30786" lon="4.7097">
        <ele>522.79998779297</ele>
        <time>2021-03-24T15:29:03Z</time>
      </trkpt>
      <trkpt lat="45.30777" lon="4.70971">
        <ele>522.20001220703</ele>
        <time>2021-03-24T15:29:04Z</time>
      </trkpt>
      <trkpt lat="45.30768" lon="4.70972">
        <ele>521</ele>
        <time>2021-03-24T15:29:05Z</time>
      </trkpt>
      <trkpt lat="45.30739" lon="4.70987">
        <ele>516.79998779297</ele>
        <time>2021-03-24T15:29:09Z</time>
      </trkpt>
      <trkpt lat="45.30732" lon="4.70996">
        <ele>514.59997558594</ele>
        <time>2021-03-24T15:29:12Z</time>
      </trkpt>
      <trkpt lat="45.30705" lon="4.7102">
        <ele>511.39999389648</ele>
        <time>2021-03-24T15:29:17Z</time>
      </trkpt>
      <trkpt lat="45.30702" lon="4.71024">
        <ele>511.20001220703</ele>
        <time>2021-03-24T15:29:18Z</time>
      </trkpt>
      <trkpt lat="45.30694" lon="4.71034">
        <ele>511.20001220703</ele>
        <time>2021-03-24T15:29:20Z</time>
      </trkpt>
      <trkpt lat="45.30683" lon="4.71053">
        <ele>511.39999389648</ele>
        <time>2021-03-24T15:29:23Z</time>
      </trkpt>
      <trkpt lat="45.30676" lon="4.71067">
        <ele>511.79998779297</ele>
        <time>2021-03-24T15:29:25Z</time>
      </trkpt>
      <trkpt lat="45.30664" lon="4.71121">
        <ele>512</ele>
        <time>2021-03-24T15:29:31Z</time>
      </trkpt>
      <trkpt lat="45.30655" lon="4.71185">
        <ele>510.20001220703</ele>
        <time>2021-03-24T15:29:38Z</time>
      </trkpt>
      <trkpt lat="45.30642" lon="4.71214">
        <ele>508</ele>
        <time>2021-03-24T15:29:41Z</time>
      </trkpt>
      <trkpt lat="45.30612" lon="4.7125">
        <ele>506</ele>
        <time>2021-03-24T15:29:46Z</time>
      </trkpt>
      <trkpt lat="45.30603" lon="4.7128">
        <ele>504.39999389648</ele>
        <time>2021-03-24T15:29:50Z</time>
      </trkpt>
      <trkpt lat="45.30603" lon="4.71288">
        <ele>504</ele>
        <time>2021-03-24T15:29:51Z</time>
      </trkpt>
      <trkpt lat="45.30594" lon="4.71324">
        <ele>503.39999389648</ele>
        <time>2021-03-24T15:29:56Z</time>
      </trkpt>
      <trkpt lat="45.3057" lon="4.7139">
        <ele>502.39999389648</ele>
        <time>2021-03-24T15:30:04Z</time>
      </trkpt>
      <trkpt lat="45.30545" lon="4.71436">
        <ele>500.39999389648</ele>
        <time>2021-03-24T15:30:10Z</time>
      </trkpt>
      <trkpt lat="45.30529" lon="4.7147">
        <ele>498.79998779297</ele>
        <time>2021-03-24T15:30:14Z</time>
      </trkpt>
      <trkpt lat="45.30524" lon="4.71487">
        <ele>497.60000610352</ele>
        <time>2021-03-24T15:30:16Z</time>
      </trkpt>
      <trkpt lat="45.30521" lon="4.71497">
        <ele>497</ele>
        <time>2021-03-24T15:30:17Z</time>
      </trkpt>
      <trkpt lat="45.30523" lon="4.71558">
        <ele>494.39999389648</ele>
        <time>2021-03-24T15:30:23Z</time>
      </trkpt>
      <trkpt lat="45.30543" lon="4.71602">
        <ele>491</ele>
        <time>2021-03-24T15:30:28Z</time>
      </trkpt>
      <trkpt lat="45.30548" lon="4.71627">
        <ele>486.79998779297</ele>
        <time>2021-03-24T15:30:31Z</time>
      </trkpt>
      <trkpt lat="45.30533" lon="4.71668">
        <ele>483.79998779297</ele>
        <time>2021-03-24T15:30:36Z</time>
      </trkpt>
      <trkpt lat="45.30529" lon="4.71678">
        <ele>483.60000610352</ele>
        <time>2021-03-24T15:30:37Z</time>
      </trkpt>
      <trkpt lat="45.3051" lon="4.7172">
        <ele>480</ele>
        <time>2021-03-24T15:30:41Z</time>
      </trkpt>
      <trkpt lat="45.30508" lon="4.71728">
        <ele>478.79998779297</ele>
        <time>2021-03-24T15:30:42Z</time>
      </trkpt>
      <trkpt lat="45.3051" lon="4.71757">
        <ele>475.39999389648</ele>
        <time>2021-03-24T15:30:45Z</time>
      </trkpt>
      <trkpt lat="45.30515" lon="4.71773">
        <ele>473.39999389648</ele>
        <time>2021-03-24T15:30:47Z</time>
      </trkpt>
      <trkpt lat="45.30528" lon="4.71811">
        <ele>469.60000610352</ele>
        <time>2021-03-24T15:30:51Z</time>
      </trkpt>
      <trkpt lat="45.30521" lon="4.71837">
        <ele>466.20001220703</ele>
        <time>2021-03-24T15:30:55Z</time>
      </trkpt>
      <trkpt lat="45.30516" lon="4.71841">
        <ele>465.20001220703</ele>
        <time>2021-03-24T15:30:56Z</time>
      </trkpt>
      <trkpt lat="45.30497" lon="4.71878">
        <ele>462.39999389648</ele>
        <time>2021-03-24T15:31:02Z</time>
      </trkpt>
      <trkpt lat="45.3049" lon="4.71909">
        <ele>461.39999389648</ele>
        <time>2021-03-24T15:31:05Z</time>
      </trkpt>
      <trkpt lat="45.30477" lon="4.71941">
        <ele>460</ele>
        <time>2021-03-24T15:31:08Z</time>
      </trkpt>
      <trkpt lat="45.30449" lon="4.72003">
        <ele>456.60000610352</ele>
        <time>2021-03-24T15:31:14Z</time>
      </trkpt>
      <trkpt lat="45.3044" lon="4.72025">
        <ele>455.39999389648</ele>
        <time>2021-03-24T15:31:16Z</time>
      </trkpt>
      <trkpt lat="45.30417" lon="4.72087">
        <ele>452.60000610352</ele>
        <time>2021-03-24T15:31:22Z</time>
      </trkpt>
      <trkpt lat="45.3041" lon="4.72143">
        <ele>451</ele>
        <time>2021-03-24T15:31:27Z</time>
      </trkpt>
      <trkpt lat="45.30406" lon="4.72173">
        <ele>448</ele>
        <time>2021-03-24T15:31:31Z</time>
      </trkpt>
      <trkpt lat="45.30388" lon="4.722">
        <ele>445</ele>
        <time>2021-03-24T15:31:36Z</time>
      </trkpt>
      <trkpt lat="45.30375" lon="4.72201">
        <ele>443.39999389648</ele>
        <time>2021-03-24T15:31:38Z</time>
      </trkpt>
      <trkpt lat="45.30368" lon="4.72201">
        <ele>442.79998779297</ele>
        <time>2021-03-24T15:31:39Z</time>
      </trkpt>
      <trkpt lat="45.30342" lon="4.72206">
        <ele>439.60000610352</ele>
        <time>2021-03-24T15:31:43Z</time>
      </trkpt>
      <trkpt lat="45.30336" lon="4.72205">
        <ele>439</ele>
        <time>2021-03-24T15:31:44Z</time>
      </trkpt>
      <trkpt lat="45.30331" lon="4.72205">
        <ele>437.79998779297</ele>
        <time>2021-03-24T15:31:45Z</time>
      </trkpt>
      <trkpt lat="45.30302" lon="4.72211">
        <ele>434.79998779297</ele>
        <time>2021-03-24T15:31:49Z</time>
      </trkpt>
      <trkpt lat="45.30283" lon="4.72257">
        <ele>431.39999389648</ele>
        <time>2021-03-24T15:31:54Z</time>
      </trkpt>
      <trkpt lat="45.30288" lon="4.72304">
        <ele>430.60000610352</ele>
        <time>2021-03-24T15:31:59Z</time>
      </trkpt>
      <trkpt lat="45.3029" lon="4.72312">
        <ele>430.60000610352</ele>
        <time>2021-03-24T15:32:00Z</time>
      </trkpt>
      <trkpt lat="45.30291" lon="4.72344">
        <ele>430.79998779297</ele>
        <time>2021-03-24T15:32:04Z</time>
      </trkpt>
      <trkpt lat="45.3028" lon="4.72399">
        <ele>432.60000610352</ele>
        <time>2021-03-24T15:32:14Z</time>
      </trkpt>
      <trkpt lat="45.30259" lon="4.72445">
        <ele>434.79998779297</ele>
        <time>2021-03-24T15:32:25Z</time>
      </trkpt>
      <trkpt lat="45.3025" lon="4.72461">
        <ele>435</ele>
        <time>2021-03-24T15:32:28Z</time>
      </trkpt>
      <trkpt lat="45.30228" lon="4.72499">
        <ele>434.60000610352</ele>
        <time>2021-03-24T15:32:33Z</time>
      </trkpt>
      <trkpt lat="45.30201" lon="4.72523">
        <ele>432.60000610352</ele>
        <time>2021-03-24T15:32:37Z</time>
      </trkpt>
      <trkpt lat="45.30194" lon="4.72528">
        <ele>432.39999389648</ele>
        <time>2021-03-24T15:32:38Z</time>
      </trkpt>
      <trkpt lat="45.3018" lon="4.72537">
        <ele>431.79998779297</ele>
        <time>2021-03-24T15:32:40Z</time>
      </trkpt>
      <trkpt lat="45.30161" lon="4.72584">
        <ele>430</ele>
        <time>2021-03-24T15:32:46Z</time>
      </trkpt>
      <trkpt lat="45.30163" lon="4.72603">
        <ele>428.39999389648</ele>
        <time>2021-03-24T15:32:48Z</time>
      </trkpt>
      <trkpt lat="45.30165" lon="4.72612">
        <ele>428</ele>
        <time>2021-03-24T15:32:49Z</time>
      </trkpt>
      <trkpt lat="45.30162" lon="4.72647">
        <ele>426</ele>
        <time>2021-03-24T15:32:53Z</time>
      </trkpt>
      <trkpt lat="45.30159" lon="4.72656">
        <ele>425.20001220703</ele>
        <time>2021-03-24T15:32:54Z</time>
      </trkpt>
      <trkpt lat="45.30155" lon="4.72665">
        <ele>424.39999389648</ele>
        <time>2021-03-24T15:32:55Z</time>
      </trkpt>
      <trkpt lat="45.30148" lon="4.72694">
        <ele>421.20001220703</ele>
        <time>2021-03-24T15:32:59Z</time>
      </trkpt>
      <trkpt lat="45.30144" lon="4.72699">
        <ele>418.79998779297</ele>
        <time>2021-03-24T15:33:01Z</time>
      </trkpt>
      <trkpt lat="45.3012" lon="4.727">
        <ele>416.39999389648</ele>
        <time>2021-03-24T15:33:06Z</time>
      </trkpt>
      <trkpt lat="45.30114" lon="4.727">
        <ele>416.20001220703</ele>
        <time>2021-03-24T15:33:07Z</time>
      </trkpt>
      <trkpt lat="45.30067" lon="4.72722">
        <ele>415</ele>
        <time>2021-03-24T15:33:16Z</time>
      </trkpt>
      <trkpt lat="45.30004" lon="4.72755">
        <ele>414</ele>
        <time>2021-03-24T15:33:30Z</time>
      </trkpt>
      <trkpt lat="45.29994" lon="4.72761">
        <ele>414</ele>
        <time>2021-03-24T15:33:32Z</time>
      </trkpt>
      <trkpt lat="45.29957" lon="4.72781">
        <ele>413.60000610352</ele>
        <time>2021-03-24T15:33:39Z</time>
      </trkpt>
      <trkpt lat="45.2988" lon="4.72821">
        <ele>414.20001220703</ele>
        <time>2021-03-24T15:33:54Z</time>
      </trkpt>
      <trkpt lat="45.29799" lon="4.72844">
        <ele>414.39999389648</ele>
        <time>2021-03-24T15:34:09Z</time>
      </trkpt>
      <trkpt lat="45.29789" lon="4.72851">
        <ele>414.39999389648</ele>
        <time>2021-03-24T15:34:11Z</time>
      </trkpt>
      <trkpt lat="45.29667" lon="4.72952">
        <ele>415.20001220703</ele>
        <time>2021-03-24T15:34:34Z</time>
      </trkpt>
      <trkpt lat="45.29618" lon="4.72983">
        <ele>414.20001220703</ele>
        <time>2021-03-24T15:34:41Z</time>
      </trkpt>
      <trkpt lat="45.29561" lon="4.72997">
        <ele>413</ele>
        <time>2021-03-24T15:34:48Z</time>
      </trkpt>
      <trkpt lat="45.29525" lon="4.73001">
        <ele>411.60000610352</ele>
        <time>2021-03-24T15:34:52Z</time>
      </trkpt>
      <trkpt lat="45.29421" lon="4.73016">
        <ele>408.79998779297</ele>
        <time>2021-03-24T15:35:05Z</time>
      </trkpt>
      <trkpt lat="45.29383" lon="4.73016">
        <ele>409</ele>
        <time>2021-03-24T15:35:14Z</time>
      </trkpt>
      <trkpt lat="45.29387" lon="4.73057">
        <ele>409.60000610352</ele>
        <time>2021-03-24T15:35:21Z</time>
      </trkpt>
      <trkpt lat="45.29389" lon="4.73065">
        <ele>409.60000610352</ele>
        <time>2021-03-24T15:35:22Z</time>
      </trkpt>
      <trkpt lat="45.29396" lon="4.73112">
        <ele>409.20001220703</ele>
        <time>2021-03-24T15:35:27Z</time>
      </trkpt>
      <trkpt lat="45.29397" lon="4.73183">
        <ele>406.79998779297</ele>
        <time>2021-03-24T15:35:36Z</time>
      </trkpt>
      <trkpt lat="45.29393" lon="4.73188">
        <ele>406.39999389648</ele>
        <time>2021-03-24T15:35:37Z</time>
      </trkpt>
      <trkpt lat="45.29336" lon="4.73261">
        <ele>403.39999389648</ele>
        <time>2021-03-24T15:35:48Z</time>
      </trkpt>
      <trkpt lat="45.29283" lon="4.73324">
        <ele>400.39999389648</ele>
        <time>2021-03-24T15:35:57Z</time>
      </trkpt>
      <trkpt lat="45.29267" lon="4.73345">
        <ele>399.60000610352</ele>
        <time>2021-03-24T15:36:00Z</time>
      </trkpt>
      <trkpt lat="45.29244" lon="4.73377">
        <ele>398.79998779297</ele>
        <time>2021-03-24T15:36:05Z</time>
      </trkpt>
      <trkpt lat="45.2924" lon="4.73389">
        <ele>396</ele>
        <time>2021-03-24T15:36:20Z</time>
      </trkpt>
      <trkpt lat="45.2924" lon="4.73389">
        <ele>396</ele>
        <time>2021-03-24T15:36:26Z</time>
      </trkpt>
      <trkpt lat="45.29241" lon="4.73391">
        <ele>396</ele>
        <time>2021-03-24T15:36:50Z</time>
      </trkpt>
      <trkpt lat="45.29257" lon="4.73429">
        <ele>395.79998779297</ele>
        <time>2021-03-24T15:37:03Z</time>
      </trkpt>
      <trkpt lat="45.29259" lon="4.73429">
        <ele>395.60000610352</ele>
        <time>2021-03-24T15:37:17Z</time>
      </trkpt>
      <trkpt lat="45.29259" lon="4.73429">
        <ele>395.39999389648</ele>
        <time>2021-03-24T15:37:29Z</time>
      </trkpt>
    </trkseg>
  </trk>
</gpx>